[[{"header":{"parameterUnit":"m.s-1","parameterCategory":1,"la1":30.6,"la2":29.2853,"lo1":-89.7004,"lo2":-87.6739,"dy":0.0162,"dx":0.0183,"nx":112,"ny":82,"refTime":"2023-09-05T12:00:00:Z","depth":0,"parameterNumber":2,"parameterNumberName":"U-component_of_WINDS"},"data":[0.0,0.0,0.0,0.0,0.0,0.0,0.0,0.0,0.0,0.0,0.0,0.0,0.0,0.0,0.0,0.0,0.0,0.0,0.0,0.0,0.0,0.0,0.0,0.0,0.0,0.0,0.0,0.0,0.0,0.0,0.0,0.0,0.0,0.0,0.0,0.0,0.0,0.0,0.0,0.0,0.0,0.0,0.0,0.0,0.0,0.0,0.0,0.0,0.0,0.0,0.0,0.0,0.0,0.0,0.0,0.0,0.0,0.0,0.0,0.0,0.0,0.0,0.0,0.0,0.0,0.0,0.0,0.0,0.0,0.0,0.0,0.0,0.0,0.0,0.0,0.0,0.0,0.0,0.0,0.0,0.0,0.0,0.0,0.0,0.0,0.0,0.0,0.0,0.0,0.0,0.0,-2.612,-2.8817,-3.0188,-2.9692,-2.8322,-2.628,-2.3378,0.0,0.0,0.0,0.0,0.0,0.0,0.0,0.0,0.0,0.0,0.0,0.0,0.0,0.0,0.0,0.0,0.0,0.0,0.0,0.0,0.0,0.0,0.0,0.0,0.0,0.0,0.0,0.0,0.0,0.0,0.0,0.0,0.0,0.0,0.0,0.0,0.0,0.0,0.0,0.0,0.0,0.0,0.0,0.0,0.0,0.0,0.0,0.0,0.0,0.0,0.0,0.0,0.0,0.0,0.0,0.0,0.0,0.0,0.0,0.0,0.0,0.0,0.0,0.0,0.0,0.0,0.0,0.0,0.0,0.0,0.0,0.0,0.0,0.0,0.0,0.0,0.0,0.0,0.0,0.0,0.0,0.0,0.0,0.0,0.0,0.0,0.0,0.0,0.0,0.0,0.0,0.0,0.0,0.0,0.0,0.0,0.0,0.0,0.0,0.0,0.0,0.0,0.0,0.0,-2.3933,-2.8483,-2.9821,-3.0364,-3.0283,-2.8565,-2.628,-2.3378,0.0,0.0,0.0,0.0,0.0,0.0,0.0,0.0,0.0,0.0,0.0,0.0,0.0,0.0,0.0,0.0,0.0,0.0,0.0,0.0,0.0,0.0,0.0,0.0,0.0,0.0,0.0,0.0,0.0,0.0,0.0,0.0,0.0,0.0,0.0,0.0,0.0,0.0,0.0,0.0,0.0,0.0,0.0,0.0,0.0,0.0,0.0,0.0,0.0,0.0,0.0,0.0,0.0,0.0,0.0,0.0,0.0,0.0,0.0,0.0,0.0,0.0,0.0,0.0,0.0,0.0,0.0,0.0,0.0,0.0,0.0,0.0,0.0,0.0,0.0,0.0,0.0,0.0,0.0,0.0,0.0,0.0,0.0,0.0,0.0,0.0,0.0,0.0,0.0,0.0,0.0,0.0,0.0,0.0,0.0,0.0,0.0,0.0,0.0,0.0,0.0,0.0,0.0,-2.3256,-2.5466,-2.8655,-2.9767,-3.0084,-2.976,-2.7895,-2.5661,-2.3138,-2.1977,0.0,0.0,0.0,0.0,0.0,0.0,0.0,0.0,0.0,0.0,0.0,0.0,0.0,0.0,0.0,0.0,0.0,0.0,0.0,0.0,0.0,0.0,0.0,0.0,0.0,0.0,0.0,0.0,0.0,0.0,0.0,0.0,0.0,0.0,0.0,0.0,0.0,0.0,0.0,0.0,0.0,0.0,0.0,0.0,0.0,0.0,0.0,0.0,0.0,0.0,0.0,0.0,0.0,0.0,0.0,0.0,0.0,0.0,0.0,0.0,0.0,0.0,0.0,0.0,0.0,0.0,0.0,0.0,0.0,0.0,0.0,0.0,0.0,0.0,0.0,0.0,0.0,0.0,0.0,0.0,0.0,0.0,0.0,0.0,0.0,0.0,0.0,0.0,0.0,0.0,0.0,0.0,0.0,0.0,0.0,0.0,0.0,0.0,0.0,0.0,0.0,0.0,-2.5057,-2.6633,-2.8587,-2.9572,-2.9793,-2.9067,-2.712,-2.4948,-2.2724,-2.119,0.0,0.0,0.0,0.0,0.0,0.0,0.0,0.0,0.0,0.0,0.0,0.0,0.0,0.0,0.0,0.0,0.0,0.0,0.0,0.0,0.0,0.0,0.0,0.0,0.0,0.0,0.0,0.0,0.0,0.0,0.0,0.0,0.0,0.0,0.0,0.0,0.0,0.0,0.0,0.0,0.0,0.0,0.0,0.0,0.0,0.0,0.0,0.0,0.0,0.0,0.0,0.0,0.0,0.0,0.0,0.0,0.0,0.0,0.0,0.0,0.0,0.0,0.0,0.0,0.0,0.0,0.0,0.0,0.0,0.0,0.0,0.0,0.0,0.0,0.0,0.0,0.0,0.0,0.0,0.0,0.0,0.0,0.0,0.0,0.0,0.0,0.0,0.0,0.0,0.0,0.0,0.0,0.0,0.0,0.0,0.0,0.0,0.0,0.0,0.0,0.0,0.0,-2.4819,-2.6826,-2.919,-2.9848,-2.9665,-2.8554,-2.6552,-2.4397,-2.2099,-2.0114,0.0,0.0,0.0,0.0,0.0,0.0,0.0,0.0,0.0,0.0,0.0,0.0,0.0,0.0,0.0,0.0,0.0,0.0,0.0,0.0,0.0,0.0,0.0,0.0,0.0,0.0,0.0,0.0,0.0,0.0,0.0,0.0,0.0,0.0,0.0,0.0,0.0,0.0,0.0,0.0,0.0,0.0,0.0,0.0,0.0,0.0,0.0,0.0,0.0,0.0,0.0,0.0,0.0,0.0,0.0,0.0,0.0,0.0,0.0,0.0,0.0,0.0,0.0,0.0,0.0,0.0,0.0,0.0,0.0,0.0,0.0,0.0,0.0,0.0,0.0,0.0,0.0,0.0,0.0,0.0,0.0,0.0,0.0,0.0,0.0,0.0,0.0,0.0,0.0,0.0,0.0,0.0,0.0,0.0,0.0,0.0,0.0,0.0,0.0,0.0,0.0,0.0,-2.4446,-2.6223,0.0,-2.9154,-2.8899,-2.7581,-2.5664,-2.3704,-2.176,0.0,0.0,0.0,0.0,0.0,0.0,0.0,0.0,0.0,0.0,0.0,0.0,0.0,0.0,0.0,0.0,0.0,0.0,0.0,0.0,0.0,0.0,0.0,0.0,0.0,0.0,0.0,0.0,0.0,0.0,0.0,0.0,0.0,0.0,0.0,0.0,0.0,0.0,0.0,0.0,0.0,0.0,0.0,0.0,0.0,0.0,0.0,0.0,0.0,0.0,0.0,0.0,0.0,0.0,0.0,0.0,0.0,0.0,0.0,0.0,0.0,0.0,0.0,0.0,0.0,0.0,0.0,0.0,0.0,0.0,0.0,0.0,0.0,0.0,0.0,0.0,0.0,0.0,0.0,0.0,0.0,0.0,0.0,0.0,0.0,0.0,0.0,0.0,0.0,0.0,0.0,0.0,0.0,0.0,0.0,0.0,0.0,0.0,0.0,0.0,0.0,0.0,-2.2598,-2.4098,-2.5729,0.0,-2.8358,-2.8087,-2.6746,-2.4737,-2.2897,-2.1328,0.0,0.0,0.0,0.0,0.0,0.0,0.0,0.0,0.0,0.0,0.0,0.0,0.0,0.0,0.0,0.0,0.0,0.0,0.0,0.0,0.0,0.0,0.0,0.0,0.0,0.0,0.0,0.0,0.0,0.0,0.0,0.0,0.0,0.0,0.0,0.0,0.0,0.0,0.0,0.0,0.0,0.0,0.0,0.0,0.0,0.0,0.0,0.0,0.0,0.0,0.0,0.0,0.0,0.0,0.0,0.0,0.0,0.0,0.0,0.0,0.0,0.0,0.0,0.0,0.0,0.0,0.0,0.0,0.0,0.0,0.0,0.0,0.0,0.0,0.0,0.0,0.0,0.0,0.0,0.0,0.0,0.0,0.0,0.0,0.0,0.0,0.0,0.0,0.0,0.0,0.0,0.0,0.0,0.0,0.0,0.0,0.0,0.0,0.0,0.0,0.0,0.0,-2.2102,-2.3736,-2.5437,-2.7211,-2.7601,-2.732,-2.6171,-2.3811,-2.1891,0.0,0.0,0.0,0.0,0.0,0.0,0.0,0.0,0.0,0.0,0.0,0.0,0.0,0.0,0.0,0.0,0.0,0.0,0.0,0.0,0.0,0.0,0.0,0.0,0.0,0.0,0.0,0.0,0.0,0.0,0.0,0.0,0.0,0.0,0.0,0.0,0.0,0.0,0.0,0.0,0.0,0.0,0.0,0.0,0.0,0.0,0.0,0.0,0.0,0.0,0.0,0.0,0.0,0.0,0.0,0.0,0.0,0.0,0.0,0.0,0.0,0.0,0.0,0.0,0.0,0.0,0.0,0.0,0.0,0.0,0.0,0.0,0.0,0.0,0.0,0.0,0.0,0.0,0.0,0.0,0.0,0.0,0.0,0.0,0.0,0.0,0.0,0.0,0.0,0.0,0.0,0.0,0.0,0.0,0.0,0.0,0.0,0.0,0.0,0.0,0.0,0.0,0.0,-2.1883,-2.2871,-2.4193,-2.6259,-2.6564,-2.6069,-2.4803,-2.2885,-2.1276,-2.0126,0.0,0.0,0.0,0.0,0.0,0.0,0.0,0.0,0.0,0.0,0.0,0.0,0.0,0.0,0.0,0.0,0.0,0.0,0.0,0.0,0.0,0.0,0.0,0.0,0.0,0.0,0.0,0.0,0.0,0.0,0.0,0.0,0.0,0.0,0.0,0.0,0.0,0.0,0.0,0.0,0.0,0.0,0.0,0.0,0.0,0.0,0.0,0.0,0.0,0.0,0.0,0.0,0.0,0.0,0.0,0.0,0.0,0.0,0.0,0.0,0.0,0.0,0.0,0.0,0.0,0.0,0.0,0.0,0.0,0.0,0.0,0.0,0.0,0.0,0.0,0.0,0.0,0.0,0.0,0.0,0.0,0.0,0.0,0.0,0.0,0.0,0.0,0.0,0.0,0.0,0.0,0.0,0.0,0.0,0.0,0.0,0.0,0.0,0.0,0.0,0.0,0.0,-2.1153,-2.2338,-2.3652,-2.5206,-2.5542,-2.5227,-2.4191,-2.21,-2.0506,-1.9766,0.0,0.0,0.0,0.0,0.0,0.0,0.0,0.0,0.0,0.0,0.0,0.0,0.0,0.0,0.0,0.0,0.0,0.0,0.0,0.0,0.0,0.0,0.0,0.0,0.0,0.0,0.0,0.0,0.0,0.0,0.0,0.0,0.0,0.0,0.0,0.0,0.0,0.0,0.0,0.0,0.0,0.0,0.0,0.0,0.0,0.0,0.0,0.0,0.0,0.0,0.0,0.0,0.0,0.0,0.0,0.0,0.0,0.0,0.0,0.0,0.0,0.0,0.0,0.0,0.0,0.0,0.0,0.0,0.0,0.0,0.0,0.0,0.0,0.0,0.0,0.0,0.0,0.0,0.0,0.0,0.0,0.0,0.0,0.0,0.0,0.0,0.0,0.0,0.0,0.0,0.0,0.0,0.0,0.0,0.0,0.0,0.0,0.0,0.0,0.0,0.0,0.0,-2.011,-2.1916,-2.3407,-2.4068,-2.4518,-2.4521,-2.3916,-2.1342,-1.9725,-1.9551,0.0,0.0,0.0,0.0,0.0,0.0,0.0,0.0,0.0,0.0,0.0,0.0,0.0,0.0,0.0,0.0,0.0,0.0,0.0,0.0,0.0,0.0,0.0,0.0,0.0,0.0,0.0,0.0,0.0,0.0,0.0,0.0,0.0,0.0,0.0,0.0,0.0,0.0,0.0,0.0,0.0,0.0,0.0,0.0,0.0,0.0,0.0,0.0,0.0,0.0,0.0,0.0,0.0,0.0,0.0,0.0,0.0,0.0,0.0,0.0,-2.7153,0.0,0.0,0.0,0.0,0.0,0.0,0.0,0.0,0.0,0.0,0.0,0.0,0.0,0.0,0.0,0.0,0.0,0.0,0.0,0.0,0.0,0.0,0.0,0.0,0.0,0.0,0.0,0.0,0.0,0.0,0.0,0.0,0.0,0.0,0.0,0.0,0.0,0.0,0.0,0.0,0.0,-1.9916,-2.0759,-2.1668,-2.2691,-2.2885,-2.2714,-2.2113,-2.0675,-1.9603,-1.9073,-1.7657,0.0,0.0,0.0,0.0,0.0,0.0,0.0,0.0,0.0,0.0,0.0,0.0,0.0,0.0,0.0,0.0,0.0,0.0,0.0,0.0,0.0,0.0,0.0,0.0,0.0,0.0,0.0,0.0,0.0,0.0,0.0,0.0,0.0,0.0,0.0,0.0,0.0,0.0,0.0,0.0,0.0,0.0,0.0,0.0,0.0,0.0,0.0,0.0,0.0,0.0,0.0,0.0,0.0,0.0,0.0,0.0,0.0,0.0,0.0,0.0,-2.8161,0.0,0.0,0.0,0.0,0.0,0.0,0.0,0.0,0.0,0.0,0.0,0.0,0.0,0.0,0.0,0.0,0.0,0.0,0.0,0.0,0.0,0.0,0.0,0.0,0.0,0.0,0.0,0.0,0.0,0.0,0.0,0.0,0.0,0.0,0.0,0.0,0.0,0.0,0.0,0.0,-1.9406,-2.0411,-2.1315,-2.189,-2.1969,-2.1747,-2.1146,-1.9799,-1.8823,-1.8429,-1.7286,0.0,0.0,0.0,0.0,0.0,0.0,0.0,0.0,0.0,0.0,0.0,0.0,0.0,0.0,0.0,0.0,0.0,0.0,0.0,0.0,0.0,0.0,0.0,0.0,0.0,0.0,0.0,0.0,0.0,0.0,0.0,0.0,0.0,0.0,0.0,0.0,0.0,0.0,0.0,0.0,0.0,0.0,0.0,0.0,0.0,0.0,0.0,0.0,0.0,0.0,0.0,0.0,0.0,-3.5992,-3.5811,-3.5196,-3.4813,-3.4038,-3.2932,-3.1236,-2.9851,-2.8782,-2.8506,0.0,0.0,0.0,0.0,0.0,0.0,0.0,0.0,0.0,0.0,0.0,0.0,0.0,0.0,0.0,0.0,0.0,0.0,0.0,0.0,0.0,0.0,0.0,0.0,-2.1983,-2.1365,0.0,0.0,0.0,0.0,0.0,0.0,0.0,0.0,0.0,0.0,0.0,0.0,-1.8911,-2.0348,-2.1368,-2.1368,-2.1368,-2.1172,-2.0751,-1.9287,-1.8343,-1.8206,-1.7191,-1.6728,0.0,0.0,0.0,0.0,0.0,0.0,0.0,0.0,0.0,0.0,0.0,0.0,0.0,0.0,0.0,0.0,0.0,0.0,0.0,0.0,0.0,0.0,0.0,0.0,0.0,0.0,0.0,0.0,0.0,0.0,0.0,0.0,-2.8205,-2.8197,0.0,0.0,0.0,0.0,0.0,0.0,0.0,0.0,0.0,0.0,0.0,0.0,0.0,-3.506,-3.5107,-3.7172,-3.7928,-3.7396,-3.8741,-3.8789,-3.7715,-3.7254,-3.6788,-3.6308,-3.5003,0.0,-3.0282,-2.8954,0.0,0.0,0.0,0.0,0.0,0.0,0.0,0.0,0.0,0.0,0.0,0.0,0.0,0.0,0.0,0.0,0.0,0.0,0.0,0.0,0.0,0.0,-2.1346,-2.1763,-2.1266,-2.0628,0.0,-2.016,-1.974,-1.8862,-1.8646,0.0,0.0,0.0,0.0,0.0,0.0,0.0,-1.8911,-2.002,-2.0817,-2.0817,-2.0817,-2.0791,-2.0712,-2.002,-1.9506,-1.9363,-1.8675,-1.8009,-1.7438,-1.7339,0.0,0.0,0.0,0.0,0.0,0.0,0.0,0.0,0.0,0.0,0.0,0.0,0.0,0.0,0.0,0.0,0.0,0.0,0.0,0.0,0.0,0.0,0.0,0.0,0.0,0.0,0.0,0.0,0.0,-2.92,-2.9494,-2.7078,-2.9542,-3.0909,0.0,0.0,0.0,0.0,0.0,0.0,0.0,0.0,0.0,-3.6017,-3.7106,-3.808,-3.8956,-4.041,-4.1359,-4.181,-4.2036,-4.1682,-4.0817,-3.9928,-3.883,-3.7589,-3.6825,-3.5211,-3.2945,-3.1019,-2.9331,-2.7841,0.0,0.0,0.0,0.0,-2.4453,-2.4903,-2.4833,-2.4853,0.0,-2.523,0.0,0.0,0.0,0.0,0.0,0.0,0.0,0.0,0.0,0.0,-2.2438,-2.2567,-2.2551,-2.2442,-2.2079,-2.1572,-2.0795,0.0,-1.9418,-1.9297,-1.8273,0.0,0.0,0.0,0.0,-1.9088,-1.9368,-2.0164,-2.0699,-2.0699,-2.0699,-2.0543,-2.0229,-1.9884,-1.9525,-1.9117,-1.8755,-1.8265,-1.7645,-1.7587,-1.7333,0.0,0.0,0.0,0.0,0.0,0.0,0.0,0.0,0.0,0.0,0.0,0.0,0.0,0.0,0.0,0.0,0.0,0.0,0.0,0.0,0.0,0.0,0.0,0.0,0.0,0.0,0.0,0.0,-2.9887,-3.0342,-2.6488,-3.0154,-3.2144,0.0,0.0,0.0,0.0,0.0,0.0,-3.609,-3.6802,-3.7854,-3.9427,-4.0317,-4.1258,-4.2203,-4.302,-4.3871,-4.469,-4.4099,-4.3479,-4.2884,-4.1848,-4.0392,-3.8655,-3.8053,-3.6943,-3.5351,-3.2919,-3.0857,-2.9137,-2.8031,-2.7197,-2.6539,-2.5782,-2.5801,-2.6162,-2.5874,-2.5849,-2.5869,-2.5436,0.0,-2.3509,-2.3115,0.0,0.0,0.0,0.0,-2.0873,-2.1611,-2.2531,-2.3218,-2.3026,-2.331,-2.3514,-2.3067,-2.2395,-2.1457,0.0,-2.004,-1.992,-1.8769,0.0,0.0,0.0,0.0,-1.9303,-1.9747,-2.0334,-2.0699,-2.0699,-2.0687,-2.0467,-2.0012,-1.9722,-1.9354,-1.8902,-1.8667,-1.8265,-1.7725,-1.7699,-1.7465,-1.6948,0.0,0.0,0.0,0.0,0.0,0.0,0.0,0.0,0.0,0.0,0.0,0.0,0.0,0.0,0.0,0.0,0.0,0.0,0.0,0.0,0.0,0.0,0.0,0.0,0.0,0.0,0.0,0.0,0.0,-2.7249,-3.2116,0.0,0.0,0.0,0.0,-3.4091,-3.4064,-3.5319,-3.8182,-3.9045,-4.0434,-4.2607,-4.424,-4.4699,-4.3893,-4.4729,-4.4724,-4.3859,-4.3822,-4.348,-4.2882,-4.2382,-4.1452,-4.0214,-3.9059,-3.7944,-3.6761,-3.3928,-3.2158,-3.1023,-2.8768,-2.7849,-2.7692,-2.6845,-2.6987,-2.7494,-2.6794,-2.6539,-2.6545,-2.6592,-2.5198,-2.3163,-2.1392,-2.1026,0.0,0.0,-2.1467,-2.1746,-2.1791,-2.2088,-2.2375,-2.2362,-2.2352,-2.2379,-2.2341,-2.176,-2.107,0.0,-2.0167,-1.9816,-1.9186,0.0,-1.8858,-1.8858,-1.9368,-1.9773,-1.9799,-2.0334,-2.0699,-2.0699,-2.0587,-2.0511,-2.0472,-1.9806,-1.9411,-1.9373,-1.8874,-1.8336,-1.7725,-1.7699,-1.7474,-1.7015,-1.7002,0.0,0.0,0.0,0.0,0.0,0.0,0.0,0.0,0.0,0.0,0.0,0.0,0.0,0.0,0.0,0.0,0.0,0.0,0.0,0.0,0.0,0.0,0.0,0.0,0.0,0.0,0.0,0.0,-3.1222,-3.5371,0.0,-3.512,-3.6493,-3.7723,-3.8215,-3.8558,-3.9605,-4.1604,-4.1968,-4.3098,-4.5282,-4.5876,-4.6483,-4.7144,-4.7428,-4.7065,-4.6112,-4.5241,-4.4565,-4.3981,-4.1953,-4.0695,-3.9979,-3.843,-3.7225,-3.63,-3.5198,-3.421,-3.3236,-3.1426,-3.0352,-2.98,-2.9425,-2.9092,-2.8755,-2.8493,-2.8122,-2.7489,-2.5803,-2.4806,-2.3963,-2.2549,-2.2249,-2.2422,-2.2474,-2.2031,-2.1718,-2.2491,-2.2493,-2.2405,-2.2792,-2.3176,-2.3353,-2.2963,-2.254,-2.2066,-2.1488,-2.0935,-2.0362,-1.9675,-1.9509,-1.9486,-1.9486,-1.9669,-1.9943,-2.0334,-2.0581,-2.0687,-2.0587,-2.0537,-2.0344,-1.9956,-1.9601,-1.9257,-1.8969,-1.8693,-1.8265,-1.7725,-1.7775,-1.7574,-1.6999,-1.7086,-1.7055,0.0,0.0,0.0,0.0,0.0,0.0,0.0,0.0,0.0,0.0,0.0,0.0,0.0,0.0,0.0,0.0,0.0,0.0,0.0,0.0,0.0,0.0,0.0,0.0,0.0,0.0,-3.5473,-3.4318,-3.8455,-4.0521,-3.8266,-3.9827,-4.1065,-4.1228,-4.2059,-4.3168,-4.4593,-4.4923,-4.5688,-4.7102,-4.7045,-4.7208,-4.7683,-4.765,-4.714,-4.6168,-4.5021,-4.4108,-4.3414,-4.1214,-3.9958,-3.9391,-3.7923,-3.6962,-3.6334,-3.5963,-3.5423,-3.4754,-3.3607,-3.2663,-3.1915,-3.1678,-3.1101,-3.0366,-2.9879,-2.8872,-2.7461,-2.5542,-2.4667,-2.4194,-2.3283,-2.2909,-2.2879,-2.3132,-2.2332,-2.1621,-2.2651,-2.261,-2.2398,-2.2789,-2.335,-2.3635,-2.3029,-2.2704,-2.231,-2.1724,-2.1181,-2.0682,-2.0177,-2.0087,-2.0087,-2.0087,-2.0087,-2.0255,-2.066,-2.0699,-2.0687,-2.0587,-2.0537,-2.0266,-1.9647,-1.9437,-1.9067,-1.8471,-1.8295,-1.8016,-1.754,-1.7622,-1.7476,-1.7083,-1.6988,-1.7016,-1.7199,0.0,0.0,0.0,0.0,0.0,0.0,0.0,0.0,0.0,0.0,0.0,0.0,0.0,0.0,0.0,0.0,0.0,0.0,0.0,0.0,0.0,0.0,0.0,-3.1237,-3.5403,-3.7946,-3.6321,-4.1268,-4.351,-4.0217,-4.2759,-4.4118,-4.2947,-4.4244,-4.5672,-4.697,-4.7672,-4.8003,-4.7962,-4.7809,-4.6948,-4.5342,-4.5324,-4.48,-4.3786,-4.2975,-4.2063,-4.1062,-4.0199,-3.9367,-3.853,-3.7639,-3.718,-3.6995,-3.6145,-3.5728,-3.5554,-3.4998,-3.448,-3.3935,-3.3407,-3.2837,-3.2151,-3.0848,-2.8708,-2.6484,-2.599,-2.5005,-2.3903,-2.3413,-2.2849,-2.2509,-2.3093,-2.2402,-2.1608,-2.2199,-2.2348,-2.2325,-2.2331,-2.2802,-2.3071,-2.2444,-2.2104,-2.1727,-2.1141,-2.0861,-2.0699,-2.0699,-2.0699,-2.0699,-2.0699,-2.0699,0.0,-2.0699,-2.0699,-2.0699,-2.0687,-2.0562,-2.0253,-1.9621,-1.9338,-1.8805,-1.7924,-1.7762,-1.7527,-1.7212,-1.7199,-1.7199,-1.7199,-1.6687,-1.6674,-1.7199,0.0,0.0,0.0,0.0,0.0,0.0,0.0,0.0,0.0,0.0,0.0,0.0,0.0,0.0,0.0,0.0,0.0,0.0,0.0,0.0,0.0,0.0,-3.5996,-3.6359,-3.8161,-3.9931,-4.124,-4.3452,-4.4699,-4.4242,-4.5928,-4.6819,-4.6296,-4.7011,-4.7579,-4.7853,-4.6922,-4.657,-4.7031,-4.6473,-4.6137,-4.616,-4.6027,-4.5221,-4.3802,-4.2832,-4.1774,-4.0618,-3.8944,-3.8182,-3.8157,-3.69,-3.6327,-3.6266,-3.5841,-3.5622,-3.5554,-3.4998,-3.448,-3.3935,-3.3407,-3.2259,-3.0894,-3.0525,-2.9296,-2.7725,-2.6766,-2.6223,-2.5754,-2.4806,-2.4408,-2.4299,-2.4476,-2.3946,-2.3406,-2.3566,-2.3283,-2.2948,-2.2959,-2.3353,-2.3528,-2.2943,-2.2615,-2.2233,-2.1614,-2.1081,-2.0699,-2.0699,-2.0699,-2.0699,-2.0699,-2.0699,0.0,-2.0699,-2.0699,-2.0599,-2.0359,-2.0309,-1.9873,-1.8874,-1.8727,-1.8321,-1.7449,-1.7349,-1.7305,-1.7199,-1.7199,-1.7199,-1.7199,-1.705,-1.705,0.0,0.0,0.0,0.0,0.0,0.0,0.0,0.0,0.0,0.0,0.0,0.0,0.0,0.0,0.0,0.0,0.0,0.0,0.0,0.0,0.0,0.0,-3.7642,-4.0115,-4.2038,-4.2106,-4.2724,-4.4884,-4.6244,-4.6989,-4.6939,-4.8271,-4.8855,-4.8147,-4.8674,-4.8787,-4.8228,-4.7245,-4.6551,-4.6209,-4.573,-4.5466,-4.5454,-4.5307,-4.4593,-4.3285,-4.2141,-4.0941,-3.9698,-3.8368,-3.7589,-3.7324,-3.6711,-3.6305,-3.5975,-3.5711,-3.56,0.0,0.0,0.0,0.0,0.0,-3.1581,-3.0356,-3.0079,-2.9123,-2.7885,-2.7004,-2.6561,-2.6203,-2.5272,-2.4829,-2.4693,-2.4937,-2.4367,-2.3784,-2.4028,-2.3838,-2.3581,-2.3581,-2.3932,-2.4107,-2.3514,-2.2964,-2.2432,-2.1832,-2.1164,0.0,-2.0699,-2.0699,-2.0699,-2.0699,-2.0699,-2.0699,-2.0699,-2.0699,-2.0624,-2.0423,-2.041,-1.9933,-1.8761,-1.8855,0.0,0.0,0.0,-1.7405,-1.7212,-1.7199,0.0,0.0,0.0,-1.724,-1.7276,0.0,0.0,0.0,-1.7502,-1.7529,0.0,0.0,0.0,0.0,0.0,0.0,0.0,0.0,0.0,0.0,0.0,0.0,0.0,0.0,0.0,0.0,-4.1639,-4.3995,-4.7272,-4.6433,-4.5997,-4.7384,-4.8859,-4.9379,-4.8468,-4.9702,-5.0058,-4.8874,-4.9486,-4.9423,-4.8262,0.0,0.0,0.0,0.0,-4.4805,-4.3875,-4.3781,-4.3275,-4.2306,-4.1113,-3.9878,-3.8684,-3.8325,-3.7526,-3.6473,-3.6901,-3.6676,-3.5975,-3.5711,-3.5532,-3.5379,-3.4904,-3.4358,-3.3611,-3.2013,-3.0982,-3.0294,-2.9617,0.0,0.0,-2.7052,-2.65,-2.5893,-2.5368,-2.4749,-2.4299,-2.4856,-2.4218,-2.354,-2.4055,-2.4191,-2.4191,-2.4191,-2.4514,-2.4617,-2.4011,-2.3204,-2.2432,-2.1799,-2.1143,-2.0699,-2.0699,-2.0699,-2.0699,-2.0699,-2.0699,-2.0699,-2.0699,-2.0699,-2.0687,-2.0687,0.0,0.0,-1.9048,-1.9337,-1.892,-1.7366,-1.7618,-1.7648,-1.7274,-1.722,-1.724,-1.7303,-1.724,-1.7289,-1.7415,-1.7425,-1.7536,-1.7706,-1.7592,-1.7592,0.0,0.0,0.0,0.0,0.0,0.0,0.0,0.0,0.0,0.0,0.0,0.0,0.0,0.0,0.0,-4.1507,-4.3943,-4.6255,-4.8282,-4.8861,-4.8925,-4.8498,-4.8633,-4.8632,-4.8272,-4.9142,-4.9432,-4.8701,-4.9518,-4.9529,-4.8262,-4.7518,-4.6637,-4.5518,-4.4807,-4.3986,-4.3039,-4.29,-4.21,-4.0591,0.0,0.0,-3.8608,-3.8538,-3.8044,-3.7267,-3.7141,-3.6676,-3.5975,-3.5711,-3.5091,-3.4309,-3.421,-3.3563,-3.259,-3.1709,-3.0982,-3.0294,-2.9617,-2.8891,-2.8229,-2.8225,-2.7471,-2.6529,-2.6525,-2.5729,0.0,-2.4978,-2.4842,-2.4693,-2.4815,-2.4842,-2.4842,-2.4842,-2.4811,-2.4617,-2.39,-2.3136,-2.2392,-2.1668,-2.1066,-2.0699,-2.0699,-2.0699,-2.0699,-2.0699,-2.0699,-2.0699,-2.0699,-2.0699,-2.0662,-2.0537,-2.0537,-2.0191,-1.9372,-1.9385,-1.8937,-1.776,-1.7457,-1.7429,-1.7679,-1.7372,-1.7393,-1.7828,-1.7522,-1.7391,-1.7481,-1.759,-1.7652,-1.7706,-1.7673,-1.774,0.0,0.0,0.0,0.0,0.0,0.0,0.0,0.0,0.0,0.0,0.0,-3.4717,0.0,0.0,-4.1818,-4.4001,-4.6528,-4.864,-4.9912,-5.0426,-5.0474,-5.0002,-5.0276,-5.0254,-4.966,-5.036,-5.0432,-4.9442,-5.0202,-4.9973,-4.8281,-4.7732,-4.6853,-4.5536,-4.459,-4.3865,-4.341,-4.2865,-4.2176,-4.1329,-4.058,-3.9967,-3.9534,-3.9508,-3.8881,-3.7802,-3.7737,-3.7035,-3.5975,-3.5711,-3.5131,-3.4382,-3.4095,-3.3329,-3.2275,-3.1274,-3.0905,-3.072,-2.9366,-2.8904,-2.8866,-2.8665,-2.7914,-2.707,-2.6944,-2.6218,-2.5397,-2.509,-2.5005,-2.5005,-2.5005,-2.5005,-2.4924,-2.4639,-2.4619,-2.4517,-2.3844,-2.3279,-2.2704,-2.206,-2.1734,-2.1446,-2.1158,-2.1106,-2.1014,-2.0751,-2.0699,-2.0699,-2.0699,-2.0699,-2.0687,-2.0612,-2.0799,-2.0673,-2.0011,-1.9612,-1.9097,-1.8357,-1.78,-1.7496,-1.7496,-1.7496,-1.7557,-1.7693,-1.7693,-1.7666,-1.761,-1.7659,-1.7727,-1.7787,-1.7787,-1.7835,0.0,0.0,0.0,0.0,0.0,0.0,0.0,0.0,-3.3228,-3.6137,-3.6451,-3.7036,-3.9801,-4.2009,-4.4156,-4.6419,-4.8784,-5.0581,-5.1288,-5.1292,-5.1157,-5.0962,-5.153,-5.1707,-5.1058,-5.1593,-5.1513,-5.0427,-5.1108,-5.0658,-4.8559,-4.8169,-4.7233,-4.5536,-4.4377,-4.3689,-4.3509,-4.2736,-4.2269,-4.2071,-4.1172,-4.0636,-4.0474,-4.0562,-3.9673,-3.8038,-3.789,-3.7177,-3.6132,-3.574,-3.527,-3.4761,-3.421,-3.3423,-3.2392,-3.107,-3.0859,-3.0951,-2.9196,-2.8873,-2.9168,-2.8854,-2.8186,-2.7457,-2.7301,-2.6675,-2.5961,-2.5453,-2.5272,-2.5174,-2.5174,-2.5008,-2.4706,-2.4218,-2.4295,-2.4369,-2.3846,-2.3517,-2.3177,-2.2744,-2.2534,-2.2271,-2.1812,-2.1799,-2.1693,-2.1105,-2.0843,-2.0776,-2.0982,-2.0914,-2.0873,-2.0959,-2.1313,-2.1318,-2.0818,-2.0125,-1.9557,-1.9161,-1.8556,-1.8016,-1.7599,-1.7779,-1.78,-1.7577,-1.7814,-1.7875,-1.774,-1.774,-1.7781,-1.7902,-1.7902,-1.7902,-3.0409,-3.0023,-2.9915,-3.2244,-3.2324,-3.3042,0.0,0.0,-3.8045,-3.9157,-4.0524,-4.1654,-4.2045,-4.4797,-4.7354,-4.8369,-5.0065,-5.1279,-5.1316,-5.1296,-5.0971,-5.0142,-5.0028,-5.0271,-5.0928,-5.1083,-5.1129,-5.1166,-5.2069,-5.1662,-4.948,-4.8487,-4.7233,-4.5536,-4.3837,-4.2563,-4.1801,-4.1561,-4.1058,-4.0302,-4.1103,-4.1107,-4.042,-4.1091,-4.01,-3.7839,-3.6624,-3.6316,-3.6632,-3.591,-3.527,-3.4761,-3.421,-3.364,-3.2972,-3.175,-3.0966,-3.0386,-2.9556,-2.8965,-2.8587,-2.9137,-2.848,-2.7609,-2.8234,-2.7559,-2.6613,-2.652,-2.6176,-2.5811,-2.5811,-2.4998,-2.4177,-2.4109,-2.4123,-2.4095,-2.3918,-2.3739,-2.3642,-2.3561,-2.3015,-2.255,-2.2484,-2.2909,-2.3039,-2.2312,-2.1354,-2.1033,-2.1992,-2.165,-2.1482,-2.1908,-2.1988,-2.1958,-2.1772,-2.123,-2.0742,-2.0352,-1.9891,-1.9427,-1.8913,-1.8536,-1.8287,-1.8201,-1.7889,-1.7781,-1.7882,-1.7882,-1.7882,-1.7902,-1.7902,-1.7902,-3.0502,-3.1613,0.0,0.0,-3.5039,-3.6708,-3.9833,-4.0296,-4.0582,-4.2435,-4.3411,-4.4075,-4.4582,-4.628,-4.7856,0.0,-4.9798,-5.055,-5.0493,-5.0053,-4.9221,-4.7794,-4.7167,-4.7565,-4.9414,-5.0041,-5.0012,-4.9321,-5.0098,-4.9827,-4.8145,-4.7551,-4.671,-4.5536,-4.3744,-4.2826,-4.2897,-4.1376,-4.1098,-4.2089,-4.1565,-4.1626,-4.2193,-4.2016,-4.0766,-3.8715,-3.7576,-3.6972,-3.6812,-3.6907,-3.6279,-3.5211,-3.4799,-3.4249,-3.3467,-3.196,-3.1459,-3.1413,-3.034,-2.9787,-2.9602,-2.9879,-2.9108,-2.8096,-2.8482,-2.7925,-2.7093,-2.6782,-2.6534,-2.6283,-2.5961,-2.5534,-2.4956,-2.4259,-2.4559,-2.4874,-2.4462,-2.4776,-2.5077,-2.4742,-2.4636,-2.4487,-2.4182,-2.4258,-2.437,-2.4381,-2.3396,-2.2837,-2.3286,-2.3131,-2.3175,-2.3674,-2.3448,-2.3362,-2.3578,-2.2748,-2.2034,-2.163,-2.1072,-2.0582,-2.0118,-1.9756,-1.9349,-1.8889,-1.8565,-1.824,-1.7902,-1.7902,-1.7902,-1.7902,-1.7902,-1.7902,-3.1471,0.0,0.0,-3.6179,-3.8066,-4.0083,-4.1787,-4.2367,-4.306,-4.4972,-4.5168,-4.5185,-4.5806,-4.6624,-4.7396,-4.7995,-4.9156,-4.9901,-4.961,-4.9022,-4.798,-4.6215,-4.5273,-4.5403,-4.7015,-4.8289,-4.8771,-4.8172,-4.8821,-4.8681,-4.7398,-4.6933,-4.6336,-4.5536,-4.3744,-4.3049,-4.3532,-4.1693,-4.1599,-4.3234,-4.2229,-4.2268,-4.3132,-4.1981,-4.0775,-3.9566,-3.8255,-3.7458,-3.7094,-3.7229,-3.6597,-3.5543,-3.5161,-3.4599,-3.3829,-3.2222,-3.1824,-3.1951,-3.0786,-3.0279,-3.0079,-2.991,-2.9196,-2.8415,-2.8516,-2.8162,-2.7655,-2.7276,-2.6924,-2.659,-2.64,-2.5961,-2.5422,-2.4717,-2.5142,-2.5538,-2.5087,-2.568,-2.6191,-2.5836,-2.5952,-2.6005,-2.5631,-2.5597,-2.574,-2.6117,-2.5586,-2.5041,-2.4655,-2.4607,-2.4776,-2.5173,-2.4849,-2.4767,-2.5093,-2.4167,-2.3366,-2.2975,-2.231,-2.1695,-2.1145,-2.082,-2.0238,-1.9368,-1.9038,-1.8551,-1.7902,-1.7902,-1.7902,-1.7902,-1.7902,-1.7902,-3.4038,0.0,-3.5706,-3.9877,-4.1601,-4.2745,-4.4488,-4.5539,-4.6163,-4.6241,-4.5597,-4.4987,-4.4946,-4.5643,-4.6259,-4.6268,-4.8362,-4.9711,-4.887,-4.8705,-4.8025,-4.6201,-4.5237,-4.44,0.0,-4.5641,-4.7546,-4.8862,-4.9532,-4.9373,-4.8224,-4.7233,-4.6336,-4.5536,-4.3744,-4.274,-4.2654,-4.2511,-4.2396,-4.2341,-4.3075,-4.3039,-4.2271,-4.0428,-3.9822,-4.0135,-3.7824,-3.7235,-3.7753,-3.6276,-3.5633,-3.5554,-3.5031,-3.4472,-3.3838,-3.2635,-3.1857,-3.1347,-3.0632,-2.9971,-2.931,-2.8673,-2.8442,-2.8411,-2.8403,-2.8387,-2.8372,-2.8348,-2.7464,-2.6658,-2.73,-2.6139,-2.4994,-2.5589,-2.5774,-2.5789,-2.5759,-2.6153,-2.6522,-2.6637,-2.6587,-2.6469,-2.6455,-2.6898,-2.7191,-2.7082,-2.753,-2.739,-2.6019,-2.5887,-2.5948,-2.5971,-2.5955,-2.594,-2.5963,-2.5325,-2.476,-2.4372,-2.3703,-2.2914,-2.201,-2.1511,-2.0711,-1.9518,-1.9038,-1.8514,-1.7902,-1.7902,-1.7902,-1.7902,-1.7902,-1.7902,-3.5148,0.0,-4.0287,-4.232,-4.3924,-4.5137,-4.5735,-4.6085,-4.5968,-4.4816,-4.3879,-4.2918,-4.1731,-4.2229,-4.3167,-4.4242,-4.6099,-4.7503,-4.7743,-4.778,-4.6904,-4.4552,-4.4539,0.0,0.0,0.0,0.0,-4.5629,-4.5708,-4.5716,-4.5673,-4.5312,-4.4961,-4.4639,-4.3407,-4.2955,-4.3379,-4.2226,-4.2126,-4.3094,-4.3369,-4.3014,-4.2088,-4.1345,-4.0747,-4.022,-3.8858,-3.8108,-3.7872,-3.7347,-3.6512,-3.5605,-3.5611,-3.487,-3.3678,-3.2595,-3.1775,-3.1123,-3.0593,-2.9956,-2.9356,-2.915,-2.8765,-2.8411,-2.8411,-2.8411,-2.8411,-2.8411,-2.8082,-2.7628,-2.7005,-2.6708,-2.645,-2.5879,-2.6358,-2.6935,-2.6935,-2.7355,-2.7775,-2.781,-2.771,-2.7635,-2.7635,-2.771,-2.775,-2.77,-2.788,-2.7815,-2.735,-2.7312,-2.7337,-2.7337,-2.7022,-2.6794,-2.6794,-2.5824,-2.5129,-2.502,-2.4359,-2.3861,-2.3549,-2.2636,-2.1666,-2.0581,-1.9669,-1.8769,-1.7902,-1.7902,-1.7902,-1.7902,-1.7902,-1.7902,-3.8205,-4.0957,-4.3671,-4.5155,-4.5913,-4.63,-4.63,-4.5578,-4.4406,-4.2669,-4.1378,-4.0102,-3.8677,-3.8605,-3.9415,-4.1357,-4.2862,-4.438,-4.6136,-4.6366,-4.596,-4.4882,-4.4988,-4.4692,0.0,0.0,0.0,-4.3963,-4.4231,-4.4503,-4.4805,-4.504,-4.5002,-4.4646,-4.3936,-4.3645,-4.3804,-4.2636,-4.2535,-4.3515,-4.3515,-4.3051,-4.2223,-4.1656,-4.095,-4.0062,-3.8761,-3.7939,-3.7483,-3.7212,-3.6479,-3.5628,-3.5783,-3.5131,-3.3961,-3.2797,-3.1967,-3.126,-3.0349,-2.9756,-2.9356,-2.911,-2.8765,-2.8411,-2.8411,-2.8411,-2.8411,-2.8411,-2.8227,-2.7924,-2.7343,-2.7321,-2.7338,-2.6798,-2.7255,-2.782,-2.782,-2.8122,-2.8411,-2.8411,-2.8323,-2.8259,-2.8259,-2.8201,-2.8128,-2.8128,-2.8128,-2.8143,-2.8079,-2.8103,-2.8128,-2.8128,-2.7843,-2.7616,-2.7616,-2.6657,-2.5927,-2.5665,-2.5019,-2.4564,-2.4317,-2.3438,-2.2444,-2.1344,-2.0433,-1.9353,-1.8095,-1.8268,-1.8254,-1.8095,-1.8095,-1.8195,-4.2891,-4.4527,-4.584,-4.826,-4.7605,-4.6339,-4.6202,-4.4133,-4.1752,-3.9915,-3.8151,-3.6672,-3.5799,0.0,-3.5385,-3.7964,-3.9135,-4.0927,-4.435,-4.4849,-4.5477,0.0,0.0,0.0,0.0,0.0,0.0,-4.4115,0.0,-4.5635,-4.5656,-4.6314,-4.6312,-4.5488,-4.522,-4.47,-4.3878,-4.3686,-4.3565,-4.3515,-4.3515,-4.3214,-4.2656,-4.1321,-4.0369,-3.9662,-3.7683,-3.6829,-3.6795,-3.596,-3.565,-3.5701,-3.5633,-3.5276,-3.4625,-3.3222,-3.2334,-3.1594,-2.9982,-2.94,-2.9283,-2.8611,-2.8411,-2.8411,-2.8411,-2.8411,-2.8411,-2.8411,-2.7934,-2.758,-2.8196,-2.7904,-2.7596,-2.8211,-2.8411,-2.8442,-2.8411,-2.8427,-2.8442,-2.8411,-2.8411,-2.8411,-2.8411,-2.8411,-2.8411,-2.8411,-2.8411,-2.8348,-2.8235,-2.8323,-2.8411,-2.8411,-2.8411,-2.8411,-2.8411,-2.7796,-2.7088,-2.6342,-2.5665,-2.4989,-2.4333,-2.3846,-2.3002,-2.1724,-2.1263,-2.0212,-1.8519,-1.896,-1.8941,-1.8519,-1.8519,-1.8745,-4.4898,-4.7063,-4.8876,-4.9539,-4.8476,-4.6768,-4.4816,-4.2337,-3.9602,-3.6625,-3.461,-3.3115,-3.2191,0.0,0.0,-3.7816,-4.0087,0.0,-4.6072,-4.7075,0.0,-4.803,0.0,-4.8232,-4.6917,-4.6771,0.0,0.0,-4.5122,-4.523,-4.6352,-4.6554,-4.6496,-4.6229,-4.5453,-4.491,-4.4709,-4.393,-4.3532,-4.3515,-4.3515,-4.316,-4.2523,-4.1261,-4.0323,-3.9618,-3.7654,-3.7094,-3.7516,-3.6157,-3.6276,-3.7212,-3.6039,-3.5178,-3.4421,-3.3156,-3.1907,-3.0756,-2.9977,-2.9474,-2.9085,-2.8563,-2.8411,-2.8411,-2.8411,-2.8411,-2.8411,-2.8411,-2.8288,-2.8073,-2.7734,-2.7904,-2.8057,-2.7734,-2.8427,-2.9027,-2.8519,-2.8796,-2.9012,-2.8504,-2.8411,-2.8411,-2.8411,-2.8411,-2.8411,-2.8411,-2.8411,-2.8387,-2.8348,-2.8372,-2.8411,-2.8411,-2.8411,-2.8411,-2.8411,-2.7796,-2.7103,-2.6411,-2.5703,-2.4989,-2.4333,-2.3846,-2.3002,-2.1724,-2.1739,-2.0822,-1.8936,-1.9561,-1.9546,-1.8936,-1.8997,-1.9091,-4.7346,-4.9161,-5.0486,-5.0106,-4.8187,-4.5726,-4.3114,-3.9915,-3.6557,-3.3117,-3.1332,0.0,-2.9702,-3.0384,0.0,0.0,0.0,0.0,-4.5415,-4.6771,-4.7854,0.0,-4.9927,0.0,-4.8856,-4.8472,-4.82,0.0,-4.6782,-4.6397,-4.7236,-4.7548,-4.732,-4.6531,-4.5882,-4.5155,-4.4351,-4.3787,-4.3515,-4.3515,-4.3463,-4.3268,-4.2829,-4.0965,-3.9919,-3.9456,0.0,-3.6518,-3.6817,-3.5955,-3.6107,-3.6783,-3.5938,-3.5346,-3.4817,-3.3503,-3.2696,-3.2064,-3.0617,-3.0141,-3.0019,-2.9038,-2.8573,-2.8411,-2.8411,-2.8411,-2.8411,-2.8411,-2.8411,-2.8319,-2.7934,-2.8119,-2.8304,-2.7934,-2.8411,-2.8873,-2.8488,-2.8704,-2.8858,-2.8473,-2.8642,-2.8842,-2.8842,-2.8842,-2.8842,-2.8842,-2.8596,-2.8411,-2.8411,-2.8411,-2.8411,-2.8411,-2.8411,-2.8411,-2.8411,-2.8057,-2.7426,-2.6441,-2.601,-2.5349,-2.4348,-2.4051,-2.3425,-2.2419,-2.2525,-2.1793,-2.0239,-2.0801,-2.0638,-1.9853,-1.9875,-1.9841,-4.9855,-5.0791,-5.1099,-5.0346,-4.742,-4.4017,-4.1295,-3.7261,-3.3169,-2.9836,0.0,-2.8065,-2.8168,-2.8317,-2.9831,-3.4122,0.0,-3.8114,-4.4092,-4.5583,-4.726,-5.0519,-5.0898,-5.0898,-5.0898,-4.9836,-4.94,-5.0035,-4.8942,-4.8162,-4.7986,-4.8559,-4.8103,-4.6349,-4.6124,-4.5214,-4.3533,-4.3515,-4.3515,-4.3515,-4.3446,-4.3394,-4.3286,-4.0693,-3.9451,-3.9241,-3.6771,0.0,-3.5752,-3.5633,-3.5769,-3.6022,-3.5836,-3.5752,-3.5566,-3.41,-3.3897,-3.3989,-3.1475,-3.102,-3.1325,-2.9707,-2.8873,-2.8493,-2.8493,-2.8444,-2.8411,-2.8411,-2.8411,-2.8411,-2.8411,-2.8411,-2.8411,-2.8411,-2.8473,-2.8519,-2.8427,-2.8411,-2.8411,-2.8411,-2.8889,-2.9273,-2.9273,-2.9273,-2.9273,-2.9273,-2.8781,-2.8411,-2.8411,-2.8411,-2.8411,-2.8411,-2.8411,-2.8411,-2.8411,-2.8411,-2.7827,-2.6472,-2.6472,-2.5857,-2.4364,-2.4394,-2.4071,-2.3337,-2.3399,-2.2937,-2.1827,-2.2171,-2.1888,-2.1034,-2.0867,-2.075,-5.1519,-5.1609,-5.1176,-5.103,-4.7377,-4.2965,-3.9675,-3.5056,0.0,0.0,-2.7225,-2.7329,-2.798,-2.9241,0.0,-3.5873,0.0,0.0,0.0,0.0,-4.7896,0.0,0.0,0.0,0.0,0.0,0.0,0.0,0.0,-4.8613,-4.787,-4.7899,-4.7112,-4.5314,-4.5224,-4.4661,-4.3515,-4.3515,-4.3515,-4.3515,-4.3497,-4.3393,-4.316,-4.1033,-3.9786,-3.9191,-3.7088,0.0,-3.6535,-3.5853,-3.6721,-3.8294,-3.706,-3.6586,-3.6423,-3.4861,-3.3998,-3.3351,-3.1651,-3.1303,-3.1389,-3.0102,-2.9348,-2.8974,-2.8974,-2.87,-2.8411,-2.8411,-2.8411,-2.8411,-2.8411,-2.8411,-2.8411,-2.8411,-2.8827,-2.9064,-2.8535,-2.8411,-2.8411,-2.8411,-2.8504,-2.8581,-2.8581,-2.8581,-2.8581,-2.8581,-2.8473,-2.8411,-2.8411,-2.8411,-2.8411,-2.8411,-2.8411,-2.8411,-2.8411,-2.8411,-2.7827,-2.6472,-2.6919,-2.6349,-2.4379,-2.482,-2.4606,-2.3486,-2.4013,-2.3672,-2.244,-2.2512,-2.2468,-2.2257,-2.121,-2.0999,-5.2076,-5.2119,-5.1617,-5.0742,-4.6678,-4.1852,-3.798,0.0,0.0,0.0,-2.6498,-2.6566,-2.787,0.0,0.0,0.0,0.0,0.0,0.0,0.0,0.0,0.0,0.0,0.0,0.0,0.0,0.0,0.0,0.0,-4.8915,-4.8505,-4.7516,-4.636,-4.5041,-4.4529,-4.4021,-4.3515,-4.3515,-4.3515,-4.3515,-4.3463,-4.3358,-4.3123,-4.107,-3.9957,-3.9494,-3.7255,0.0,-3.6522,-3.6311,-3.6857,-3.7743,-3.662,-3.618,-3.5994,-3.4489,-3.3947,-3.3761,-3.2293,-3.2117,-3.2307,-3.0962,-3.0299,-2.9925,-2.93,-2.9218,-2.9216,-2.8576,-2.8411,-2.8411,-2.8411,-2.8411,-2.8411,-2.8411,-2.8658,-2.8796,-2.8473,-2.8411,-2.8411,-2.8411,-2.8688,-2.8935,-2.8935,-2.8935,-2.8944,-2.9018,-2.8748,-2.8517,-2.8604,-2.8604,-2.8556,-2.8396,-2.8411,-2.8411,-2.8411,-2.8411,-2.798,-2.698,-2.6918,-2.6324,-2.4987,-2.4936,-2.4673,-2.4082,-2.4393,-2.4258,-2.3647,-2.3647,-2.3495,-2.3196,-2.2198,-2.1747,-5.1921,-5.2135,-5.1785,-5.0276,-4.5885,-4.0849,-3.6742,-3.2346,0.0,0.0,-2.6394,-2.6523,-2.8094,0.0,0.0,0.0,0.0,0.0,0.0,0.0,0.0,0.0,0.0,0.0,0.0,0.0,0.0,0.0,0.0,0.0,-4.8546,-4.6778,-4.5475,-4.4764,-4.3999,-4.3565,-4.3515,-4.3515,-4.3515,-4.3515,-4.3446,-4.3267,-4.2868,-4.1071,-4.0036,-3.9576,-3.7649,0.0,0.0,-3.7012,-3.7023,-3.6745,-3.6096,-3.5752,-3.543,-3.4134,-3.3998,-3.4286,-3.2818,-3.2682,-3.2949,-3.163,-3.1137,-3.0835,-2.9736,-2.9842,-3.0117,-2.9006,-2.8621,-2.8549,-2.8549,-2.8468,-2.8411,-2.8411,-2.8411,-2.8411,-2.8411,-2.8519,-2.8581,-2.8427,-2.895,-2.9366,-2.9252,-2.9246,-2.9255,-2.9403,-2.8978,-2.8684,-2.8794,-2.8794,-2.8723,-2.8508,-2.8484,-2.8484,-2.8484,-2.8484,-2.8175,-2.7496,-2.7032,-2.6395,-2.5594,-2.5098,-2.4765,-2.4645,-2.463,-2.4666,-2.469,-2.453,-2.4308,-2.4029,-2.2991,-2.2366,-5.1086,-5.1319,-5.1086,-5.014,-4.5414,-4.0106,-3.6593,0.0,0.0,-2.7008,-2.7376,-2.8152,-2.9121,-2.9934,-3.1021,0.0,0.0,-3.5088,0.0,0.0,0.0,0.0,0.0,0.0,0.0,0.0,0.0,0.0,0.0,0.0,-4.6789,-4.5076,-4.4052,-4.3915,-4.3704,-4.3565,-4.3515,-4.3515,-4.3515,-4.3515,-4.3479,-4.3008,-4.2084,-4.1156,-4.0093,-3.8974,-3.8646,0.0,0.0,-3.8151,-3.7786,-3.6795,-3.6728,-3.6231,-3.5498,-3.4692,-3.4438,-3.4286,-3.2818,-3.2344,-3.2276,-3.1464,-3.1361,-3.1394,-3.0608,-3.0588,-3.0661,-2.9893,-2.9348,-2.9044,-2.9044,-2.8724,-2.8411,-2.8411,-2.8411,-2.8411,-2.8411,-2.8889,-2.9135,-2.8519,-2.895,-2.9252,-2.8766,-2.8666,-2.8729,-2.8864,-2.8818,-2.8794,-2.8794,-2.8794,-2.8794,-2.8771,-2.8747,-2.8747,-2.8747,-2.8747,-2.8436,-2.7719,-2.761,-2.701,-2.5722,-2.5644,-2.5337,-2.4798,-2.4782,-2.4842,-2.4966,-2.4279,-2.4283,-2.4843,-2.283,-2.2214,-4.9765,-5.0763,-5.092,-5.0052,-4.5304,-4.0082,-3.7182,0.0,-2.814,-2.8284,-2.7749,-2.7683,-2.9081,-2.9595,-3.005,-3.0709,-3.1216,0.0,0.0,0.0,0.0,0.0,0.0,0.0,0.0,0.0,0.0,0.0,0.0,0.0,-4.5686,-4.4957,-4.4336,-4.3822,-4.3617,-4.3532,-4.3515,-4.3515,-4.3515,-4.3515,-4.3515,-4.3024,-4.2117,-4.1787,-4.1047,-4.0003,-3.9175,0.0,0.0,-3.7403,-3.6764,-3.6028,-3.5588,-3.4945,-3.4252,-3.3947,-3.3558,-3.3089,-3.2496,-3.2293,-3.2175,-3.1427,-3.1581,-3.1834,-3.0813,-3.0868,-3.1101,-3.0092,-2.9661,-2.9528,-2.9528,-2.9182,-2.8826,-2.8826,-2.8597,-2.842,-2.8493,-2.8733,-2.8865,-2.8674,-2.8869,-2.8962,-2.877,-2.8708,-2.8755,-2.8858,-2.8865,-2.8905,-2.8975,-2.8975,-2.8975,-2.8975,-2.8873,-2.8794,-2.8794,-2.8794,-2.867,-2.8389,-2.7646,-2.6986,-2.6438,-2.5686,-2.5165,-2.4922,-2.4922,-2.4962,-2.5005,-2.4717,-2.4717,-2.4954,-2.367,-2.3022,-4.7279,-4.8965,-4.9776,-4.8889,-4.4519,-3.9779,0.0,0.0,-2.862,-2.9169,-2.8324,-2.7924,-2.9418,-2.9665,-2.9651,-2.9651,-3.0124,-3.1306,0.0,0.0,0.0,0.0,0.0,0.0,0.0,0.0,0.0,0.0,0.0,0.0,0.0,-4.4733,-4.4378,-4.3754,-4.3583,-4.3515,-4.3515,-4.3259,-4.3149,-4.313,-4.2892,-4.2455,-4.1857,-4.1856,-4.1348,-4.046,-3.9515,0.0,0.0,-3.7175,-3.6172,-3.5081,-3.4651,-3.3914,-3.3102,-3.3322,-3.2933,-3.2327,-3.2605,-3.2385,-3.1927,-3.1438,-3.1608,-3.1904,-3.1284,-3.1445,-3.157,-3.0523,-3.0118,-2.9968,-2.9837,-2.9483,-2.9159,-2.9159,-2.8818,-2.8541,-2.8636,-2.8816,-2.8917,-2.8818,-2.8966,-2.9028,-2.8857,-2.8998,-2.9108,-2.8975,-2.914,-2.9249,-2.9107,-2.9098,-2.9098,-2.9098,-2.8975,-2.8873,-2.8873,-2.8873,-2.8873,-2.8873,-2.768,-2.6954,-2.6954,-2.5704,-2.5005,-2.5005,-2.5005,-2.5005,-2.5005,-2.5005,-2.5005,-2.497,-2.4239,-2.3654,-4.333,-4.5412,-4.7136,-4.6269,-4.2793,-3.8926,0.0,-3.2386,-2.9298,-2.9291,-2.9287,-2.9534,-3.0424,-3.0535,-3.0496,-3.0496,-3.0495,0.0,0.0,0.0,0.0,0.0,0.0,0.0,0.0,0.0,0.0,0.0,0.0,0.0,0.0,-4.402,-4.3754,-4.3599,-4.3549,-4.3515,-4.3515,-4.2708,-4.2304,-4.2304,-4.1499,-4.1099,-4.0998,-4.1014,-4.0559,0.0,0.0,0.0,0.0,-3.7987,-3.6474,-3.4046,-3.4372,-3.3613,-3.2395,-3.3136,-3.2933,-3.2432,-3.3298,-3.2587,-3.1332,-3.1462,-3.1406,-3.1468,-3.2332,-3.2434,-3.2141,-3.1393,-3.0858,-3.0393,-2.9924,-2.9544,-2.9305,-2.9305,-2.9045,-2.8794,-2.8794,-2.9301,-2.9581,-2.8935,-2.9356,-2.9599,-2.9006,-2.9501,-2.9776,-2.9186,-2.9722,-2.9911,-2.9193,-2.9098,-2.9098,-2.9098,-2.9098,-2.9114,-2.9114,-2.9114,-2.9114,-2.9114,-2.7835,-2.7099,-2.7099,-2.5745,-2.5005,-2.5005,-2.5005,-2.5005,-2.5005,-2.5005,-2.5005,-2.497,-2.4239,-2.3904,-3.9403,-4.0939,-4.1906,-4.1635,-3.9229,-3.6568,-3.5145,-3.1951,-2.947,-3.008,-2.9713,-2.9545,-3.0376,-3.051,-3.0485,-3.0444,-3.0433,-3.0615,0.0,0.0,0.0,0.0,0.0,0.0,0.0,0.0,0.0,0.0,0.0,0.0,0.0,-4.4206,-4.4017,-4.3753,-4.3583,-4.3239,-4.269,-4.2433,-4.2029,-4.148,-4.1224,-4.0802,-4.0253,-4.0253,-3.9813,0.0,0.0,0.0,0.0,-3.5913,-3.4641,-3.3394,-3.3997,-3.3163,-3.1746,-3.2953,-3.2693,-3.1864,-3.2593,-3.2562,-3.2298,-3.2884,-3.3034,-3.3048,-3.3345,-3.2582,-3.1599,-3.1453,-3.1664,-3.1779,-3.1133,-3.1008,-3.0881,-3.0038,-2.9528,-2.9159,-2.8936,-2.9038,-2.9296,-2.9682,-2.9942,-3.0163,-3.0439,-3.066,-3.0763,-3.0567,-3.0338,-3.0125,-2.988,-2.9398,-2.9098,-2.9098,-2.9098,-2.9098,-2.9098,-2.9098,-2.9098,-2.9098,-2.8284,-2.7778,-2.7778,-2.6909,-2.6198,-2.5677,-2.5677,-2.546,-2.5005,-2.5005,-2.5005,-2.497,-2.4239,-2.3904,0.0,-3.7695,-3.8565,-3.8565,-3.6621,0.0,0.0,-3.1255,-2.9055,-2.9921,-2.9424,-2.8965,-2.9453,-2.9805,-2.9992,-2.996,-3.0194,0.0,0.0,0.0,0.0,0.0,0.0,0.0,0.0,0.0,0.0,0.0,0.0,0.0,0.0,-4.4508,-4.4128,-4.3531,-4.324,-4.2834,-4.2304,-4.1699,-4.1148,-4.0653,-4.0325,-3.9937,-3.9441,-3.9441,-3.9001,0.0,0.0,0.0,0.0,-3.4774,-3.3812,-3.309,-3.3551,-3.2836,-3.1699,-3.273,-3.261,-3.201,-3.2761,-3.3057,-3.3183,-3.3739,-3.4103,-3.4271,-3.3939,-3.2884,-3.1884,-3.2266,-3.2491,-3.2488,-3.2027,-3.1941,-3.1712,-3.0667,-3.0123,-2.9761,-2.9556,-2.9489,-2.9656,-3.0213,-3.038,-3.0553,-3.0983,-3.1131,-3.1198,-3.1198,-3.0622,-3.0204,-3.0204,-2.9564,-2.9098,-2.9098,-2.9098,-2.9098,-2.9098,-2.9098,-2.9098,-2.9098,-2.8474,-2.8094,-2.8094,-2.7194,-2.6467,-2.6009,-2.574,-2.5428,-2.5005,-2.5005,-2.5005,-2.5005,-2.4543,-2.4318,0.0,-3.5359,0.0,0.0,0.0,0.0,-3.2914,-3.0424,0.0,-2.9128,-2.8606,-2.8017,-2.8063,-2.87,-2.9215,-2.928,0.0,0.0,0.0,0.0,0.0,0.0,0.0,0.0,0.0,0.0,0.0,0.0,0.0,0.0,0.0,-4.4707,-4.4003,-4.2987,-4.2489,-4.2218,-4.2121,-4.0653,-3.9863,-3.979,-3.9001,-3.8615,-3.8615,-3.8487,-3.8028,0.0,0.0,0.0,0.0,-3.4407,-3.3805,-3.3106,-3.3161,-3.27,-3.2072,-3.2546,-3.2681,-3.275,-3.3654,-3.3968,-3.4006,-3.4212,-3.4714,-3.5125,-3.4318,-3.3462,-3.2921,-3.3573,-3.3228,-3.2681,-3.2579,-3.2346,-3.1955,-3.119,-3.0764,-3.0539,-3.0518,-3.0497,-3.0514,-3.0564,-3.0724,-3.0872,-3.0946,-3.1166,-3.1327,-3.1349,-3.0733,-3.0283,-3.0283,-2.9595,-2.9098,-2.9098,-2.9098,-2.9098,-2.9098,-2.9098,-2.9098,-2.9098,-2.8521,-2.8173,-2.8173,-2.6862,-2.6135,-2.6088,-2.5365,-2.5005,-2.5005,-2.5005,-2.5005,-2.5005,-2.5005,-2.5005,-3.1352,0.0,-3.2102,-3.2102,-3.1647,-3.1197,0.0,-3.0047,-2.9052,-2.9264,0.0,-2.814,-2.88,-2.903,-2.9336,0.0,0.0,0.0,0.0,0.0,0.0,0.0,0.0,0.0,0.0,0.0,0.0,0.0,0.0,0.0,0.0,-4.3532,-4.2911,-4.2393,-4.1446,-4.0796,-4.0485,-4.0084,-3.9588,-3.8964,-3.8157,-3.7786,-3.7749,-3.6435,-3.5775,0.0,0.0,0.0,-3.4055,-3.3954,-3.3615,-3.3226,-3.3799,-3.3242,-3.2301,-3.3457,-3.3442,-3.3016,-3.4297,-3.4819,-3.5004,-3.5594,-3.5904,-3.6008,-3.5814,-3.5187,-3.4375,-3.3377,-3.3412,-3.3483,-3.2294,-3.2359,-3.2447,-3.1348,-3.1024,-3.0868,-3.058,-3.0497,-3.0663,-3.1168,-3.1308,-3.1548,-3.2279,-3.2474,-3.2558,-3.2776,-3.176,-3.097,-3.097,-2.9872,-2.9098,-2.9098,-2.9098,-2.9098,-2.9098,-2.9098,-2.9098,-2.9098,-2.8956,-2.8861,-2.8861,-2.8063,-2.7367,-2.6862,-2.5634,-2.5005,-2.5005,-2.5005,-2.5005,-2.5005,-2.5005,-2.5005,-3.0598,-3.0598,-3.0593,-3.0559,-3.0289,-3.0095,-3.0472,0.0,0.0,0.0,0.0,0.0,0.0,0.0,0.0,0.0,0.0,0.0,0.0,0.0,0.0,0.0,0.0,0.0,0.0,0.0,0.0,0.0,0.0,0.0,-4.3547,-4.2719,-4.1925,-4.1214,-4.0208,-3.9632,-3.9528,-3.9035,-3.8377,-3.7588,-3.7162,-3.6725,-3.6321,-3.5408,-3.4802,0.0,0.0,0.0,-3.3807,-3.3807,-3.368,-3.3502,-3.3762,-3.3593,-3.3324,-3.3739,-3.3817,-3.3862,-3.4766,-3.5139,-3.5318,-3.6059,-3.6077,-3.5852,-3.6197,-3.5783,-3.5025,-3.418,-3.4044,-3.3818,-3.261,-3.261,-3.2657,-3.1656,-3.1411,-3.1353,-3.114,-3.11,-3.1202,-3.1567,-3.1737,-3.1974,-3.2485,-3.2692,-3.2844,-3.3086,-3.1933,-3.1174,-3.1486,-3.0288,-2.9499,-2.9722,-2.9544,-2.9425,-2.9425,-2.9236,-2.9098,-2.9098,-2.8798,-2.8647,-2.8647,-2.7668,-2.6814,-2.6135,-2.5381,-2.5005,-2.5005,-2.5005,-2.5005,-2.5005,-2.5005,-2.5005,-3.0593,-3.0593,-3.0564,-3.0501,-2.9994,-2.9636,-3.0181,0.0,0.0,0.0,0.0,0.0,0.0,0.0,0.0,0.0,0.0,0.0,0.0,0.0,0.0,0.0,0.0,0.0,0.0,0.0,0.0,0.0,0.0,-4.2703,-4.2701,-4.1707,-4.0686,-3.972,-3.8939,-3.8572,-3.866,-3.7812,-3.703,-3.6303,-3.6174,-3.5701,-3.5004,-3.4876,-3.4435,-3.3807,0.0,0.0,-3.3807,-3.3935,-3.3917,-3.3798,-3.3767,-3.3999,-3.4274,-3.3894,-3.4111,-3.4655,-3.5109,-3.5241,-3.5301,-3.5921,-3.5714,-3.5318,-3.5939,-3.5766,-3.5335,-3.5232,-3.4576,-3.3731,-3.2938,-3.2731,-3.2576,-3.1955,-3.18,-3.18,-3.18,-3.18,-3.18,-3.18,-3.1978,-3.2161,-3.2181,-3.239,-3.2623,-3.2804,-3.1781,-3.1193,-3.1758,-3.0709,-3.0054,-3.0456,-3.014,-2.987,-2.9718,-2.9361,-2.9082,-2.8971,-2.8525,-2.8158,-2.7952,-2.6688,-2.5677,-2.5001,-2.5005,-2.5005,-2.5005,-2.5025,-2.506,-2.506,-2.5084,-2.5084,-3.0554,-3.0559,-3.0501,-3.0496,-3.0404,-3.0142,-2.9539,-2.8521,0.0,0.0,0.0,0.0,0.0,0.0,0.0,0.0,0.0,0.0,0.0,0.0,0.0,0.0,0.0,0.0,0.0,0.0,0.0,0.0,0.0,0.0,-4.0893,-3.9415,-3.8481,-3.8316,-3.7904,-3.737,-3.6733,-3.6789,-3.6646,-3.6285,-3.5555,-3.5133,-3.4986,-3.4289,-3.3917,-3.3807,0.0,-3.3807,-3.3844,-3.4527,-3.4399,-3.3935,-3.5325,-3.4863,-3.3635,-3.4882,-3.4835,-3.4249,-3.5266,-3.5424,-3.5214,-3.5318,-3.5283,-3.5214,-3.5318,-3.5732,-3.6008,-3.537,-3.418,-3.2904,-3.2162,-3.1972,-3.1938,-3.1817,-3.18,-3.18,-3.18,-3.18,-3.18,-3.18,-3.183,-3.1918,-3.2158,-3.2238,-3.2332,-3.2529,-3.1891,-3.1435,-3.155,-3.0884,-3.0414,-3.0497,-3.0435,-3.0108,-2.9424,-2.9313,-2.8989,-2.8378,-2.8724,-2.8435,-2.7304,-2.6451,-2.5677,-2.5001,-2.5005,-2.5005,-2.5005,-2.5162,-2.5256,-2.5256,-2.5432,-2.5511,-2.9274,-2.9149,-2.9202,-2.9688,-3.0116,-3.0337,-2.9935,-2.9173,0.0,0.0,0.0,0.0,0.0,0.0,0.0,0.0,0.0,0.0,0.0,0.0,0.0,0.0,0.0,0.0,0.0,0.0,0.0,0.0,0.0,0.0,-3.916,-3.7525,-3.6612,-3.6606,-3.5564,-3.4769,-3.4248,-3.4367,-3.4458,-3.451,-3.3524,-3.3054,-3.3036,-3.2669,-3.2485,-3.2522,0.0,-3.3146,-3.3206,-3.4014,-3.4137,-3.388,-3.4651,-3.4659,-3.4284,-3.4848,-3.4997,-3.4941,-3.5056,-3.4874,-3.4683,-3.5059,-3.4921,-3.468,-3.5076,-3.5439,-3.5628,-3.5283,-3.468,-3.3973,-3.3214,-3.3024,-3.2921,-3.2507,-3.2386,-3.2283,-3.1886,-3.18,-3.18,-3.18,-3.18,-3.1848,-3.1965,-3.2303,-3.2519,-3.2349,-3.211,-3.1909,-3.1872,-3.1256,-3.0925,-3.1179,-3.0611,-3.0068,-2.9697,-2.9081,-2.8414,-2.7703,-2.7923,-2.7624,-2.6591,-2.6276,-2.5956,-2.5649,-2.5723,-2.5703,-2.5551,-2.5626,-2.5605,-2.547,-2.5549,-2.5605,-2.8444,-2.8106,-2.8058,-2.8727,0.0,-3.0092,-3.0102,-2.9737,0.0,0.0,0.0,0.0,0.0,0.0,0.0,0.0,0.0,0.0,0.0,0.0,0.0,0.0,0.0,0.0,0.0,0.0,0.0,0.0,0.0,0.0,-3.71,-3.5648,-3.482,-3.4802,-3.3576,-3.2801,-3.2609,-3.234,-3.2395,-3.2716,-3.1898,-3.1458,-3.1397,-3.1397,-3.1397,-3.1452,-3.2247,-3.2601,-3.2674,-3.3678,-3.3972,-3.3844,-3.4229,-3.4637,-3.4976,-3.4725,-3.4955,-3.5347,-3.4886,-3.4381,-3.4038,-3.472,-3.4421,-3.3973,-3.4921,-3.5197,-3.5197,-3.5197,-3.5318,-3.5249,-3.4355,-3.4113,-3.3906,-3.3093,-3.2904,-3.2697,-3.1955,-3.18,-3.18,-3.18,-3.18,-3.18,-3.18,-3.2265,-3.2531,-3.2162,-3.2142,-3.2142,-3.2123,-3.1596,-3.134,-3.1504,-3.0716,-3.0017,-2.9679,-2.8641,-2.7786,-2.7305,-2.7241,-2.6965,-2.6405,-2.6277,-2.6229,-2.6158,-2.6246,-2.6175,-2.5905,-2.5941,-2.5866,-2.5661,-2.5733,-2.5752,-2.9143,-2.8565,-2.7928,-2.7981,-2.8596,-2.9184,-2.9184,-2.9775,0.0,-2.9184,0.0,0.0,0.0,0.0,0.0,0.0,0.0,0.0,0.0,0.0,0.0,0.0,0.0,0.0,0.0,0.0,0.0,0.0,0.0,0.0,-3.4466,-3.3587,-3.3076,-3.3081,-3.2966,-3.2889,-3.2875,-3.1882,-3.155,-3.1886,-3.1808,-3.1642,-3.1397,-3.1397,-3.1397,-3.1452,-3.2247,-3.2601,-3.2711,-3.427,-3.4472,-3.3954,-3.5514,-3.5661,-3.499,-3.4976,-3.4801,-3.4634,-3.5022,-3.4411,-3.3525,-3.4021,-3.3628,-3.3266,-3.4749,-3.5197,-3.5197,-3.5197,-3.568,-3.5887,-3.4476,-3.4113,-3.3906,-3.3093,-3.2904,-3.2697,-3.1955,-3.18,-3.18,-3.18,-3.18,-3.18,-3.18,-3.1834,-3.1869,-3.1832,-3.1832,-3.1832,-3.1832,-3.178,-3.1487,-3.0851,-3.0696,-3.0092,-2.8728,-2.79,-2.7466,-2.749,-2.735,-2.7274,-2.7225,-2.6683,-2.628,-2.6015,-2.6015,-2.5886,-2.5624,-2.5826,-2.5897,-2.5881,-2.6078,-2.615,-2.6927,-2.6881,-2.7099,-2.7083,-2.8093,0.0,0.0,-3.0577,-3.0962,-3.0083,-2.9679,0.0,0.0,0.0,0.0,0.0,0.0,0.0,0.0,0.0,0.0,0.0,0.0,0.0,0.0,0.0,0.0,0.0,0.0,0.0,0.0,-3.2602,-3.191,-3.1351,-3.082,-3.03,-2.9803,-2.9388,-2.9162,-2.9135,-2.9926,-3.0259,-3.0153,-3.0064,-3.0021,-3.0012,-3.0821,-3.1421,-3.1935,-3.3041,-3.361,-3.3862,-3.4504,-3.4541,-3.4252,-3.4252,-3.4364,-3.4524,-3.47,-3.4167,-3.3444,-3.3605,-3.3665,-3.3749,-3.4355,-3.5145,-3.5804,-3.5382,-3.5431,-3.549,-3.4921,-3.4766,-3.4576,-3.3818,-3.3645,-3.3421,-3.2645,-3.2869,-3.3214,-3.3214,-3.2817,-3.2472,-3.2472,-3.2093,-3.1645,-3.1179,-3.1507,-3.1627,-3.1162,-3.1524,-3.1525,-3.0836,-2.9937,-2.8982,-2.7955,-2.7624,-2.7465,-2.7496,-2.7457,-2.7432,-2.7432,-2.7239,-2.71,-2.7004,-2.7051,-2.6954,-2.6708,-2.6791,-2.6758,-2.659,-2.6657,-2.6708,-2.5872,-2.5838,-2.6251,-2.6524,0.0,0.0,-3.0481,-3.1462,-3.191,-3.1308,-3.1192,0.0,0.0,0.0,0.0,0.0,0.0,0.0,0.0,0.0,0.0,0.0,0.0,0.0,0.0,0.0,0.0,0.0,0.0,0.0,0.0,-3.08,-3.0225,-2.9631,-2.9027,-2.8467,-2.7916,-2.7897,-2.7813,-2.7638,-2.8447,-2.8763,-2.8651,-2.881,-2.8852,-2.8817,-2.9879,-3.0629,-3.117,-3.2237,-3.3143,-3.386,-3.386,-3.3852,-3.3894,-3.4159,-3.43,-3.4365,-3.4503,-3.4081,-3.3477,-3.3757,-3.3733,-3.374,-3.4372,-3.4901,-3.5232,-3.4772,-3.4785,-3.4901,-3.4624,-3.4705,-3.4645,-3.3886,-3.3923,-3.3818,-3.2783,-3.3162,-3.3645,-3.3404,-3.2921,-3.2559,-3.2559,-3.1938,-3.1301,-3.0801,-3.0939,-3.0939,-3.0491,-3.0854,-3.0906,-3.0179,-2.8996,-2.8053,-2.7561,-2.7526,-2.7542,-2.7554,-2.7554,-2.7539,-2.7542,-2.7602,-2.76,-2.7542,-2.7585,-2.7509,-2.7261,-2.7261,-2.7166,-2.7006,-2.7006,-2.6957,-2.6599,-2.5866,-2.5519,0.0,0.0,0.0,-3.1102,-3.2314,-3.2891,-3.2891,0.0,0.0,0.0,0.0,0.0,0.0,0.0,0.0,0.0,0.0,0.0,0.0,0.0,0.0,0.0,0.0,0.0,0.0,0.0,0.0,0.0,-2.7902,-2.7902,-2.7883,-2.7887,-2.788,-2.788,-2.788,-2.7879,-2.7871,-2.7675,-2.7384,-2.7028,-2.7839,-2.8133,-2.8096,-2.9684,-3.0385,-3.0515,-3.2133,-3.3271,-3.3989,-3.397,-3.3992,-3.4104,-3.4952,-3.4723,-3.4064,-3.453,-3.4174,-3.3634,-3.4518,-3.3811,-3.2963,-3.4885,-3.4405,-3.3204,-3.3203,-3.3794,-3.4212,-3.3395,-3.3646,-3.3889,-3.3093,-3.3507,-3.3682,-3.2145,-3.2386,-3.2697,-3.1955,-3.1817,-3.18,-3.18,-3.1214,-3.0714,-3.0785,-3.011,-2.9642,-2.9794,-2.981,-2.9497,-2.8681,-2.7948,-2.7526,-2.7602,-2.7602,-2.763,-2.7701,-2.7701,-2.7657,-2.7602,-2.7657,-2.7615,-2.7404,-2.7404,-2.7261,-2.7006,-2.7006,-2.7006,-2.7006,-2.7006,-2.6858,-2.5696,-2.5703,0.0,-2.6504,0.0,0.0,0.0,-3.1411,0.0,0.0,0.0,0.0,0.0,0.0,0.0,0.0,0.0,0.0,0.0,0.0,0.0,0.0,0.0,0.0,0.0,0.0,0.0,0.0,0.0,0.0,0.0,-2.7897,-2.7617,-2.7005,-2.6992,-2.6694,-2.6078,-2.6078,-2.6073,-2.6077,-2.6016,-2.6491,-2.7444,-2.8,-2.825,-2.8258,-2.9204,-2.9913,-3.0478,-3.153,-3.2748,-3.3893,-3.2736,-3.3006,-3.395,-3.3655,-3.3745,-3.4012,-3.4157,-3.3907,-3.3548,-3.3803,-3.3822,-3.3824,-3.4404,-3.4464,-3.4234,-3.3759,-3.3581,-3.3396,-3.2684,-3.2595,-3.2747,-3.2984,-3.3263,-3.3297,-3.2698,-3.3237,-3.3761,-3.3536,-3.3069,-3.2724,-3.2781,-3.1705,-3.0838,-3.0872,-3.023,-2.976,-2.9794,-2.9842,-2.9579,-2.8828,-2.8087,-2.7642,-2.7657,-2.7657,-2.7672,-2.7701,-2.7701,-2.7686,-2.7657,-2.7686,-2.7672,-2.7612,-2.7597,-2.7567,-2.7491,-2.7491,-2.7491,-2.7491,-2.7491,-2.7461,-2.5174,0.0,0.0,-2.7326,-2.8972,-3.0475,0.0,0.0,0.0,0.0,0.0,0.0,0.0,0.0,0.0,0.0,0.0,0.0,0.0,0.0,0.0,0.0,0.0,0.0,0.0,0.0,0.0,0.0,0.0,0.0,0.0,-2.6872,-2.6636,-2.6097,-2.6078,-2.5823,-2.5308,-2.5308,-2.5308,-2.5308,-2.5308,-2.5786,-2.6718,-2.7615,-2.7939,-2.7885,-2.8907,-2.9768,-3.052,-3.1001,-3.1957,-3.3025,-3.2063,-3.2272,-3.3079,-3.2576,-3.2921,-3.3596,-3.3605,-3.3685,-3.3765,-3.362,-3.3578,-3.3596,-3.3749,-3.3761,-3.3706,-3.3627,-3.3427,-3.305,-3.2207,-3.2191,-3.2441,-3.2647,-3.2958,-3.3097,-3.2674,-3.323,-3.3718,-3.3406,-3.2747,-3.2244,-3.2281,-3.1011,-3.0002,-3.0069,-2.9439,-2.8966,-2.8966,-2.8996,-2.8852,-2.8415,-2.797,-2.7701,-2.7701,-2.7701,-2.7701,-2.7701,-2.7701,-2.7701,-2.7701,-2.7701,-2.7701,-2.7701,-2.7701,-2.7701,-2.7701,-2.7701,-2.7701,-2.7701,-2.7701,-2.7657,-2.4933,0.0,0.0,-2.839,0.0,0.0,0.0,0.0,0.0,0.0,0.0,0.0,0.0,0.0,0.0,0.0,0.0,0.0,0.0,0.0,0.0,0.0,0.0,0.0,0.0,0.0,0.0,0.0,0.0,0.0,0.0,-2.5308,-2.5308,-2.5308,-2.5308,-2.5308,-2.5308,-2.5308,-2.5308,-2.5308,-2.5308,-2.5308,-2.536,-2.6809,-2.7361,-2.7266,-2.876,-2.9861,-3.0586,-3.0511,-3.1016,-3.1782,-3.1637,-3.1671,-3.1784,-3.1719,-3.2205,-3.2888,-3.2895,-3.3369,-3.3926,-3.3628,-3.3116,-3.2698,-3.2983,-3.2683,-3.2397,-3.3016,-3.3168,-3.2931,-3.1913,-3.2141,-3.2527,-3.2039,-3.2544,-3.2927,-3.216,-3.2577,-3.2925,-3.2248,-3.1516,-3.1011,-3.0942,-2.9722,-2.8744,-2.8703,-2.8323,-2.7929,-2.7719,-2.7824,-2.7859,-2.7719,-2.7701,-2.7701,-2.7701,-2.7701,-2.7701,-2.7701,-2.7701,-2.7701,-2.7701,-2.7701,-2.7701,-2.7701,-2.7701,-2.7701,-2.7701,-2.7701,-2.7701,-2.7701,-2.7701,-2.7597,-2.4893,-2.5468,0.0,0.0,0.0,0.0,0.0,0.0,0.0,0.0,0.0,0.0,0.0,0.0,0.0,0.0,0.0,0.0,0.0,0.0,0.0,0.0,0.0,0.0,0.0,0.0,0.0,0.0,0.0,0.0,-2.5308,-2.5308,-2.5308,-2.5308,-2.5308,-2.5308,-2.5308,-2.5308,-2.5308,0.0,-2.5308,-2.5308,-2.5336,-2.6085,-2.6965,-2.794,-2.8952,-2.9861,-3.0549,-2.9917,-3.0504,-3.1675,-3.0408,-3.0692,-3.1714,-3.1092,-3.1374,-3.2067,-3.2061,-3.2169,-3.2299,-3.2221,-3.2543,-3.2802,-3.228,-3.2728,-3.3273,-3.2567,-3.2211,-3.1934,-3.1442,-3.1433,-3.1365,-3.0688,-3.1583,-3.2302,-3.1359,-3.1812,-3.2371,-3.2214,-3.2039,-3.176,-3.1233,-3.0374,-2.9357,-2.8127,-2.9369,-2.9772,-2.7929,-2.8807,-2.9105,-2.7824,-2.7701,-2.7701,-2.7701,-2.7701,-2.7701,-2.7701,-2.7701,-2.7701,-2.7701,-2.7701,-2.7701,-2.7701,-2.7701,-2.7701,-2.7701,-2.7701,-2.7701,-2.7701,-2.7701,-2.7686,-2.4694,0.0,0.0,0.0,0.0,0.0,0.0,0.0,0.0,0.0,0.0,0.0,0.0,0.0,0.0,0.0,0.0,0.0,0.0,0.0,0.0,0.0,0.0,0.0,0.0,0.0,0.0,0.0,0.0,-2.5308,-2.5308,-2.5308,-2.5308,-2.5308,-2.5308,-2.5308,-2.5308,-2.5308,-2.5308,-2.5308,-2.5308,-2.5264,-2.5225,-2.5836,-2.6929,-2.836,-2.864,-2.9248,-2.9991,-2.9564,-2.988,-3.0567,-2.9731,-2.9919,-3.0599,-3.0174,-3.0522,-3.1233,-3.1235,-3.1492,-3.1742,-3.1348,-3.1515,-3.1775,-3.1348,-3.1969,-3.2797,-3.259,-3.2702,-3.2619,-3.1413,-3.1653,-3.1667,-2.9464,-3.0422,-3.1599,-3.0711,-3.0867,-3.1198,-3.1198,-3.0883,-3.0515,-3.0176,-2.9457,-2.8667,-2.7824,-2.8737,-2.907,-2.7859,-2.8438,-2.8631,-2.7789,-2.7701,-2.7701,-2.7701,-2.7701,-2.7701,-2.7701,-2.7701,-2.7701,-2.7701,-2.7701,-2.7701,-2.7701,-2.7701,-2.7701,-2.7701,-2.7701,-2.7701,-2.7701,-2.7701,-2.7701,-2.45,0.0,0.0,0.0,0.0,0.0,0.0,0.0,0.0,0.0,0.0,0.0,0.0,0.0,0.0,0.0,0.0,0.0,0.0,0.0,0.0,0.0,0.0,0.0,0.0,0.0,0.0,0.0,0.0,-2.5308,-2.5308,-2.5308,-2.5308,-2.5308,-2.5308,-2.5308,-2.5308,-2.5308,-2.5308,-2.5308,-2.5308,-2.5243,-2.5151,-2.5672,-2.6808,-2.8329,-2.8185,-2.8628,-2.9396,-2.9396,-2.9396,-2.9396,-2.9396,-2.9396,-2.9396,-2.9396,-2.9824,-3.0381,-3.0381,-3.0827,-3.1273,-3.0604,-3.0493,-3.0567,-3.0437,-3.105,-3.1894,-3.2368,-3.2986,-3.3124,-3.1422,-3.1827,-3.1906,-2.8802,-2.9538,-3.0744,-3.0034,-3.0001,-3.0106,-3.0106,-2.9457,-2.8895,-2.8895,-2.8228,-2.7701,-2.7701,-2.7824,-2.7859,-2.7719,-2.7824,-2.7841,-2.7701,-2.7701,-2.7701,-2.7701,-2.773,-2.7745,-2.7745,-2.7774,-2.7789,-2.7789,-2.7789,-2.7789,-2.7789,-2.776,-2.776,-2.7789,-2.776,-2.7745,-2.7745,-2.7745,-2.773,0.0,0.0,0.0,0.0,0.0,0.0,0.0,0.0,0.0,0.0,0.0,0.0,0.0,0.0,0.0,0.0,0.0,0.0,0.0,0.0,0.0,0.0,0.0,0.0,0.0,0.0,0.0,0.0,-2.5322,-2.5308,-2.5308,-2.5308,-2.5308,-2.5308,-2.5308,-2.5308,-2.5308,-2.5308,-2.5308,-2.5308,-2.5308,-2.5298,-2.5264,-2.5247,-2.5998,-2.7336,-2.7996,-2.8698,-2.9396,-2.9396,-2.9396,-2.9396,-2.9396,-2.9396,-2.9396,-2.9396,-2.9471,-2.9564,-2.9564,-2.9619,-2.9694,-2.9601,-3.0028,-3.0474,-2.9768,-3.0604,-3.1618,-3.0734,-3.0607,-3.0772,-3.0879,-3.0555,-3.0075,-2.9615,-2.9719,-2.9757,-2.9178,-2.9614,-3.0106,-3.0106,-2.9457,-2.8895,-2.8895,-2.8228,-2.7701,-2.7701,-2.8298,-2.8491,-2.7789,-2.8315,-2.8473,-2.7771,-2.7701,-2.7701,-2.7701,-2.7864,-2.7954,-2.7954,-2.8063,-2.8132,-2.8132,-2.8132,-2.8132,-2.8132,-2.8025,-2.8025,-2.8132,-2.8025,-2.7954,-2.7954,-2.7954,-2.7864,-2.45,0.0,0.0,0.0,0.0,0.0,0.0,0.0,0.0,0.0,0.0,0.0,0.0,0.0,0.0,0.0,0.0,0.0,0.0,0.0,0.0,0.0,0.0,0.0,0.0,0.0,0.0,0.0,-2.5351,-2.5346,-2.5308,-2.5308,-2.5308,-2.5308,-2.5308,-2.5308,-2.5308,-2.5308,-2.5308,-2.5308,-2.5308,-2.5308,-2.5303,-2.5243,-2.5741,-2.6695,-2.7463,-2.8169,-2.881,-2.9297,-2.9471,-2.9396,-2.9396,-2.9396,-2.9396,-2.9396,-2.9396,-2.9396,-2.9396,-2.9396,-2.9396,-2.9396,-2.9638,-2.9861,-2.9508,-3.0214,-3.1028,-3.0516,-3.0734,-3.1013,-3.0619,-3.0555,-3.0339,-2.9315,-2.9391,-2.9516,-2.8823,-2.8947,-2.9201,-2.9201,-2.8911,-2.8679,-2.8679,-2.8269,-2.7926,-2.7926,-2.81,-2.8105,-2.7736,-2.7999,-2.815,-2.7885,-2.7864,-2.7893,-2.7961,-2.8063,-2.8109,-2.8109,-2.8178,-2.8201,-2.8201,-2.8201,-2.8246,-2.8313,-2.8178,-2.815,-2.8201,-2.815,-2.8109,-2.8109,-2.8109,-2.8063,0.0,0.0,0.0,0.0,0.0,0.0,0.0,0.0,0.0,0.0,0.0,0.0,0.0,0.0,0.0,0.0,0.0,0.0,0.0,0.0,0.0,0.0,0.0,0.0,0.0,0.0,0.0,0.0,-2.537,-2.5384,-2.5327,-2.5308,-2.5308,-2.5308,-2.5308,-2.5308,-2.5308,-2.5308,-2.5308,-2.5308,-2.5308,-2.5308,-2.5308,-2.5538,-2.5891,-2.6407,-2.689,-2.7464,-2.8086,-2.8706,-2.9027,-2.9123,-2.9082,-2.9192,-2.9396,-2.9396,-2.9396,-2.9396,-2.9396,-2.9396,-2.9396,-2.9396,-2.9396,-2.9396,-2.9396,-2.9824,-3.0288,-3.0288,-3.0734,-3.1054,-3.0448,-3.0562,-3.0521,-2.9326,-2.9338,-2.9416,-2.8656,-2.8504,-2.8504,-2.8504,-2.8435,-2.8402,-2.8402,-2.8166,-2.7992,-2.7992,-2.7844,-2.7716,-2.776,-2.7774,-2.785,-2.8025,-2.8077,-2.8132,-2.8187,-2.8282,-2.8309,-2.8242,-2.8268,-2.8295,-2.8295,-2.8295,-2.8353,-2.8463,-2.8353,-2.8295,-2.8295,-2.8273,-2.8259,-2.8259,-2.8259,-2.8228,0.0,0.0,0.0,0.0,0.0,0.0,0.0,0.0,0.0,0.0,0.0,0.0,0.0,0.0,0.0,0.0,0.0,0.0,0.0,0.0,0.0,0.0,0.0,0.0,0.0,0.0,0.0,0.0,-2.5402,-2.5404,-2.539,-2.5327,-2.5308,-2.5308,-2.5308,-2.5308,-2.5308,-2.5308,-2.5308,-2.5308,-2.5308,-2.5308,-2.5327,-2.6154,-2.6558,-2.6586,-2.6413,-2.6737,-2.7354,-2.7257,-2.7686,-2.8343,-2.8211,-2.8672,-2.9396,-2.9396,-2.9396,-2.9396,-2.9396,-2.9396,-2.9396,-2.9396,-2.9396,-2.9396,-2.9396,-2.9434,-2.9452,-2.9452,-2.9489,-2.9694,-3.0408,-3.0026,-2.9673,-3.033,-2.9941,-2.9248,-2.8633,-2.8504,-2.8504,-2.8504,-2.8298,-2.8129,-2.8129,-2.7897,-2.773,-2.773,-2.7716,-2.776,-2.7954,-2.7968,-2.8039,-2.8174,-2.8295,-2.8334,-2.8214,-2.8492,-2.8582,-2.8393,-2.851,-2.8574,-2.8574,-2.8574,-2.8574,-2.8587,-2.8574,-2.8574,-2.8574,-2.8445,-2.838,-2.838,-2.838,-2.8313,0.0,0.0,0.0,0.0,0.0,0.0,0.0,0.0,0.0,0.0,0.0,0.0,0.0,0.0,0.0,0.0,0.0,0.0,0.0,0.0,0.0,0.0,0.0,0.0,0.0,0.0,0.0,0.0,0.0,-2.5393,-2.5403,-2.5346,-2.5317,-2.5361,-2.5317,-2.5308,-2.5308,-2.5308,-2.5308,-2.5308,-2.5308,-2.5308,-2.5308,-2.5615,-2.6077,-2.6596,-2.6516,-2.6872,-2.753,-2.8039,-2.8264,-2.8352,-2.8858,-2.9201,-2.9396,-2.9396,-2.9396,-2.9396,-2.9396,-2.9396,-2.9396,-2.9396,-2.9396,-2.9396,-2.9396,-2.9396,-2.9396,-2.9396,-2.9396,-2.9481,-2.975,-2.9619,-2.9471,-2.975,-2.9601,-2.9336,-2.9119,-2.8943,-2.8874,-2.9052,-2.8862,-2.8743,-2.8897,-2.8719,-2.8527,-2.8529,-2.8389,-2.8329,-2.8433,-2.8446,-2.8496,-2.8633,-2.8676,-2.8955,-2.9558,-2.9727,-2.9763,-2.9691,-2.9606,-2.9338,-2.8816,-2.8675,-2.86,-2.86,-2.86,-2.86,-2.86,-2.8549,-2.8523,-2.8523,-2.8523,-2.8497,-2.45,0.0,0.0,0.0,0.0,0.0,0.0,0.0,0.0,0.0,0.0,0.0,0.0,0.0,0.0,0.0,0.0,0.0,0.0,0.0,0.0,0.0,0.0,0.0,0.0,0.0,0.0,0.0,0.0,0.0,-2.5391,-2.537,-2.5346,-2.5361,-2.5317,-2.5308,-2.5308,-2.5308,-2.5308,-2.5308,-2.5308,-2.5442,-2.5731,-2.5731,-2.6212,-2.7044,-2.7044,-2.713,-2.7305,-2.7842,-2.789,-2.7679,-2.8169,-2.8465,-2.8621,-2.859,-2.856,-2.8597,-2.8858,-2.8951,-2.9006,-2.9304,-2.9396,-2.9396,-2.9396,-2.9396,-2.9396,-2.9396,-2.9396,-2.9396,-2.9396,-2.9396,-2.9396,-2.9396,-2.9396,-2.9396,-2.9396,-2.9262,-2.9189,-2.9376,-2.9171,-2.9052,-2.9243,-2.9064,-2.8909,-2.8895,-2.8748,-2.8664,-2.876,-2.8772,-2.8819,-2.8945,-2.9031,-2.9426,-3.0327,-3.0187,-3.0161,-3.0383,-2.9958,-2.9466,-2.8923,-2.8712,-2.86,-2.86,-2.86,-2.86,-2.86,-2.86,-2.86,-2.86,-2.86,-2.86,0.0,0.0,0.0,0.0,0.0,0.0,0.0,0.0,0.0,0.0,0.0,0.0,0.0,0.0,0.0,0.0,0.0,0.0,0.0,0.0,0.0,0.0,0.0,0.0,0.0,0.0,0.0,0.0,-2.5433,-2.5393,-2.5391,-2.5393,-2.5365,-2.5308,-2.5308,-2.5308,-2.5308,-2.5308,-2.5308,-2.5308,-2.5308,-2.5731,-2.6563,-2.6563,-2.7044,-2.7895,-2.7895,-2.7428,-2.6668,-2.6519,-2.6396,-2.6314,-2.6091,-2.6464,-2.7124,-2.7,-2.6935,-2.7028,-2.7798,-2.8059,-2.8207,-2.9081,-2.9359,-2.9359,-2.9378,-2.9396,-2.9396,-2.9396,-2.9396,-2.9396,-2.9396,-2.9396,-2.9407,-2.9407,-2.9407,-2.9407,-2.9407,-2.9407,-2.9407,-2.9407,-2.9203,-2.9016,-2.9016,-2.8842,-2.8724,-2.8724,-2.8724,-2.8772,-2.89,-2.8911,-2.8975,-2.9097,-2.9283,-2.9686,-3.035,-2.9832,-2.9723,-3.0357,-2.9492,-2.8935,-2.8905,-2.8712,-2.86,-2.86,-2.86,-2.86,-2.86,-2.86,-2.86,-2.8563,-2.8545,-2.8545,-2.45,0.0,0.0,0.0,0.0,0.0,0.0,0.0,0.0,0.0,0.0,0.0,0.0,0.0,0.0,0.0,0.0,0.0,0.0,0.0,0.0,0.0,0.0,0.0,0.0,0.0,0.0,0.0,-2.5433,-2.5425,-2.5472,-2.5419,-2.5379,-2.5308,-2.5308,-2.5308,-2.5308,-2.5308,-2.5308,-2.5308,-2.5308,-2.5423,-2.5654,-2.5654,-2.6486,-2.7895,-2.7895,-2.8088,-2.8352,-2.7742,-2.7399,-2.7306,-2.7849,-2.8108,-2.8172,-2.803,-2.7595,-2.7054,-2.7196,-2.7222,-2.7371,-2.8189,-2.8467,-2.8579,-2.9211,-2.9396,-2.9396,-2.9396,-2.9396,-2.9396,-2.9396,-2.9396,-2.9407,-2.9401,-2.9411,-2.9421,-2.9461,-2.9471,-2.9461,-2.9411,-2.922,-2.9137,-2.9332,-2.9314,-2.9293,-2.9343,-2.9353,-2.9373,-2.9472,-2.9482,-2.9492,-2.9522,-2.9579,-2.9926,-3.0699,-3.058,-3.0502,-3.0544,-3.0202,-2.9662,-2.8935,-2.8712,-2.86,-2.86,-2.86,-2.86,-2.86,-2.86,-2.831,-2.7713,-2.7133,-2.717,0.0,0.0,0.0,0.0,0.0,0.0,-2.4045,-2.3962,0.0,0.0,0.0,0.0,0.0,0.0,0.0,0.0,0.0,0.0,0.0,0.0,0.0,0.0,0.0,0.0,0.0,-2.5484,-2.5507,-2.5507,-2.546,-2.5452,-2.5456,-2.5427,-2.5373,-2.5351,-2.5346,-2.5322,-2.5308,-2.5308,-2.5476,-2.5841,-2.5836,-2.6028,-2.6385,-2.6385,-2.6948,-2.7915,-2.8261,-2.8472,-2.8588,-2.8453,-2.8134,-2.7726,-2.781,-2.7795,-2.7621,-2.713,-2.6626,-2.621,-2.6399,-2.6477,-2.6608,-2.7363,-2.7594,-2.7761,-2.8597,-2.8878,-2.8962,-2.9316,-2.9429,-2.945,-2.945,-2.945,-2.9431,-2.9443,-2.9443,-2.9453,-2.9492,-2.9512,-2.9531,-2.9453,-2.9363,-2.9363,-2.9502,-2.956,-2.9607,-2.9636,-2.9636,-2.9664,-2.9683,-2.9701,-2.9701,-2.9701,-2.9701,-3.0021,-3.0837,-3.0593,-3.0489,-3.0718,-3.0254,-2.9724,-2.9134,-2.8915,-2.8773,-2.8737,-2.8724,-2.8524,-2.8093,-2.8093,-2.7695,-2.688,-2.6421,-2.6457,0.0,0.0,0.0,0.0,0.0,0.0,-2.3516,-2.3341,-2.3137,0.0,0.0,0.0,0.0,0.0,0.0,0.0,0.0,0.0,0.0,0.0,0.0,0.0,0.0,0.0,-2.5406,-2.548,-2.5507,-2.5507,-2.5507,-2.546,-2.5401,-2.5404,-2.5402,-2.5403,-2.5398,-2.5361,-2.5308,-2.5308,-2.5707,-2.647,-2.646,-2.6869,-2.7601,-2.7717,-2.7761,-2.7818,-2.8723,-2.8709,-2.8112,-2.892,-2.8767,-2.7942,-2.7048,-2.6694,-2.6586,-2.5672,-2.5239,-2.5155,-2.5838,-2.6,-2.6059,-2.6729,-2.6954,-2.7075,-2.7791,-2.8024,-2.8239,-2.9058,-2.9322,-2.938,-2.9483,-2.9502,-2.9502,-2.9502,-2.9502,-2.9502,-2.9512,-2.956,-2.9598,-2.9522,-2.956,-2.9607,-2.9607,-2.9655,-2.9701,-2.9701,-2.9701,-2.9701,-2.9701,-2.9701,-2.9701,-2.9701,-2.9701,-2.9983,-3.0706,-3.0114,-2.9992,-3.0686,-2.9893,-2.9392,-2.9382,-2.9191,-2.9038,-2.8922,-2.8825,-2.8274,-2.7296,-2.7182,-2.6771,-2.6059,-2.5986,-2.6041,0.0,0.0,0.0,0.0,0.0,0.0,-2.4292,-2.4244,-2.4215,0.0,0.0,0.0,0.0,0.0,0.0,0.0,0.0,0.0,0.0,0.0,0.0,0.0,0.0,0.0,-2.5484,-2.5488,-2.5507,-2.5507,-2.5507,-2.546,-2.5401,-2.5397,-2.5404,-2.5406,-2.5407,-2.538,-2.5385,-2.5385,-2.5442,-2.5553,-2.5553,-2.5649,-2.5827,-2.6524,-2.6851,-2.6948,-2.8494,-2.9096,-2.9005,-2.988,-2.969,-2.8857,-2.8643,-2.8574,-2.8543,-2.823,-2.7281,-2.6193,-2.6875,-2.6676,-2.6273,-2.7044,-2.7258,-2.7242,-2.7341,-2.7313,-2.741,-2.8268,-2.8521,-2.8679,-2.9324,-2.9502,-2.9502,-2.9578,-2.9588,-2.9598,-2.9645,-2.9664,-2.9683,-2.9664,-2.9664,-2.9692,-2.9692,-2.9701,-2.9701,-2.9701,-2.9701,-2.9701,-2.9701,-2.9701,-2.9701,-2.9701,-2.9701,-2.9758,-2.9927,-2.9795,-2.9711,-2.9686,-2.9516,-2.9332,-2.9169,-2.9126,-2.9093,-2.906,-2.8319,-2.7515,-2.667,-2.5866,-2.5389,-2.5226,-2.4574,-2.4954,0.0,0.0,0.0,-2.45,0.0,0.0,0.0,-2.3907,-2.3793,0.0,0.0,0.0,0.0,0.0,0.0,0.0,0.0,0.0,0.0,0.0,0.0,0.0,0.0,0.0,-2.4888,-2.524,-2.5507,-2.5507,-2.5507,-2.5484,-2.5456,-2.5456,-2.5425,-2.5404,-2.5404,-2.5406,-2.5408,-2.5399,-2.5582,-2.5943,-2.5942,-2.5942,-2.5981,-2.6856,-2.701,-2.6693,-2.8412,-2.9173,-2.9261,-3.0106,-3.0183,-2.9767,-2.9324,-2.9151,-2.9088,-2.8591,-2.7876,-2.7182,-2.7466,-2.7281,-2.6995,-2.7348,-2.7426,-2.7383,-2.7365,-2.7269,-2.7259,-2.7717,-2.8088,-2.8437,-2.8849,-2.927,-2.9617,-2.9636,-2.9645,-2.9655,-2.9701,-2.9363,-2.9054,-2.9054,-2.8725,-2.8725,-2.9551,-2.9701,-2.9701,-2.9701,-2.9701,-2.9701,-2.9701,-2.9701,-2.9701,-2.9701,-2.9701,-2.9701,-2.9701,-2.9701,-2.9655,-2.955,-2.955,-2.9492,-2.9404,-2.9404,-2.9159,-2.8658,-2.7632,-2.6713,-2.5897,-2.4888,-2.4393,-2.4393,-2.3976,-2.4447,0.0,0.0,0.0,0.0,0.0,-2.4339,0.0,0.0,0.0,-2.2724,0.0,0.0,0.0,0.0,0.0,0.0,0.0,0.0,0.0,0.0,0.0,0.0,0.0,0.0,0.0,-2.5085,-2.5507,-2.5507,-2.5507,-2.5507,-2.5507,-2.5507,-2.5484,-2.5425,-2.5422,-2.5414,-2.5395,-2.5394,-2.5722,-2.6372,-2.6529,-2.6606,-2.6631,-2.7502,-2.7526,-2.6944,-2.848,-2.9165,-2.9277,-3.0092,-3.0474,-3.0442,-2.9737,-2.9443,-2.9366,-2.8671,-2.8285,-2.8155,-2.8225,-2.8145,-2.798,-2.7873,-2.7606,-2.7351,-2.7471,-2.7343,-2.7218,-2.7585,-2.7967,-2.8286,-2.8437,-2.8878,-2.9293,-2.9293,-2.9285,-2.9267,-2.9267,-2.8687,-2.8172,-2.8172,-2.7646,-2.7674,-2.9194,-2.9457,-2.9514,-2.9664,-2.9701,-2.9701,-2.9701,-2.9701,-2.9692,-2.971,-2.972,-2.9711,-2.971,-2.972,-2.9701,-2.9701,-2.9701,-2.9626,-2.9457,-2.9289,-2.8802,-2.7988,-2.6856,-2.5944,-2.5291,-2.4296,-2.3806,-2.3795,-2.3958,-2.4465,0.0,0.0,0.0,0.0,-2.4539,0.0,0.0,0.0,-2.4514,-2.4421,0.0,0.0,0.0,0.0,0.0,0.0,0.0,0.0,0.0,0.0,0.0,0.0,0.0,0.0,0.0,-2.543,-2.5507,-2.5507,-2.5507,-2.5507,-2.5507,-2.5507,-2.5507,-2.5488,-2.5488,-2.546,-2.5397,-2.5393,-2.5458,-2.5537,-2.6256,-2.6593,-2.6631,-2.7498,-2.7855,-2.7807,-2.883,-2.9274,-2.9366,-3.0211,-3.0588,-3.0564,-3.0404,-3.035,-3.035,-3.0234,-2.9713,-2.9148,-2.991,-2.9713,-2.912,-2.91,-2.8009,-2.6801,-2.7407,-2.7077,-2.681,-2.8313,-2.8229,-2.7852,-2.8576,-2.8296,-2.7831,-2.7831,-2.7758,-2.7661,-2.7661,-2.7493,-2.7336,-2.7336,-2.7261,-2.7486,-2.8397,-2.8547,-2.881,-2.957,-2.9701,-2.9701,-2.9701,-2.9701,-2.9719,-2.9782,-2.9738,-2.9719,-2.9782,-2.9738,-2.9701,-2.9701,-2.9701,-2.9345,-2.8585,-2.7755,-2.7242,-2.713,-2.6008,-2.5395,-2.5303,-2.4288,-2.3806,-2.3824,-2.452,-2.5298,0.0,0.0,0.0,0.0,0.0,0.0,-2.4615,0.0,-2.4698,0.0,0.0,0.0,0.0,0.0,0.0,0.0,0.0,0.0,0.0,0.0,0.0,0.0,0.0,0.0,0.0,0.0,0.0,0.0,-2.4931,-2.5279,-2.4776,-2.524,-2.5507,-2.5507,-2.5507,-2.5484,-2.5456,-2.5425,-2.5648,-2.6161,-2.6501,-2.6921,-2.7412,-2.775,-2.7928,-2.8,-2.8874,-2.9255,-2.9352,-3.0207,-3.0564,-3.0598,-3.0574,-3.0569,-3.0569,-3.0569,-3.0337,-3.0066,-3.0434,-3.0342,-2.9969,-2.9462,-2.8439,-2.7368,-2.7147,-2.6451,-2.6014,-2.7234,-2.7228,-2.7039,-2.7879,-2.78,-2.7476,-2.7476,-2.7384,-2.7285,-2.7285,-2.6868,-2.6499,-2.6499,-2.6097,-2.6022,-2.6866,-2.7392,-2.7834,-2.8181,-2.8703,-2.9058,-2.9058,-2.9497,-2.9798,-2.9808,-2.9773,-2.9746,-2.9747,-2.9729,-2.9476,-2.8979,-2.8519,-2.8087,-2.7721,-2.7321,-2.6911,-2.6424,-2.5755,-2.5176,-2.4725,-2.4556,-2.4502,-2.4502,-2.4846,-2.5425,-2.4498,0.0,0.0,0.0,0.0,0.0,0.0,0.0,0.0,0.0,0.0,0.0,0.0,0.0,0.0,0.0,0.0,0.0,0.0,0.0,0.0,0.0,0.0,0.0,0.0,0.0,0.0,-2.3654,-2.4776,-2.5221,-2.4583,-2.5163,-2.5507,-2.5507,-2.5507,-2.5507,-2.5507,-2.5456,-2.5854,-2.67,-2.6933,-2.7508,-2.8352,-2.8319,-2.8435,-2.87,-2.9062,-2.94,-2.9709,-3.0298,-3.0559,-3.0598,-3.0598,-3.0598,-3.0598,-3.0598,-3.0598,-3.0598,-3.0598,-3.0598,-3.0462,-2.9573,-2.8707,-2.7875,-2.7252,-2.6408,-2.5871,-2.6733,-2.6706,-2.6567,-2.7186,-2.7084,-2.682,-2.682,-2.6684,-2.6575,-2.6575,-2.6081,-2.5635,-2.5635,-2.5155,-2.4926,-2.5554,-2.6363,-2.6975,-2.7201,-2.7829,-2.8264,-2.8264,-2.8823,-2.9199,-2.9177,-2.9152,-2.9231,-2.9442,-2.9228,-2.8796,-2.8166,-2.7357,-2.6933,-2.6933,-2.6655,-2.6244,-2.5651,-2.537,-2.5023,-2.4607,-2.4951,-2.5194,-2.5335,-2.557,-2.5968,0.0,0.0,0.0,-2.465,0.0,0.0,0.0,0.0,-2.47,0.0,0.0,0.0,0.0,0.0,0.0,-2.3663,0.0,0.0,0.0,0.0,0.0,0.0,0.0,0.0,0.0,0.0,0.0,-2.541,-2.5468,-2.5488,-2.5449,-2.5488,-2.5507,-2.5507,-2.5507,-2.5507,-2.5507,-2.5507,-2.5894,-2.6702,-2.755,-2.841,-2.926,-2.926,-2.9685,-3.038,-2.9617,-2.9785,-3.0559,-3.0598,-3.0598,-3.0598,-3.0598,-3.0598,-3.0598,-3.0598,-3.0598,-3.0598,-3.0598,-3.0598,-3.0462,-2.9573,-2.8707,-2.7991,-2.7972,-2.7344,-2.6837,-2.7716,-2.734,-2.6693,-2.6713,-2.6048,-2.537,-2.537,-2.5162,-2.4971,-2.4971,-2.485,-2.4737,-2.4737,-2.4761,-2.4813,-2.4832,-2.5556,-2.6404,-2.718,-2.7384,-2.7438,-2.7438,-2.7464,-2.7494,-2.7566,-2.7528,-2.7835,-2.8745,-2.7994,-2.7456,-2.7438,-2.668,-2.6226,-2.6226,-2.5303,-2.4772,-2.4734,-2.4599,-2.4816,-2.5352,-2.5379,-2.5659,-2.6186,-2.6952,-2.7333,0.0,0.0,-2.4513,-2.4555,0.0,0.0,0.0,0.0,0.0,0.0,0.0,0.0,0.0,0.0,-2.4613,-2.4332,-2.452,0.0,0.0,0.0,0.0,0.0,0.0,0.0,0.0,0.0,0.0,-2.377,-2.4312,-2.4641,-2.4641,-2.5182,-2.5507,-2.5507,-2.5507,-2.5507,-2.5507,-2.5507,-2.6188,-2.7561,-2.7866,-2.8771,-3.0158,-3.0158,-3.0313,-3.0545,-3.0284,-3.0327,-3.0598,-3.0598,-3.0598,-3.0598,-3.0598,-3.0598,-3.0598,-3.0598,-3.0598,-3.0598,-3.0598,-3.0598,-3.0366,-2.8919,-2.8242,-2.7797,-2.6671,-2.6149,-2.6087,-2.6899,-2.6532,-2.6029,-2.6571,-2.5999,-2.5308,-2.5308,-2.5097,-2.4902,-2.4902,-2.4782,-2.47,-2.47,-2.4723,-2.4753,-2.4787,-2.5071,-2.539,-2.5674,-2.6261,-2.6671,-2.6671,-2.7214,-2.7577,-2.7511,-2.7483,-2.7568,-2.785,-2.7081,-2.6612,-2.6612,-2.5804,-2.5331,-2.5331,-2.5012,-2.4821,-2.4821,-2.4704,-2.5025,-2.5799,-2.6154,-2.6428,-2.6624,-2.7386,-2.7622,-2.4498,-2.4513,0.0,-2.4564,-2.465,0.0,-2.4706,0.0,0.0,0.0,0.0,0.0,0.0,0.0,0.0,-2.4772,-2.4727,-2.4715,0.0,-2.4881,0.0,0.0,0.0,0.0,0.0,0.0,-2.3704,-2.3394,-2.4161,-2.466,0.0,0.0,-2.5507,-2.5507,-2.5507,-2.5507,-2.5507,-2.5507,-2.6188,-2.7542,-2.7855,-2.8745,-3.0153,-3.0462,-3.0598,-3.0598,-3.0598,-3.0598,-3.0598,-3.0598,-3.0598,-3.0598,-3.0598,-3.0598,-3.0598,-3.0598,-3.0598,-3.0559,-3.025,-3.0133,-2.9843,-2.8103,-2.7542,-2.7271,-2.5917,-2.5507,-2.5662,-2.6474,-2.6126,-2.5681,-2.6493,-2.5999,-2.5308,-2.5308,-2.5132,-2.4962,-2.4975,-2.4903,-2.4861,-2.4874,-2.4895,-2.4922,-2.4968,-2.5037,-2.5056,-2.4974,-2.5514,-2.592,-2.592,-2.6435,-2.6785,-2.6683,-2.6676,-2.6656,-2.6628,-2.6393,-2.6146,-2.5861,-2.5323,-2.5,-2.5,-2.5,-2.5133,-2.5437,-2.5033,-2.5363,-2.644,-2.6438,-2.6525,-2.6695,-2.7185,-2.7247]},{"header":{"parameterUnit":"m.s-1","parameterCategory":1,"la1":30.6,"la2":29.2853,"lo1":-89.7004,"lo2":-87.6739,"dy":0.0162,"dx":0.0183,"nx":112,"ny":82,"refTime":"2023-09-05T12:00:00:Z","depth":0,"parameterNumber":3,"parameterNumberName":"V-component_of_WINDS"},"data":[0.0,0.0,0.0,0.0,0.0,0.0,0.0,0.0,0.0,0.0,0.0,0.0,0.0,0.0,0.0,0.0,0.0,0.0,0.0,0.0,0.0,0.0,0.0,0.0,0.0,0.0,0.0,0.0,0.0,0.0,0.0,0.0,0.0,0.0,0.0,0.0,0.0,0.0,0.0,0.0,0.0,0.0,0.0,0.0,0.0,0.0,0.0,0.0,0.0,0.0,0.0,0.0,0.0,0.0,0.0,0.0,0.0,0.0,0.0,0.0,0.0,0.0,0.0,0.0,0.0,0.0,0.0,0.0,0.0,0.0,0.0,0.0,0.0,0.0,0.0,0.0,0.0,0.0,0.0,0.0,0.0,0.0,0.0,0.0,0.0,0.0,0.0,0.0,0.0,0.0,0.0,-2.6989,-2.9841,-3.126,-3.068,-2.9586,-2.7512,-2.4315,0.0,0.0,0.0,0.0,0.0,0.0,0.0,0.0,0.0,0.0,0.0,0.0,0.0,0.0,0.0,0.0,0.0,0.0,0.0,0.0,0.0,0.0,0.0,0.0,0.0,0.0,0.0,0.0,0.0,0.0,0.0,0.0,0.0,0.0,0.0,0.0,0.0,0.0,0.0,0.0,0.0,0.0,0.0,0.0,0.0,0.0,0.0,0.0,0.0,0.0,0.0,0.0,0.0,0.0,0.0,0.0,0.0,0.0,0.0,0.0,0.0,0.0,0.0,0.0,0.0,0.0,0.0,0.0,0.0,0.0,0.0,0.0,0.0,0.0,0.0,0.0,0.0,0.0,0.0,0.0,0.0,0.0,0.0,0.0,0.0,0.0,0.0,0.0,0.0,0.0,0.0,0.0,0.0,0.0,0.0,0.0,0.0,0.0,0.0,0.0,0.0,0.0,0.0,0.0,-2.4729,-2.9431,-3.0881,-3.1443,-3.1359,-2.984,-2.7512,-2.4315,0.0,0.0,0.0,0.0,0.0,0.0,0.0,0.0,0.0,0.0,0.0,0.0,0.0,0.0,0.0,0.0,0.0,0.0,0.0,0.0,0.0,0.0,0.0,0.0,0.0,0.0,0.0,0.0,0.0,0.0,0.0,0.0,0.0,0.0,0.0,0.0,0.0,0.0,0.0,0.0,0.0,0.0,0.0,0.0,0.0,0.0,0.0,0.0,0.0,0.0,0.0,0.0,0.0,0.0,0.0,0.0,0.0,0.0,0.0,0.0,0.0,0.0,0.0,0.0,0.0,0.0,0.0,0.0,0.0,0.0,0.0,0.0,0.0,0.0,0.0,0.0,0.0,0.0,0.0,0.0,0.0,0.0,0.0,0.0,0.0,0.0,0.0,0.0,0.0,0.0,0.0,0.0,0.0,0.0,0.0,0.0,0.0,0.0,0.0,0.0,0.0,0.0,0.0,-2.4134,-2.6371,-2.9673,-3.096,-3.1495,-3.1156,-2.9588,-2.7398,-2.4489,-2.3516,0.0,0.0,0.0,0.0,0.0,0.0,0.0,0.0,0.0,0.0,0.0,0.0,0.0,0.0,0.0,0.0,0.0,0.0,0.0,0.0,0.0,0.0,0.0,0.0,0.0,0.0,0.0,0.0,0.0,0.0,0.0,0.0,0.0,0.0,0.0,0.0,0.0,0.0,0.0,0.0,0.0,0.0,0.0,0.0,0.0,0.0,0.0,0.0,0.0,0.0,0.0,0.0,0.0,0.0,0.0,0.0,0.0,0.0,0.0,0.0,0.0,0.0,0.0,0.0,0.0,0.0,0.0,0.0,0.0,0.0,0.0,0.0,0.0,0.0,0.0,0.0,0.0,0.0,0.0,0.0,0.0,0.0,0.0,0.0,0.0,0.0,0.0,0.0,0.0,0.0,0.0,0.0,0.0,0.0,0.0,0.0,0.0,0.0,0.0,0.0,0.0,0.0,-2.606,-2.7579,-2.9602,-3.0958,-3.1395,-3.063,-2.9083,-2.7048,-2.4422,-2.3074,0.0,0.0,0.0,0.0,0.0,0.0,0.0,0.0,0.0,0.0,0.0,0.0,0.0,0.0,0.0,0.0,0.0,0.0,0.0,0.0,0.0,0.0,0.0,0.0,0.0,0.0,0.0,0.0,0.0,0.0,0.0,0.0,0.0,0.0,0.0,0.0,0.0,0.0,0.0,0.0,0.0,0.0,0.0,0.0,0.0,0.0,0.0,0.0,0.0,0.0,0.0,0.0,0.0,0.0,0.0,0.0,0.0,0.0,0.0,0.0,0.0,0.0,0.0,0.0,0.0,0.0,0.0,0.0,0.0,0.0,0.0,0.0,0.0,0.0,0.0,0.0,0.0,0.0,0.0,0.0,0.0,0.0,0.0,0.0,0.0,0.0,0.0,0.0,0.0,0.0,0.0,0.0,0.0,0.0,0.0,0.0,0.0,0.0,0.0,0.0,0.0,0.0,-2.4982,-2.7719,-3.0161,-3.118,-3.1193,-2.9959,-2.8411,-2.6334,-2.375,-2.2047,0.0,0.0,0.0,0.0,0.0,0.0,0.0,0.0,0.0,0.0,0.0,0.0,0.0,0.0,0.0,0.0,0.0,0.0,0.0,0.0,0.0,0.0,0.0,0.0,0.0,0.0,0.0,0.0,0.0,0.0,0.0,0.0,0.0,0.0,0.0,0.0,0.0,0.0,0.0,0.0,0.0,0.0,0.0,0.0,0.0,0.0,0.0,0.0,0.0,0.0,0.0,0.0,0.0,0.0,0.0,0.0,0.0,0.0,0.0,0.0,0.0,0.0,0.0,0.0,0.0,0.0,0.0,0.0,0.0,0.0,0.0,0.0,0.0,0.0,0.0,0.0,0.0,0.0,0.0,0.0,0.0,0.0,0.0,0.0,0.0,0.0,0.0,0.0,0.0,0.0,0.0,0.0,0.0,0.0,0.0,0.0,0.0,0.0,0.0,0.0,0.0,0.0,-2.5537,-2.7215,0.0,-3.0789,-3.0788,-2.9641,-2.8008,-2.6096,-2.3903,0.0,0.0,0.0,0.0,0.0,0.0,0.0,0.0,0.0,0.0,0.0,0.0,0.0,0.0,0.0,0.0,0.0,0.0,0.0,0.0,0.0,0.0,0.0,0.0,0.0,0.0,0.0,0.0,0.0,0.0,0.0,0.0,0.0,0.0,0.0,0.0,0.0,0.0,0.0,0.0,0.0,0.0,0.0,0.0,0.0,0.0,0.0,0.0,0.0,0.0,0.0,0.0,0.0,0.0,0.0,0.0,0.0,0.0,0.0,0.0,0.0,0.0,0.0,0.0,0.0,0.0,0.0,0.0,0.0,0.0,0.0,0.0,0.0,0.0,0.0,0.0,0.0,0.0,0.0,0.0,0.0,0.0,0.0,0.0,0.0,0.0,0.0,0.0,0.0,0.0,0.0,0.0,0.0,0.0,0.0,0.0,0.0,0.0,0.0,0.0,0.0,0.0,-2.4988,-2.5785,-2.6877,0.0,-3.0278,-3.0317,-2.9189,-2.7294,-2.5429,-2.3688,0.0,0.0,0.0,0.0,0.0,0.0,0.0,0.0,0.0,0.0,0.0,0.0,0.0,0.0,0.0,0.0,0.0,0.0,0.0,0.0,0.0,0.0,0.0,0.0,0.0,0.0,0.0,0.0,0.0,0.0,0.0,0.0,0.0,0.0,0.0,0.0,0.0,0.0,0.0,0.0,0.0,0.0,0.0,0.0,0.0,0.0,0.0,0.0,0.0,0.0,0.0,0.0,0.0,0.0,0.0,0.0,0.0,0.0,0.0,0.0,0.0,0.0,0.0,0.0,0.0,0.0,0.0,0.0,0.0,0.0,0.0,0.0,0.0,0.0,0.0,0.0,0.0,0.0,0.0,0.0,0.0,0.0,0.0,0.0,0.0,0.0,0.0,0.0,0.0,0.0,0.0,0.0,0.0,0.0,0.0,0.0,0.0,0.0,0.0,0.0,0.0,0.0,-2.4279,-2.5509,-2.6805,-2.8675,-2.9729,-2.9749,-2.8498,-2.6156,-2.4259,0.0,0.0,0.0,0.0,0.0,0.0,0.0,0.0,0.0,0.0,0.0,0.0,0.0,0.0,0.0,0.0,0.0,0.0,0.0,0.0,0.0,0.0,0.0,0.0,0.0,0.0,0.0,0.0,0.0,0.0,0.0,0.0,0.0,0.0,0.0,0.0,0.0,0.0,0.0,0.0,0.0,0.0,0.0,0.0,0.0,0.0,0.0,0.0,0.0,0.0,0.0,0.0,0.0,0.0,0.0,0.0,0.0,0.0,0.0,0.0,0.0,0.0,0.0,0.0,0.0,0.0,0.0,0.0,0.0,0.0,0.0,0.0,0.0,0.0,0.0,0.0,0.0,0.0,0.0,0.0,0.0,0.0,0.0,0.0,0.0,0.0,0.0,0.0,0.0,0.0,0.0,0.0,0.0,0.0,0.0,0.0,0.0,0.0,0.0,0.0,0.0,0.0,0.0,-2.3364,-2.4419,-2.583,-2.8283,-2.8799,-2.8511,-2.7366,-2.5361,-2.363,-2.2352,0.0,0.0,0.0,0.0,0.0,0.0,0.0,0.0,0.0,0.0,0.0,0.0,0.0,0.0,0.0,0.0,0.0,0.0,0.0,0.0,0.0,0.0,0.0,0.0,0.0,0.0,0.0,0.0,0.0,0.0,0.0,0.0,0.0,0.0,0.0,0.0,0.0,0.0,0.0,0.0,0.0,0.0,0.0,0.0,0.0,0.0,0.0,0.0,0.0,0.0,0.0,0.0,0.0,0.0,0.0,0.0,0.0,0.0,0.0,0.0,0.0,0.0,0.0,0.0,0.0,0.0,0.0,0.0,0.0,0.0,0.0,0.0,0.0,0.0,0.0,0.0,0.0,0.0,0.0,0.0,0.0,0.0,0.0,0.0,0.0,0.0,0.0,0.0,0.0,0.0,0.0,0.0,0.0,0.0,0.0,0.0,0.0,0.0,0.0,0.0,0.0,0.0,-2.2388,-2.3955,-2.5586,-2.7448,-2.7935,-2.7773,-2.6866,-2.4544,-2.2825,-2.2098,0.0,0.0,0.0,0.0,0.0,0.0,0.0,0.0,0.0,0.0,0.0,0.0,0.0,0.0,0.0,0.0,0.0,0.0,0.0,0.0,0.0,0.0,0.0,0.0,0.0,0.0,0.0,0.0,0.0,0.0,0.0,0.0,0.0,0.0,0.0,0.0,0.0,0.0,0.0,0.0,0.0,0.0,0.0,0.0,0.0,0.0,0.0,0.0,0.0,0.0,0.0,0.0,0.0,0.0,0.0,0.0,0.0,0.0,0.0,0.0,0.0,0.0,0.0,0.0,0.0,0.0,0.0,0.0,0.0,0.0,0.0,0.0,0.0,0.0,0.0,0.0,0.0,0.0,0.0,0.0,0.0,0.0,0.0,0.0,0.0,0.0,0.0,0.0,0.0,0.0,0.0,0.0,0.0,0.0,0.0,0.0,0.0,0.0,0.0,0.0,0.0,0.0,-2.1519,-2.3813,-2.56,-2.6265,-2.6992,-2.7173,-2.6562,-2.3755,-2.2004,-2.2002,0.0,0.0,0.0,0.0,0.0,0.0,0.0,0.0,0.0,0.0,0.0,0.0,0.0,0.0,0.0,0.0,0.0,0.0,0.0,0.0,0.0,0.0,0.0,0.0,0.0,0.0,0.0,0.0,0.0,0.0,0.0,0.0,0.0,0.0,0.0,0.0,0.0,0.0,0.0,0.0,0.0,0.0,0.0,0.0,0.0,0.0,0.0,0.0,0.0,0.0,0.0,0.0,0.0,0.0,0.0,0.0,0.0,0.0,0.0,0.0,-1.4248,0.0,0.0,0.0,0.0,0.0,0.0,0.0,0.0,0.0,0.0,0.0,0.0,0.0,0.0,0.0,0.0,0.0,0.0,0.0,0.0,0.0,0.0,0.0,0.0,0.0,0.0,0.0,0.0,0.0,0.0,0.0,0.0,0.0,0.0,0.0,0.0,0.0,0.0,0.0,0.0,0.0,-2.1592,-2.2754,-2.3907,-2.5036,-2.5361,-2.5226,-2.4559,-2.2962,-2.1772,-2.1276,-1.987,0.0,0.0,0.0,0.0,0.0,0.0,0.0,0.0,0.0,0.0,0.0,0.0,0.0,0.0,0.0,0.0,0.0,0.0,0.0,0.0,0.0,0.0,0.0,0.0,0.0,0.0,0.0,0.0,0.0,0.0,0.0,0.0,0.0,0.0,0.0,0.0,0.0,0.0,0.0,0.0,0.0,0.0,0.0,0.0,0.0,0.0,0.0,0.0,0.0,0.0,0.0,0.0,0.0,0.0,0.0,0.0,0.0,0.0,0.0,0.0,-1.4974,0.0,0.0,0.0,0.0,0.0,0.0,0.0,0.0,0.0,0.0,0.0,0.0,0.0,0.0,0.0,0.0,0.0,0.0,0.0,0.0,0.0,0.0,0.0,0.0,0.0,0.0,0.0,0.0,0.0,0.0,0.0,0.0,0.0,0.0,0.0,0.0,0.0,0.0,0.0,0.0,-2.1318,-2.2569,-2.3621,-2.4312,-2.4399,-2.4152,-2.3484,-2.1989,-2.095,-2.0648,-1.9495,0.0,0.0,0.0,0.0,0.0,0.0,0.0,0.0,0.0,0.0,0.0,0.0,0.0,0.0,0.0,0.0,0.0,0.0,0.0,0.0,0.0,0.0,0.0,0.0,0.0,0.0,0.0,0.0,0.0,0.0,0.0,0.0,0.0,0.0,0.0,0.0,0.0,0.0,0.0,0.0,0.0,0.0,0.0,0.0,0.0,0.0,0.0,0.0,0.0,0.0,0.0,0.0,0.0,-1.2393,-1.3079,-1.4086,-1.4957,-1.5692,-1.624,-1.6217,-1.5872,-1.5304,-1.5157,0.0,0.0,0.0,0.0,0.0,0.0,0.0,0.0,0.0,0.0,0.0,0.0,0.0,0.0,0.0,0.0,0.0,0.0,0.0,0.0,0.0,0.0,0.0,0.0,-2.1462,-2.1088,0.0,0.0,0.0,0.0,0.0,0.0,0.0,0.0,0.0,0.0,0.0,0.0,-2.1003,-2.2599,-2.3731,-2.3731,-2.3731,-2.3514,-2.2946,-2.1373,-2.0462,-2.0533,-1.9474,-1.9075,0.0,0.0,0.0,0.0,0.0,0.0,0.0,0.0,0.0,0.0,0.0,0.0,0.0,0.0,0.0,0.0,0.0,0.0,0.0,0.0,0.0,0.0,0.0,0.0,0.0,0.0,0.0,0.0,0.0,0.0,0.0,0.0,-0.1787,-0.191,0.0,0.0,0.0,0.0,0.0,0.0,0.0,0.0,0.0,0.0,0.0,0.0,0.0,-1.0845,-1.1153,-1.2257,-1.2829,-1.2876,-1.3529,-1.4262,-1.5047,-1.6054,-1.6862,-1.7562,-1.8076,0.0,-1.6101,-1.5395,0.0,0.0,0.0,0.0,0.0,0.0,0.0,0.0,0.0,0.0,0.0,0.0,0.0,0.0,0.0,0.0,0.0,0.0,0.0,0.0,0.0,0.0,-2.0885,-2.1574,-2.1546,-2.1268,0.0,-2.047,-1.9869,-1.9362,-1.9435,0.0,0.0,0.0,0.0,0.0,0.0,0.0,-2.1003,-2.2185,-2.3018,-2.3018,-2.3018,-2.2989,-2.2902,-2.2185,-2.1807,-2.1934,-2.1342,-2.0809,-2.0372,-2.0482,0.0,0.0,0.0,0.0,0.0,0.0,0.0,0.0,0.0,0.0,0.0,0.0,0.0,0.0,0.0,0.0,0.0,0.0,0.0,0.0,0.0,0.0,0.0,0.0,0.0,0.0,0.0,0.0,0.0,-0.1052,-0.1481,-0.1301,-0.2001,-0.2568,0.0,0.0,0.0,0.0,0.0,0.0,0.0,0.0,0.0,-1.037,-1.13,-1.2052,-1.2517,-1.3227,-1.3839,-1.4396,-1.4577,-1.5223,-1.6284,-1.7154,-1.7798,-1.8232,-1.9017,-1.8771,-1.7748,-1.6711,-1.6217,-1.6114,0.0,0.0,0.0,0.0,-1.7848,-1.8554,-1.8841,-1.8686,0.0,-1.7667,0.0,0.0,0.0,0.0,0.0,0.0,0.0,0.0,0.0,0.0,-2.2002,-2.2567,-2.3049,-2.3291,-2.2963,-2.2339,-2.1487,0.0,-2.0373,-2.038,-1.9467,0.0,0.0,0.0,0.0,-2.1106,-2.1511,-2.2345,-2.2888,-2.2888,-2.2888,-2.2765,-2.2417,-2.2229,-2.1973,-2.1656,-2.148,-2.1104,-2.0478,-2.0502,-2.0205,0.0,0.0,0.0,0.0,0.0,0.0,0.0,0.0,0.0,0.0,0.0,0.0,0.0,0.0,0.0,0.0,0.0,0.0,0.0,0.0,0.0,0.0,0.0,0.0,0.0,0.0,0.0,0.0,-0.0946,-0.1325,-0.0925,-0.191,-0.2565,0.0,0.0,0.0,0.0,0.0,0.0,-0.7179,-0.8159,-0.9482,-1.1305,-1.2422,-1.3207,-1.3713,-1.3978,-1.4519,-1.5388,-1.5185,-1.5825,-1.7163,-1.7979,-1.8514,-1.8853,-1.9704,-1.9798,-1.9294,-1.792,-1.7369,-1.7378,-1.7094,-1.7578,-1.8454,-1.8475,-1.9048,-1.9804,-1.9764,-1.97,-1.9317,-1.7645,0.0,-1.8574,-1.7777,0.0,0.0,0.0,0.0,-2.0025,-2.1284,-2.263,-2.3626,-2.3431,-2.4191,-2.4725,-2.3991,-2.3445,-2.2611,0.0,-2.121,-2.1269,-2.0259,0.0,0.0,0.0,0.0,-2.1438,-2.1931,-2.2533,-2.2888,-2.2888,-2.2925,-2.2781,-2.2323,-2.2242,-2.202,-2.1507,-2.1427,-2.1104,-2.0435,-2.0405,-2.0091,-1.9454,0.0,0.0,0.0,0.0,0.0,0.0,0.0,0.0,0.0,0.0,0.0,0.0,0.0,0.0,0.0,0.0,0.0,0.0,0.0,0.0,0.0,0.0,0.0,0.0,0.0,0.0,0.0,0.0,0.0,-0.1398,-0.2422,0.0,0.0,0.0,0.0,-0.5247,-0.5777,-0.7146,-0.9697,-1.0416,-1.1547,-1.3281,-1.3949,-1.4308,-1.4262,-1.4533,-1.4802,-1.5102,-1.5089,-1.5879,-1.7326,-1.8319,-1.9109,-1.9668,-2.0225,-2.0495,-2.0377,-1.8517,-1.7642,-1.7552,-1.802,-1.8259,-1.846,-1.9639,-2.0429,-2.086,-2.0328,-2.018,-2.014,-1.9948,-1.9775,-1.9522,-1.8885,-2.0261,0.0,0.0,-2.1234,-2.2033,-2.2126,-2.3947,-2.5346,-2.3772,-2.4075,-2.4422,-2.3388,-2.2781,-2.2252,0.0,-2.1626,-2.1578,-2.0937,0.0,-2.0944,-2.0944,-2.1511,-2.196,-2.1989,-2.2533,-2.2888,-2.2888,-2.3015,-2.3082,-2.3038,-2.2585,-2.2281,-2.2237,-2.1713,-2.1093,-2.0435,-2.0405,-2.0057,-1.9317,-1.9302,0.0,0.0,0.0,0.0,0.0,0.0,0.0,0.0,0.0,0.0,0.0,0.0,0.0,0.0,0.0,0.0,0.0,0.0,0.0,0.0,0.0,0.0,0.0,0.0,0.0,0.0,0.0,0.0,-0.2046,-0.2629,0.0,-0.2841,-0.4239,-0.5386,-0.5925,-0.7277,-0.8871,-1.0663,-1.1049,-1.2104,-1.3952,-1.441,-1.4823,-1.5318,-1.5582,-1.5805,-1.5878,-1.6522,-1.6773,-1.6718,-1.8569,-1.8977,-1.8431,-1.974,-2.0264,-2.0121,-1.9611,-1.9257,-1.8996,-1.865,-1.9058,-1.9912,-2.0461,-2.1331,-2.2265,-2.2061,-2.1774,-2.138,-2.0709,-2.0358,-2.0331,-2.0981,-2.1721,-2.2324,-2.2327,-2.2273,-2.2197,-2.2199,-2.3242,-2.4132,-2.355,-2.4157,-2.4609,-2.3521,-2.3495,-2.3406,-2.2447,-2.2352,-2.227,-2.1708,-2.162,-2.1641,-2.1641,-2.1844,-2.2149,-2.2533,-2.2757,-2.2925,-2.3015,-2.306,-2.2944,-2.2556,-2.24,-2.2104,-2.163,-2.1456,-2.1104,-2.0435,-2.0313,-1.9996,-1.9383,-1.9228,-1.9151,0.0,0.0,0.0,0.0,0.0,0.0,0.0,0.0,0.0,0.0,0.0,0.0,0.0,0.0,0.0,0.0,0.0,0.0,0.0,0.0,0.0,0.0,0.0,0.0,0.0,0.0,-0.2286,-0.2287,-0.3026,-0.3412,-0.318,-0.4978,-0.6412,-0.6992,-0.87,-1.0364,-1.1896,-1.2247,-1.2993,-1.4344,-1.4664,-1.5055,-1.5493,-1.5655,-1.583,-1.5897,-1.6442,-1.6821,-1.6992,-1.8404,-1.8846,-1.863,-1.9742,-2.0173,-2.014,-2.0244,-2.0246,-2.0116,-1.9796,-2.041,-2.1527,-2.1874,-2.2752,-2.3725,-2.3396,-2.2812,-2.2138,-2.167,-2.149,-2.1641,-2.2731,-2.2859,-2.2779,-2.3437,-2.3126,-2.2536,-2.2259,-2.2908,-2.3603,-2.3445,-2.4179,-2.4582,-2.3537,-2.3717,-2.382,-2.2843,-2.2764,-2.2719,-2.2359,-2.2309,-2.2309,-2.2309,-2.2309,-2.2446,-2.2844,-2.2888,-2.2925,-2.3015,-2.306,-2.2856,-2.2256,-2.231,-2.1934,-2.0924,-2.1,-2.0725,-2.0,-1.9875,-1.9666,-1.9309,-1.9159,-1.9107,-1.9101,0.0,0.0,0.0,0.0,0.0,0.0,0.0,0.0,0.0,0.0,0.0,0.0,0.0,0.0,0.0,0.0,0.0,0.0,0.0,0.0,0.0,0.0,0.0,-0.0886,-0.1817,-0.2487,-0.2182,-0.361,-0.4381,-0.374,-0.5297,-0.6988,-0.8445,-0.9961,-1.1546,-1.3413,-1.4008,-1.4333,-1.4606,-1.4902,-1.4972,-1.4733,-1.4727,-1.4881,-1.5077,-1.485,-1.5936,-1.8121,-1.7898,-1.8725,-2.0433,-2.0277,-2.0345,-2.056,-2.0398,-2.042,-2.0683,-2.1499,-2.2285,-2.3106,-2.3829,-2.4576,-2.5119,-2.4155,-2.3144,-2.2371,-2.2943,-2.3216,-2.3438,-2.3982,-2.3713,-2.3308,-2.3966,-2.3814,-2.3273,-2.2491,-2.3192,-2.3993,-2.3532,-2.4081,-2.4418,-2.3343,-2.3344,-2.335,-2.2721,-2.2766,-2.2888,-2.2888,-2.2888,-2.2888,-2.2888,-2.2888,0.0,-2.2888,-2.2888,-2.2888,-2.2925,-2.3037,-2.2841,-2.2227,-2.2344,-2.1824,-2.026,-2.0298,-1.9985,-1.9116,-1.9101,-1.9101,-1.9101,-1.9111,-1.9097,-1.9101,0.0,0.0,0.0,0.0,0.0,0.0,0.0,0.0,0.0,0.0,0.0,0.0,0.0,0.0,0.0,0.0,0.0,0.0,0.0,0.0,0.0,0.0,-0.1178,-0.1429,-0.1791,-0.2355,-0.3246,-0.3515,-0.4058,-0.5236,-0.6915,-0.8572,-0.9999,-1.1504,-1.2749,-1.3665,-1.351,-1.3739,-1.4379,-1.4264,-1.4492,-1.4998,-1.54,-1.5406,-1.5029,-1.671,-1.725,-1.6876,-1.8523,-1.9193,-1.9024,-1.9672,-2.0033,-2.0103,-2.0381,-2.0566,-2.0683,-2.1499,-2.2285,-2.3106,-2.3829,-2.4143,-2.4191,-2.3902,-2.3095,-2.2402,-2.3421,-2.3767,-2.4016,-2.5078,-2.5275,-2.5163,-2.5345,-2.5015,-2.4504,-2.4297,-2.4163,-2.4077,-2.3931,-2.4501,-2.4793,-2.3758,-2.3936,-2.3999,-2.3027,-2.2856,-2.2888,-2.2888,-2.2888,-2.2888,-2.2888,-2.2888,0.0,-2.2888,-2.2888,-2.2978,-2.3164,-2.3209,-2.2811,-2.1713,-2.1686,-2.1029,-1.9507,-1.9438,-1.9347,-1.9101,-1.9101,-1.9101,-1.9101,-1.9103,-1.9103,0.0,0.0,0.0,0.0,0.0,0.0,0.0,0.0,0.0,0.0,0.0,0.0,0.0,0.0,0.0,0.0,0.0,0.0,0.0,0.0,0.0,0.0,-0.1027,-0.1313,-0.1652,-0.1884,-0.2426,-0.3483,-0.3639,-0.4318,-0.6023,-0.7484,-0.9055,-1.0674,-1.2023,-1.3072,-1.3772,-1.3659,-1.3734,-1.4127,-1.409,-1.4281,-1.4769,-1.5214,-1.5191,-1.4851,-1.66,-1.7168,-1.6698,-1.8506,-1.9153,-1.8813,-1.9777,-2.0072,-1.9942,-2.0411,-2.0605,0.0,0.0,0.0,0.0,0.0,-2.4069,-2.377,-2.3553,-2.3062,-2.2732,-2.3682,-2.4179,-2.4595,-2.5605,-2.5711,-2.557,-2.5823,-2.5288,-2.4683,-2.4936,-2.4739,-2.4472,-2.4472,-2.5055,-2.5348,-2.4509,-2.4465,-2.432,-2.3412,-2.3046,0.0,-2.2888,-2.2888,-2.2888,-2.2888,-2.2888,-2.2888,-2.2888,-2.2888,-2.2955,-2.3135,-2.312,-2.2629,-2.1345,-2.1548,0.0,0.0,0.0,-1.9415,-1.9116,-1.9101,0.0,0.0,0.0,-1.9064,-1.8978,0.0,0.0,0.0,-1.8851,-1.8798,0.0,0.0,0.0,0.0,0.0,0.0,0.0,0.0,0.0,0.0,0.0,0.0,0.0,0.0,0.0,0.0,-0.1318,-0.1584,-0.1754,-0.218,-0.2662,-0.3313,-0.4006,-0.4972,-0.6381,-0.7428,-0.8883,-1.1003,-1.1823,-1.2724,-1.3725,0.0,0.0,0.0,0.0,-1.4234,-1.4256,-1.4543,-1.4637,-1.4515,-1.5576,-1.6467,-1.7173,-1.828,-1.9018,-1.9393,-2.0245,-2.033,-1.9942,-2.0411,-2.0722,-2.0944,-2.1652,-2.2472,-2.3371,-2.4178,-2.4206,-2.3722,-2.3192,0.0,0.0,-2.3776,-2.439,-2.5005,-2.5702,-2.5516,-2.5217,-2.5739,-2.5133,-2.443,-2.4964,-2.5105,-2.5105,-2.5105,-2.5607,-2.5941,-2.5358,-2.4883,-2.4427,-2.3841,-2.3276,-2.2888,-2.2888,-2.2888,-2.2888,-2.2888,-2.2888,-2.2888,-2.2888,-2.2888,-2.2925,-2.2925,0.0,0.0,-2.1063,-2.1617,-2.1152,-1.916,-1.9696,-1.9773,-1.9059,-1.9082,-1.9064,-1.9007,-1.9064,-1.8993,-1.8798,-1.8974,-1.8846,-1.8496,-1.8498,-1.8498,0.0,0.0,0.0,0.0,0.0,0.0,0.0,0.0,0.0,0.0,0.0,0.0,0.0,0.0,0.0,-0.1178,-0.1391,-0.1767,-0.2372,-0.2507,-0.2778,-0.3338,-0.4576,-0.5864,-0.7214,-0.7728,-0.905,-1.1748,-1.1603,-1.2062,-1.3725,-1.3907,-1.3925,-1.3916,-1.3967,-1.3974,-1.3984,-1.4406,-1.4393,-1.3977,0.0,0.0,-1.7341,-1.9267,-2.0016,-1.9815,-2.0376,-2.033,-1.9942,-2.0411,-2.1346,-2.2547,-2.2697,-2.361,-2.4838,-2.4607,-2.4206,-2.3722,-2.3192,-2.2725,-2.2555,-2.3578,-2.4039,-2.4416,-2.5503,-2.5785,0.0,-2.5865,-2.5725,-2.557,-2.5697,-2.5725,-2.5725,-2.5725,-2.5918,-2.5941,-2.5462,-2.4973,-2.4437,-2.396,-2.3345,-2.2888,-2.2888,-2.2888,-2.2888,-2.2888,-2.2888,-2.2888,-2.2888,-2.2888,-2.2947,-2.306,-2.306,-2.2425,-2.0819,-2.0833,-2.0263,-1.8715,-1.9051,-1.9104,-1.863,-1.8917,-1.8898,-1.8461,-1.8831,-1.8979,-1.887,-1.8822,-1.8683,-1.8496,-1.8502,-1.8491,0.0,0.0,0.0,0.0,0.0,0.0,0.0,0.0,0.0,0.0,0.0,-0.0795,0.0,0.0,-0.1232,-0.1392,-0.1777,-0.223,-0.2616,-0.3195,-0.364,-0.3935,-0.462,-0.5615,-0.7035,-0.7246,-0.8553,-1.1414,-1.1417,-1.2055,-1.373,-1.4082,-1.4157,-1.3922,-1.4006,-1.4094,-1.4105,-1.4447,-1.4471,-1.4231,-1.6087,-1.6913,-1.6883,-1.9109,-1.9758,-1.9209,-2.0383,-2.0529,-1.9942,-2.0411,-2.1318,-2.2435,-2.2835,-2.3938,-2.5216,-2.4434,-2.4145,-2.4001,-2.2943,-2.2582,-2.2756,-2.3629,-2.3735,-2.3844,-2.5346,-2.5652,-2.5508,-2.5811,-2.5893,-2.5893,-2.5893,-2.5893,-2.5809,-2.5514,-2.583,-2.6062,-2.5514,-2.5293,-2.505,-2.45,-2.4085,-2.3766,-2.3447,-2.3389,-2.3287,-2.2946,-2.2888,-2.2888,-2.2888,-2.2888,-2.2925,-2.2992,-2.2797,-2.2169,-2.0995,-2.0132,-1.9433,-1.8927,-1.8839,-1.8803,-1.8803,-1.8803,-1.8745,-1.8644,-1.8644,-1.8697,-1.8803,-1.8731,-1.8639,-1.85,-1.85,-1.8509,0.0,0.0,0.0,0.0,0.0,0.0,0.0,0.0,-0.0979,-0.1065,-0.0994,-0.1051,-0.1346,-0.1375,-0.1446,-0.157,-0.2077,-0.254,-0.2856,-0.3699,-0.4419,-0.4627,-0.4848,-0.5435,-0.6609,-0.6735,-0.7986,-1.0949,-1.1214,-1.2045,-1.3752,-1.4325,-1.4384,-1.3922,-1.4098,-1.4195,-1.4242,-1.4403,-1.4503,-1.4537,-1.5805,-1.6367,-1.6404,-1.8753,-1.935,-1.8604,-2.0306,-2.0714,-2.0183,-2.0479,-2.1088,-2.188,-2.2697,-2.3841,-2.4968,-2.422,-2.4109,-2.4181,-2.2811,-2.2558,-2.2942,-2.3522,-2.3442,-2.3398,-2.4962,-2.5148,-2.4907,-2.5398,-2.5605,-2.5729,-2.5729,-2.5727,-2.5584,-2.5133,-2.5546,-2.5905,-2.546,-2.5552,-2.5571,-2.5094,-2.4862,-2.4626,-2.4119,-2.3947,-2.3726,-2.3337,-2.3047,-2.2923,-2.2948,-2.2824,-2.2729,-2.2623,-2.2263,-2.1741,-2.1,-1.9562,-1.8886,-1.9287,-1.9006,-1.8903,-1.908,-1.8858,-1.8758,-1.8807,-1.8528,-1.847,-1.8653,-1.8653,-1.8615,-1.8498,-1.8498,-1.8498,0.156,0.0983,0.062,0.0387,-0.0035,-0.0541,0.0,0.0,-0.1287,-0.1325,-0.1371,-0.1455,-0.1468,-0.1564,-0.1654,-0.1689,-0.1803,-0.2239,-0.3363,-0.3643,-0.4067,-0.4994,-0.5866,-0.6451,-0.6705,-0.6725,-0.8041,-1.1226,-1.083,-1.1512,-1.4013,-1.442,-1.4384,-1.3922,-1.3927,-1.3932,-1.3936,-1.4159,-1.4238,-1.4272,-1.5984,-1.6661,-1.6485,-1.9052,-1.9721,-1.8918,-1.9937,-2.0651,-2.1043,-2.0732,-2.1088,-2.188,-2.2697,-2.35,-2.4231,-2.4362,-2.4194,-2.3794,-2.3144,-2.263,-2.2385,-2.2918,-2.3114,-2.3218,-2.3901,-2.4116,-2.4121,-2.4195,-2.4624,-2.509,-2.509,-2.5107,-2.5091,-2.5021,-2.5089,-2.517,-2.5204,-2.5346,-2.5409,-2.5377,-2.4952,-2.4609,-2.4537,-2.4088,-2.3909,-2.451,-2.3612,-2.2953,-2.3073,-2.2616,-2.21,-2.1623,-2.1513,-2.1066,-2.0038,-1.9242,-1.8965,-1.9355,-1.9718,-1.9683,-1.9121,-1.9405,-1.9103,-1.8121,-1.8484,-1.8615,-1.8517,-1.8517,-1.8517,-1.8498,-1.8498,-1.8498,0.2267,0.1311,0.0,0.0,-0.0038,-0.0881,-0.0913,-0.1143,-0.1373,-0.1482,-0.1516,-0.1539,-0.1557,-0.1616,-0.1828,0.0,-0.2555,-0.3092,-0.3918,-0.4269,-0.4577,-0.4918,-0.527,-0.5577,-0.5739,-0.5923,-0.7196,-1.0035,-1.0136,-1.1218,-1.3635,-1.4142,-1.4225,-1.3922,-1.3897,-1.407,-1.4353,-1.4096,-1.4302,-1.4956,-1.554,-1.5875,-1.6143,-1.8378,-1.9828,-2.0585,-2.0882,-2.1078,-2.12,-2.1309,-2.1263,-2.1262,-2.2761,-2.3374,-2.3543,-2.4248,-2.4578,-2.4542,-2.3758,-2.3324,-2.318,-2.3396,-2.305,-2.2751,-2.3636,-2.3692,-2.3551,-2.3904,-2.4208,-2.4509,-2.4907,-2.4983,-2.5011,-2.5012,-2.5046,-2.5037,-2.4731,-2.4776,-2.4751,-2.4367,-2.4475,-2.4541,-2.4182,-2.3995,-2.4105,-2.481,-2.3807,-2.2987,-2.3034,-2.283,-2.2478,-2.198,-2.1534,-2.0989,-2.0271,-1.9257,-1.8861,-1.9264,-1.9183,-1.911,-1.9091,-1.8707,-1.8482,-1.8481,-1.8085,-1.8082,-1.8498,-1.8498,-1.8498,-1.8498,-1.8498,-1.8498,0.265,0.0,0.0,0.0947,-0.0042,-0.1093,-0.0912,-0.1156,-0.1504,-0.157,-0.1577,-0.1627,-0.175,-0.1832,-0.2069,-0.262,-0.3168,-0.3708,-0.4177,-0.4612,-0.4831,-0.4806,-0.4808,-0.4872,-0.5045,-0.5609,-0.6909,-0.92,-1.0044,-1.1407,-1.3479,-1.3958,-1.4111,-1.3922,-1.3897,-1.4143,-1.4671,-1.4254,-1.4527,-1.5469,-1.5318,-1.5384,-1.5752,-1.7766,-1.9942,-2.2045,-2.1588,-2.1409,-2.1416,-2.1494,-2.1182,-2.078,-2.2454,-2.3064,-2.3088,-2.3898,-2.4585,-2.4963,-2.4107,-2.371,-2.3553,-2.3421,-2.2811,-2.2351,-2.3195,-2.3164,-2.295,-2.3399,-2.3508,-2.368,-2.4297,-2.4368,-2.4283,-2.4449,-2.4545,-2.4501,-2.4068,-2.421,-2.4264,-2.3727,-2.4148,-2.4463,-2.4006,-2.387,-2.4003,-2.4515,-2.3652,-2.2946,-2.2991,-2.2697,-2.2309,-2.1979,-2.1458,-2.1013,-2.0685,-1.9658,-1.9218,-1.9623,-1.9139,-1.8984,-1.9249,-1.8705,-1.8504,-1.8744,-1.8185,-1.8072,-1.8498,-1.8498,-1.8498,-1.8498,-1.8498,-1.8498,0.238,0.0,0.1091,0.0696,-0.0045,-0.0886,-0.1456,-0.159,-0.1612,-0.1615,-0.1592,-0.1718,-0.2208,-0.2342,-0.2526,-0.3033,-0.3329,-0.364,-0.4114,-0.4208,-0.436,-0.4754,-0.4954,-0.5059,0.0,-0.6161,-0.769,-0.9442,-1.0924,-1.2367,-1.3714,-1.4047,-1.4111,-1.3922,-1.3897,-1.4145,-1.4583,-1.4638,-1.4909,-1.5411,-1.5678,-1.5665,-1.549,-1.7474,-2.0018,-2.2707,-2.1673,-2.1444,-2.1797,-2.0997,-2.0625,-2.0683,-2.152,-2.2333,-2.304,-2.3332,-2.3897,-2.4436,-2.3986,-2.3469,-2.2951,-2.2402,-2.2221,-2.2197,-2.224,-2.2228,-2.2216,-2.2247,-2.229,-2.2468,-2.3009,-2.2773,-2.2505,-2.3041,-2.3156,-2.3169,-2.3143,-2.3756,-2.425,-2.4037,-2.415,-2.4308,-2.4295,-2.3745,-2.3378,-2.3594,-2.31,-2.278,-2.2969,-2.1867,-2.1059,-2.1031,-2.1018,-2.1006,-2.0978,-2.0462,-2.032,-2.0724,-2.0244,-1.9875,-1.9688,-2.0147,-1.9827,-1.8644,-1.9079,-1.9047,-1.8498,-1.8498,-1.8498,-1.8498,-1.8498,-1.8498,0.2458,0.0,0.0703,0.06,-0.0335,-0.133,-0.1547,-0.1609,-0.1605,-0.1565,-0.1532,-0.1639,-0.1959,-0.2167,-0.2546,-0.3433,-0.3729,-0.4052,-0.465,-0.4864,-0.4982,-0.4928,-0.5222,0.0,0.0,0.0,0.0,-0.9076,-1.0395,-1.177,-1.3258,-1.3584,-1.38,-1.3914,-1.4052,-1.4425,-1.4937,-1.4746,-1.4969,-1.5685,-1.5785,-1.6511,-1.7865,-1.8733,-2.0482,-2.2755,-2.2265,-2.2002,-2.1865,-2.1562,-2.1134,-2.0712,-2.1769,-2.2001,-2.1871,-2.2983,-2.3352,-2.3346,-2.3687,-2.3457,-2.2987,-2.2775,-2.2474,-2.2197,-2.2197,-2.2197,-2.2197,-2.2197,-2.2237,-2.2273,-2.251,-2.271,-2.2892,-2.3098,-2.3116,-2.3107,-2.3107,-2.3004,-2.2896,-2.2823,-2.2944,-2.3035,-2.3035,-2.2944,-2.2927,-2.2987,-2.283,-2.2725,-2.2797,-2.2414,-2.2137,-2.2137,-2.1687,-2.1409,-2.1409,-2.0495,-1.9989,-2.0125,-1.9638,-1.9322,-1.9241,-1.9419,-1.9253,-1.8736,-1.8911,-1.8851,-1.8498,-1.8498,-1.8498,-1.8498,-1.8498,-1.8498,0.2086,0.1251,0.0333,0.0246,-0.0701,-0.1617,-0.1617,-0.1592,-0.1551,-0.149,-0.1535,-0.1663,-0.2027,-0.2277,-0.2756,-0.3709,-0.3986,-0.4322,-0.5002,-0.5231,-0.5338,-0.5312,-0.5574,-0.5735,0.0,0.0,0.0,-0.8944,-1.0619,-1.2081,-1.3166,-1.3609,-1.3866,-1.4023,-1.4382,-1.4762,-1.5083,-1.4993,-1.5219,-1.5784,-1.5784,-1.6796,-1.8634,-1.9039,-2.025,-2.2036,-2.2042,-2.1904,-2.1641,-2.1484,-2.1114,-2.0673,-2.1448,-2.1581,-2.1428,-2.207,-2.228,-2.24,-2.3235,-2.33,-2.2987,-2.2794,-2.2474,-2.2197,-2.2197,-2.2197,-2.2197,-2.2197,-2.2053,-2.1964,-2.2191,-2.2372,-2.2536,-2.2786,-2.2819,-2.2781,-2.2781,-2.2469,-2.2197,-2.2197,-2.2278,-2.2328,-2.2328,-2.2432,-2.2525,-2.2525,-2.2525,-2.2537,-2.2586,-2.2555,-2.2525,-2.2525,-2.2098,-2.1819,-2.1819,-2.0921,-2.0302,-2.0097,-1.9591,-1.9191,-1.8999,-1.9192,-1.9042,-1.8554,-1.8724,-1.8648,-1.8254,-1.8109,-1.8095,-1.8254,-1.8254,-1.8155,0.1264,0.0631,-0.005,-0.0421,-0.1091,-0.1618,-0.1613,-0.1541,-0.1458,-0.1437,-0.1582,-0.1842,-0.2386,0.0,-0.3174,-0.3906,-0.4156,-0.4482,-0.5151,-0.5259,-0.5433,0.0,0.0,0.0,0.0,0.0,0.0,-0.9076,0.0,-1.3248,-1.3524,-1.4049,-1.4325,-1.4342,-1.4857,-1.5119,-1.5108,-1.5363,-1.5588,-1.5784,-1.5784,-1.648,-1.7723,-1.8451,-1.9526,-2.0757,-2.105,-2.121,-2.119,-2.0762,-2.0635,-2.0664,-2.0625,-2.1039,-2.1583,-2.0659,-2.0748,-2.1512,-2.2491,-2.2867,-2.2827,-2.2354,-2.2197,-2.2197,-2.2197,-2.2197,-2.2197,-2.2197,-2.1825,-2.1548,-2.2029,-2.1801,-2.156,-2.2041,-2.2197,-2.2221,-2.2197,-2.2209,-2.2221,-2.2197,-2.2197,-2.2197,-2.2197,-2.2197,-2.2197,-2.2197,-2.2197,-2.2247,-2.2359,-2.2278,-2.2197,-2.2197,-2.2197,-2.2197,-2.2197,-2.1716,-2.1163,-2.0627,-2.0097,-1.9567,-1.9011,-1.9526,-1.9259,-1.8108,-1.8647,-1.8561,-1.7767,-1.7412,-1.7432,-1.7767,-1.7767,-1.7557,-0.0588,-0.0821,-0.1013,-0.1081,-0.1375,-0.1633,-0.1565,-0.1478,-0.1469,-0.1599,-0.1625,-0.1808,-0.2463,0.0,0.0,-0.4183,-0.4612,0.0,-0.5555,-0.5884,0.0,-0.627,0.0,-0.6671,-0.6489,-0.851,0.0,0.0,-1.188,-1.3451,-1.4061,-1.44,-1.4716,-1.4909,-1.5208,-1.5409,-1.5395,-1.561,-1.5737,-1.5784,-1.5784,-1.6567,-1.794,-1.8587,-1.9667,-2.101,-2.1141,-2.1416,-2.166,-2.0928,-2.0997,-2.1484,-2.086,-2.0515,-2.0377,-2.0318,-2.0035,-1.9735,-2.0555,-2.117,-2.1669,-2.2066,-2.2197,-2.2197,-2.2197,-2.2197,-2.2197,-2.2197,-2.2101,-2.1933,-2.1668,-2.1801,-2.1921,-2.1668,-2.2209,-2.2678,-2.2282,-2.2498,-2.2666,-2.227,-2.2197,-2.2197,-2.2197,-2.2197,-2.2197,-2.2197,-2.2197,-2.2228,-2.2247,-2.2216,-2.2197,-2.2197,-2.2197,-2.2197,-2.2197,-2.1716,-2.1175,-2.0634,-2.0081,-1.9567,-1.9011,-1.9526,-1.9259,-1.8108,-1.9023,-1.879,-1.7352,-1.7651,-1.7638,-1.7352,-1.7256,-1.7152,-0.186,-0.1932,-0.2039,-0.2242,-0.2315,-0.2246,-0.2071,-0.1917,-0.1796,-0.1772,-0.1848,0.0,-0.2468,-0.2959,0.0,0.0,0.0,0.0,-0.5778,-0.6106,-0.6406,0.0,-0.6961,0.0,-0.6866,-0.8874,-1.0245,0.0,-1.248,-1.3909,-1.4442,-1.4821,-1.509,-1.5119,-1.5463,-1.5658,-1.5651,-1.5721,-1.5784,-1.5784,-1.5927,-1.6393,-1.725,-1.8292,-1.9201,-2.005,0.0,-2.1084,-2.131,-2.0811,-2.0899,-2.129,-2.0801,-2.0458,-2.0203,-1.9932,-1.9646,-1.9409,-1.9552,-1.9997,-2.0632,-2.1438,-2.1925,-2.2197,-2.2197,-2.2197,-2.2197,-2.2197,-2.2197,-2.2125,-2.1825,-2.1969,-2.2113,-2.1825,-2.2197,-2.2558,-2.2258,-2.2426,-2.2546,-2.2246,-2.2378,-2.2534,-2.2534,-2.2534,-2.2534,-2.2534,-2.2342,-2.2197,-2.2197,-2.2197,-2.2197,-2.2197,-2.2197,-2.2197,-2.2197,-2.1921,-2.1428,-2.0658,-2.0322,-1.9805,-1.9023,-1.9303,-1.9054,-1.8154,-1.8734,-1.8572,-1.7593,-1.7688,-1.7548,-1.7144,-1.7088,-1.6797,-0.294,-0.2995,-0.3069,-0.3521,-0.3368,-0.303,-0.2752,-0.2483,-0.221,-0.1988,0.0,-0.2363,-0.2526,-0.3007,-0.3531,-0.4001,0.0,-0.4976,-0.5952,-0.6153,-0.6432,-0.71,-0.721,-0.721,-0.721,-0.9124,-1.0613,-1.1093,-1.3171,-1.4552,-1.4728,-1.5252,-1.5398,-1.5172,-1.5601,-1.5845,-1.5791,-1.5784,-1.5784,-1.5784,-1.6028,-1.617,-1.6292,-1.7747,-1.8501,-1.8717,-1.9913,0.0,-2.0693,-2.0625,-2.0703,-2.085,-2.0742,-2.0693,-2.0586,-1.9687,-1.957,-1.9723,-1.9099,-1.9243,-1.986,-2.0705,-2.1463,-2.2061,-2.2061,-2.2123,-2.2197,-2.2197,-2.2197,-2.2197,-2.2197,-2.2197,-2.2197,-2.2197,-2.2246,-2.2282,-2.2209,-2.2197,-2.2197,-2.2197,-2.257,-2.2871,-2.2871,-2.2871,-2.2871,-2.2871,-2.2486,-2.2197,-2.2197,-2.2197,-2.2197,-2.2197,-2.2197,-2.2197,-2.2197,-2.2197,-2.174,-2.0682,-2.0682,-2.0201,-1.9035,-1.9059,-1.8806,-1.8192,-1.824,-1.8163,-1.7953,-1.7557,-1.7255,-1.7071,-1.6936,-1.6395,-0.4961,-0.4629,-0.4196,-0.4296,-0.3677,-0.2957,-0.2687,-0.2375,0.0,0.0,-0.2322,-0.2481,-0.2848,-0.3364,0.0,-0.4484,0.0,0.0,0.0,0.0,-0.6678,0.0,0.0,0.0,0.0,0.0,0.0,0.0,0.0,-1.5211,-1.5036,-1.5332,-1.5478,-1.5437,-1.5517,-1.5651,-1.5784,-1.5784,-1.5784,-1.5784,-1.5832,-1.6116,-1.6567,-1.6996,-1.7818,-1.8956,-1.9358,0.0,-2.1094,-2.0752,-2.1201,-2.2109,-2.1396,-2.1123,-2.0976,-2.0127,-1.9629,-1.9304,-1.8459,-1.8855,-1.9757,-2.0161,-2.0741,-2.1293,-2.1293,-2.1726,-2.2197,-2.2197,-2.2197,-2.2197,-2.2197,-2.2197,-2.2197,-2.2197,-2.2522,-2.2758,-2.2294,-2.2197,-2.2197,-2.2197,-2.227,-2.233,-2.233,-2.233,-2.233,-2.233,-2.2246,-2.2197,-2.2197,-2.2197,-2.2197,-2.2197,-2.2197,-2.2197,-2.2197,-2.2197,-2.174,-2.0682,-2.1031,-2.0586,-1.9047,-1.9435,-1.9138,-1.8063,-1.8467,-1.8205,-1.718,-1.7118,-1.7047,-1.7002,-1.6055,-1.5752,-0.5473,-0.5248,-0.497,-0.4886,-0.4289,-0.3662,-0.3323,0.0,0.0,0.0,-0.2756,-0.2851,-0.3145,0.0,0.0,0.0,0.0,0.0,0.0,0.0,0.0,0.0,0.0,0.0,0.0,0.0,0.0,0.0,0.0,-1.5423,-1.5294,-1.5439,-1.5512,-1.5509,-1.5496,-1.5588,-1.5784,-1.5784,-1.5784,-1.5784,-1.5927,-1.6211,-1.6608,-1.6959,-1.7529,-1.8364,-1.9034,0.0,-2.0245,-2.0701,-2.1279,-2.1736,-2.1143,-2.0889,-2.0781,-1.9912,-1.96,-1.9492,-1.8598,-1.8824,-1.946,-1.9113,-1.9865,-2.0905,-2.1044,-2.1522,-2.2016,-2.2176,-2.2197,-2.2197,-2.2197,-2.2197,-2.2197,-2.2197,-2.239,-2.2498,-2.2246,-2.2197,-2.2197,-2.2197,-2.2414,-2.2606,-2.2606,-2.2606,-2.2563,-2.2468,-2.2209,-2.203,-2.1949,-2.1949,-2.2011,-2.2185,-2.2197,-2.2197,-2.2197,-2.2197,-2.1861,-2.1079,-2.0936,-2.0428,-1.9347,-1.9221,-1.889,-1.8312,-1.8549,-1.8404,-1.7819,-1.7819,-1.7664,-1.7282,-1.6463,-1.6055,-0.5457,-0.548,-0.5443,-0.5229,-0.4772,-0.4293,-0.3943,-0.3542,0.0,0.0,-0.3153,-0.3227,-0.3418,0.0,0.0,0.0,0.0,0.0,0.0,0.0,0.0,0.0,0.0,0.0,0.0,0.0,0.0,0.0,0.0,0.0,-1.5423,-1.5369,-1.5326,-1.5414,-1.5473,-1.5588,-1.5784,-1.5784,-1.5784,-1.5784,-1.6028,-1.6231,-1.6509,-1.6802,-1.7149,-1.7569,-1.8465,0.0,0.0,-2.0569,-2.1107,-2.1161,-2.084,-2.0693,-2.0507,-1.9707,-1.9629,-1.9795,-1.89,-1.8822,-1.9023,-1.8262,-1.9128,-2.0506,-2.0629,-2.1091,-2.1581,-2.1709,-2.1862,-2.1956,-2.1956,-2.2092,-2.2197,-2.2197,-2.2197,-2.2197,-2.2197,-2.2282,-2.233,-2.2209,-2.2618,-2.2943,-2.2803,-2.2747,-2.2703,-2.2511,-2.2135,-2.1812,-2.1698,-2.1698,-2.1792,-2.2073,-2.2104,-2.2104,-2.2104,-2.2104,-2.1865,-2.1338,-2.0789,-2.0208,-1.9551,-1.9042,-1.8704,-1.8572,-1.856,-1.8545,-1.8479,-1.8401,-1.811,-1.7699,-1.6935,-1.64,-0.5369,-0.5394,-0.5369,-0.5215,-0.4773,-0.426,-0.4048,0.0,0.0,-0.3286,-0.3331,-0.3425,-0.3543,-0.3808,-0.4084,0.0,0.0,-0.5048,0.0,0.0,0.0,0.0,0.0,0.0,0.0,0.0,0.0,0.0,0.0,0.0,-1.5146,-1.4918,-1.49,-1.5121,-1.5369,-1.5588,-1.5784,-1.5784,-1.5784,-1.5784,-1.5825,-1.5973,-1.6155,-1.5901,-1.6199,-1.6997,-1.7257,0.0,0.0,-2.0232,-2.0784,-2.119,-2.1151,-2.0918,-2.0546,-2.0029,-1.9883,-1.9795,-1.89,-1.8627,-1.8588,-1.812,-1.8797,-1.9713,-1.9312,-1.9959,-2.073,-2.0401,-2.0741,-2.1198,-2.1198,-2.1694,-2.2197,-2.2197,-2.2197,-2.2197,-2.2197,-2.257,-2.2763,-2.2282,-2.2618,-2.2803,-2.2123,-2.1996,-2.1945,-2.18,-2.1765,-2.1698,-2.1698,-2.1698,-2.1698,-2.173,-2.1761,-2.1761,-2.1761,-2.1761,-2.1525,-2.0983,-2.09,-2.0399,-1.9383,-1.9324,-1.9049,-1.8433,-1.8422,-1.834,-1.8139,-1.7721,-1.7683,-1.8008,-1.6625,-1.6177,-0.523,-0.5447,-0.5633,-0.5482,-0.5062,-0.4655,-0.4401,0.0,-0.3518,-0.3629,-0.3653,-0.3706,-0.3861,-0.3995,-0.4123,-0.435,-0.4526,0.0,0.0,0.0,0.0,0.0,0.0,0.0,0.0,0.0,0.0,0.0,0.0,0.0,-1.5065,-1.5151,-1.5158,-1.5089,-1.5499,-1.5737,-1.5784,-1.5784,-1.5784,-1.5784,-1.5784,-1.5819,-1.5904,-1.5727,-1.5859,-1.6213,-1.673,0.0,0.0,-1.9471,-2.017,-2.0801,-2.0547,-2.0176,-1.9775,-1.96,-1.9375,-1.9056,-1.8715,-1.8598,-1.8529,-1.8144,-1.8463,-1.9033,-1.9021,-1.9523,-2.0101,-2.0107,-2.0291,-2.0484,-2.0484,-2.1008,-2.1526,-2.1526,-2.1894,-2.2154,-2.2061,-2.2197,-2.2249,-2.1953,-2.2052,-2.2123,-2.1828,-2.1781,-2.1718,-2.1549,-2.1506,-2.1486,-2.1391,-2.1391,-2.1391,-2.1391,-2.1561,-2.1698,-2.1698,-2.1698,-2.1604,-2.1393,-2.0691,-2.0106,-1.9697,-1.9006,-1.8494,-1.8232,-1.8232,-1.8177,-1.8084,-1.7917,-1.7917,-1.8088,-1.7197,-1.6727,-0.4969,-0.5363,-0.5671,-0.5516,-0.522,-0.4884,0.0,0.0,-0.3768,-0.3937,-0.3918,-0.3956,-0.4134,-0.4202,-0.4299,-0.4431,-0.4569,-0.4853,0.0,0.0,0.0,0.0,0.0,0.0,0.0,0.0,0.0,0.0,0.0,0.0,0.0,-1.5022,-1.5335,-1.5226,-1.5594,-1.5784,-1.5784,-1.5745,-1.5705,-1.5698,-1.5611,-1.561,-1.565,-1.5597,-1.5562,-1.548,-1.6066,0.0,0.0,-1.8586,-1.9335,-1.9899,-1.9905,-1.958,-1.9111,-1.9238,-1.9014,-1.8617,-1.8682,-1.8556,-1.8294,-1.7968,-1.8065,-1.8373,-1.8658,-1.9035,-1.9393,-1.9446,-1.9606,-1.9835,-2.0031,-2.0549,-2.104,-2.104,-2.1569,-2.1999,-2.1874,-2.1961,-2.1989,-2.1765,-2.1827,-2.1875,-2.1647,-2.1753,-2.1736,-2.1391,-2.1464,-2.1446,-2.1244,-2.119,-2.119,-2.119,-2.1391,-2.1561,-2.1561,-2.1561,-2.1561,-2.1561,-2.0482,-1.9854,-1.9854,-1.8718,-1.8084,-1.8084,-1.8084,-1.8084,-1.8084,-1.8084,-1.8084,-1.81,-1.7611,-1.7186,-0.4602,-0.4973,-0.5371,-0.5221,-0.5018,-0.478,0.0,-0.4192,-0.3857,-0.4051,-0.4083,-0.4151,-0.4276,-0.4461,-0.4592,-0.4592,-0.4728,0.0,0.0,0.0,0.0,0.0,0.0,0.0,0.0,0.0,0.0,0.0,0.0,0.0,0.0,-1.425,-1.5226,-1.5493,-1.5689,-1.5784,-1.5784,-1.5545,-1.5398,-1.5398,-1.5156,-1.5111,-1.5328,-1.5284,-1.5164,0.0,0.0,0.0,0.0,-1.7714,-1.8285,-1.8341,-1.9447,-1.9358,-1.8656,-1.9131,-1.9014,-1.863,-1.8887,-1.8437,-1.7681,-1.7529,-1.7588,-1.7758,-1.8014,-1.835,-1.851,-1.8125,-1.8496,-1.9177,-1.9901,-2.0495,-2.0903,-2.0903,-2.1296,-2.1698,-2.1698,-2.213,-2.2342,-2.1804,-2.2121,-2.2254,-2.1513,-2.1829,-2.1983,-2.1302,-2.1594,-2.1732,-2.1259,-2.119,-2.119,-2.119,-2.119,-2.1201,-2.1201,-2.1201,-2.1201,-2.1201,-2.027,-1.9688,-1.9688,-1.8662,-1.8084,-1.8084,-1.8084,-1.8084,-1.8084,-1.8084,-1.8084,-1.81,-1.7611,-1.7407,-0.4577,-0.4891,-0.5192,-0.5158,-0.5034,-0.4895,-0.4783,-0.4348,-0.4043,-0.4194,-0.4275,-0.435,-0.4472,-0.4628,-0.4794,-0.4924,-0.499,-0.5089,0.0,0.0,0.0,0.0,0.0,0.0,0.0,0.0,0.0,0.0,0.0,0.0,0.0,-1.3463,-1.4196,-1.5172,-1.5594,-1.5684,-1.5538,-1.5444,-1.5297,-1.5149,-1.5055,-1.4901,-1.4751,-1.4751,-1.4589,0.0,0.0,0.0,0.0,-1.5662,-1.643,-1.757,-1.8267,-1.8288,-1.8099,-1.8978,-1.8686,-1.789,-1.8347,-1.8282,-1.7995,-1.8228,-1.8358,-1.8413,-1.8483,-1.8247,-1.7923,-1.7705,-1.8006,-1.8394,-1.8339,-1.9002,-1.9721,-1.9976,-2.0484,-2.104,-2.1411,-2.1634,-2.1777,-2.1814,-2.1955,-2.2116,-2.2268,-2.2429,-2.2453,-2.2259,-2.2042,-2.1837,-2.1709,-2.1408,-2.119,-2.119,-2.119,-2.119,-2.119,-2.119,-2.119,-2.119,-2.0549,-2.0182,-2.0182,-1.9551,-1.9034,-1.8655,-1.8655,-1.8455,-1.8084,-1.8084,-1.8084,-1.81,-1.7611,-1.7407,0.0,-0.4712,-0.4992,-0.4992,-0.4943,0.0,0.0,-0.4393,-0.4051,-0.4205,-0.4233,-0.4264,-0.4435,-0.4587,-0.4784,-0.498,-0.512,0.0,0.0,0.0,0.0,0.0,0.0,0.0,0.0,0.0,0.0,0.0,0.0,0.0,0.0,-1.25,-1.3386,-1.4302,-1.51,-1.5485,-1.5398,-1.5177,-1.4977,-1.4796,-1.4727,-1.4536,-1.4355,-1.4355,-1.4195,0.0,0.0,0.0,0.0,-1.4448,-1.5054,-1.6095,-1.7141,-1.7413,-1.7301,-1.8423,-1.8356,-1.7789,-1.8207,-1.8277,-1.8252,-1.8414,-1.8564,-1.8704,-1.8619,-1.8228,-1.7856,-1.7931,-1.801,-1.8055,-1.7799,-1.8348,-1.9008,-1.907,-1.9562,-2.0074,-2.0409,-2.0505,-2.0573,-2.0764,-2.1174,-2.1642,-2.1947,-2.2411,-2.2719,-2.2719,-2.2249,-2.1894,-2.1894,-2.1479,-2.119,-2.119,-2.119,-2.119,-2.119,-2.119,-2.119,-2.119,-2.0687,-2.0412,-2.0412,-1.9757,-1.9229,-1.8896,-1.8701,-1.8432,-1.8084,-1.8084,-1.8084,-1.8084,-1.779,-1.7668,0.0,-0.4498,0.0,0.0,0.0,0.0,-0.4662,-0.4276,0.0,-0.4094,-0.402,-0.4,-0.4225,-0.4449,-0.4693,-0.49,0.0,0.0,0.0,0.0,0.0,0.0,0.0,0.0,0.0,0.0,0.0,0.0,0.0,0.0,0.0,-1.1302,-1.2566,-1.304,-1.4217,-1.5002,-1.5331,-1.4796,-1.4509,-1.4482,-1.4195,-1.4055,-1.4055,-1.4008,-1.3841,0.0,0.0,0.0,0.0,-1.3901,-1.4132,-1.4181,-1.6084,-1.6617,-1.643,-1.7625,-1.8069,-1.8107,-1.8368,-1.8443,-1.8415,-1.8238,-1.8458,-1.8725,-1.8536,-1.8311,-1.8201,-1.8514,-1.8371,-1.8069,-1.8012,-1.8347,-1.8636,-1.8281,-1.8576,-1.8944,-1.8977,-1.9011,-1.9021,-1.9052,-2.0,-2.0872,-2.0972,-2.1924,-2.2708,-2.2777,-2.2329,-2.1951,-2.1951,-2.1502,-2.119,-2.119,-2.119,-2.119,-2.119,-2.119,-2.119,-2.119,-2.0722,-2.0469,-2.0469,-1.9516,-1.8988,-1.8954,-1.8387,-1.8084,-1.8084,-1.8084,-1.8084,-1.8084,-1.8084,-1.8084,-0.4267,0.0,-0.4404,-0.4404,-0.4412,-0.4384,0.0,-0.429,-0.4212,-0.4243,0.0,-0.4488,-0.469,-0.4858,-0.5041,0.0,0.0,0.0,0.0,0.0,0.0,0.0,0.0,0.0,0.0,0.0,0.0,0.0,0.0,0.0,0.0,-0.861,-1.0006,-1.2507,-1.2869,-1.3551,-1.4685,-1.4589,-1.4409,-1.4182,-1.3888,-1.3706,-1.3693,-1.3306,-1.3065,0.0,0.0,0.0,-1.2479,-1.2695,-1.3199,-1.3848,-1.4696,-1.5457,-1.6193,-1.7324,-1.7688,-1.774,-1.8574,-1.8758,-1.8661,-1.8926,-1.9091,-1.9146,-1.9093,-1.8857,-1.8471,-1.7934,-1.7953,-1.7944,-1.7352,-1.7478,-1.7847,-1.8008,-1.8138,-1.8365,-1.8877,-1.9011,-1.9114,-1.9523,-1.985,-2.0488,-2.1824,-2.2267,-2.2797,-2.3704,-2.3075,-2.2501,-2.2501,-2.1753,-2.119,-2.119,-2.119,-2.119,-2.119,-2.119,-2.119,-2.119,-2.1086,-2.1017,-2.1017,-2.0389,-1.9884,-1.9516,-1.8581,-1.8084,-1.8084,-1.8084,-1.8084,-1.8084,-1.8084,-1.8084,-0.43,-0.43,-0.4334,-0.4431,-0.4392,-0.4364,-0.4486,0.0,0.0,0.0,0.0,0.0,0.0,0.0,0.0,0.0,0.0,0.0,0.0,0.0,0.0,0.0,0.0,0.0,0.0,0.0,0.0,0.0,0.0,0.0,-0.7678,-0.7869,-0.8673,-1.0133,-1.0445,-1.1787,-1.4289,-1.4159,-1.3968,-1.3681,-1.348,-1.3367,-1.322,-1.2931,-1.271,0.0,0.0,0.0,-1.2305,-1.2305,-1.2592,-1.3112,-1.3726,-1.4433,-1.5186,-1.6547,-1.7091,-1.7347,-1.8485,-1.8782,-1.8779,-1.9173,-1.9182,-1.9063,-1.9246,-1.9026,-1.8623,-1.8174,-1.8054,-1.7981,-1.7339,-1.7339,-1.7501,-1.7502,-1.7501,-1.7604,-1.7978,-1.8046,-1.8105,-1.8409,-1.8928,-1.9594,-2.0546,-2.1129,-2.1894,-2.3167,-2.2464,-2.1879,-2.2149,-2.1306,-2.056,-2.0237,-2.0495,-2.07,-2.07,-2.0999,-2.119,-2.119,-2.0971,-2.0814,-2.0814,-2.0102,-1.9482,-1.8988,-1.8398,-1.8084,-1.8084,-1.8084,-1.8084,-1.8084,-1.8084,-1.8084,-0.4334,-0.4334,-0.4398,-0.4558,-0.4516,-0.4528,-0.4713,0.0,0.0,0.0,0.0,0.0,0.0,0.0,0.0,0.0,0.0,0.0,0.0,0.0,0.0,0.0,0.0,0.0,0.0,0.0,0.0,0.0,0.0,-0.7626,-0.7529,-0.7965,-0.8001,-0.7541,-0.7967,-0.9751,-1.2982,-1.3344,-1.3386,-1.3213,-1.3166,-1.3038,-1.2784,-1.2737,-1.2576,-1.2305,0.0,0.0,-1.2305,-1.2351,-1.2345,-1.2385,-1.3131,-1.3607,-1.4022,-1.5536,-1.6316,-1.6762,-1.8082,-1.859,-1.877,-1.91,-1.899,-1.8779,-1.9109,-1.9017,-1.8788,-1.8733,-1.8385,-1.7935,-1.7513,-1.7403,-1.7321,-1.6991,-1.6908,-1.6908,-1.6908,-1.6908,-1.6908,-1.6908,-1.7726,-1.8475,-1.8674,-1.951,-2.0584,-2.1919,-2.1235,-2.0744,-2.127,-2.0519,-1.9704,-1.9077,-1.9573,-1.9911,-1.9857,-2.0416,-2.0744,-2.0665,-2.0583,-2.0458,-2.0308,-1.939,-1.8655,-1.8123,-1.8084,-1.8084,-1.8084,-1.8057,-1.8041,-1.8041,-1.7975,-1.7975,-0.4464,-0.4431,-0.4558,-0.4592,-0.468,-0.4707,-0.4646,-0.4581,0.0,0.0,0.0,0.0,0.0,0.0,0.0,0.0,0.0,0.0,0.0,0.0,0.0,0.0,0.0,0.0,0.0,0.0,0.0,0.0,0.0,0.0,-0.721,-0.7261,-0.7262,-0.7188,-0.7368,-0.7646,-0.8017,-1.1335,-1.3067,-1.3206,-1.2985,-1.2831,-1.2777,-1.2522,-1.2345,-1.2305,0.0,-1.2305,-1.2318,-1.261,-1.2563,-1.2351,-1.2988,-1.3383,-1.3675,-1.4493,-1.5056,-1.5653,-1.7248,-1.8196,-1.8724,-1.8779,-1.876,-1.8724,-1.8779,-1.8999,-1.9146,-1.8806,-1.8174,-1.7495,-1.7101,-1.7,-1.6982,-1.6917,-1.6908,-1.6908,-1.6908,-1.6908,-1.6908,-1.6908,-1.7058,-1.7511,-1.852,-1.8848,-1.9379,-2.0623,-2.0317,-1.9978,-2.0051,-1.9534,-1.9144,-1.9011,-1.911,-1.9043,-1.87,-1.8764,-1.8691,-1.8341,-2.0066,-2.0707,-1.9838,-1.9218,-1.8655,-1.8123,-1.8084,-1.8084,-1.8084,-1.7865,-1.7767,-1.7767,-1.7479,-1.7329,-0.444,-0.4356,-0.4527,-0.4702,-0.4871,-0.4975,-0.5009,-0.4947,0.0,0.0,0.0,0.0,0.0,0.0,0.0,0.0,0.0,0.0,0.0,0.0,0.0,0.0,0.0,0.0,0.0,0.0,0.0,0.0,0.0,0.0,-0.6685,-0.6955,-0.6951,-0.6661,-0.6712,-0.6601,-0.6309,-0.837,-1.0207,-1.184,-1.1995,-1.2031,-1.2024,-1.1891,-1.1824,-1.1837,0.0,-1.2064,-1.2127,-1.2422,-1.2425,-1.2331,-1.2612,-1.2872,-1.3203,-1.3903,-1.5172,-1.6572,-1.7098,-1.7769,-1.8393,-1.8641,-1.8568,-1.844,-1.865,-1.8843,-1.8944,-1.876,-1.844,-1.8064,-1.766,-1.7559,-1.7504,-1.7284,-1.722,-1.7165,-1.6954,-1.6908,-1.6908,-1.6908,-1.6908,-1.7068,-1.7628,-1.7906,-1.8399,-1.9389,-1.9294,-1.9173,-1.9198,-1.8781,-1.8307,-1.791,-1.8031,-1.8067,-1.7888,-1.7996,-1.7885,-1.7437,-1.8394,-1.8632,-1.7894,-1.7557,-1.7262,-1.7017,-1.6905,-1.6972,-1.7234,-1.7123,-1.719,-1.7423,-1.7273,-1.719,-0.4442,-0.4326,-0.4507,-0.4775,0.0,-0.5137,-0.5308,-0.5243,0.0,0.0,0.0,0.0,0.0,0.0,0.0,0.0,0.0,0.0,0.0,0.0,0.0,0.0,0.0,0.0,0.0,0.0,0.0,0.0,0.0,0.0,-0.6333,-0.6687,-0.665,-0.6097,-0.6072,-0.5968,-0.5713,-0.5994,-0.7628,-1.0551,-1.0906,-1.1217,-1.1389,-1.1389,-1.1389,-1.1409,-1.1737,-1.1906,-1.1933,-1.2258,-1.2365,-1.2318,-1.2458,-1.265,-1.286,-1.3417,-1.4973,-1.6765,-1.6733,-1.7142,-1.7814,-1.8364,-1.8302,-1.8064,-1.8568,-1.8715,-1.8715,-1.8715,-1.8779,-1.8742,-1.8219,-1.8091,-1.7981,-1.7596,-1.7495,-1.7385,-1.6991,-1.6908,-1.6908,-1.6908,-1.6908,-1.6908,-1.6908,-1.7156,-1.7571,-1.8197,-1.8232,-1.8232,-1.8267,-1.7967,-1.7507,-1.684,-1.6982,-1.7069,-1.6834,-1.6913,-1.682,-1.6407,-1.6775,-1.685,-1.642,-1.6181,-1.6073,-1.6187,-1.6044,-1.6197,-1.6662,-1.6606,-1.6758,-1.7106,-1.7032,-1.7004,-0.4648,-0.4428,-0.458,-0.462,-0.4849,-0.5113,-0.5113,-0.525,0.0,-0.5113,0.0,0.0,0.0,0.0,0.0,0.0,0.0,0.0,0.0,0.0,0.0,0.0,0.0,0.0,0.0,0.0,0.0,0.0,0.0,0.0,-0.631,-0.6339,-0.6093,-0.5499,-0.548,-0.5467,-0.5428,-0.5443,-0.7031,-1.013,-1.0182,-1.0626,-1.1389,-1.1389,-1.1389,-1.1409,-1.1737,-1.1906,-1.1946,-1.2516,-1.2589,-1.2358,-1.2926,-1.2979,-1.2822,-1.286,-1.349,-1.4479,-1.5456,-1.6092,-1.6715,-1.7805,-1.788,-1.7688,-1.8476,-1.8715,-1.8715,-1.8715,-1.8971,-1.9081,-1.8283,-1.8091,-1.7981,-1.7596,-1.7495,-1.7385,-1.6991,-1.6908,-1.6908,-1.6908,-1.6908,-1.6908,-1.6908,-1.6927,-1.6945,-1.7014,-1.7014,-1.7014,-1.7014,-1.6987,-1.683,-1.6404,-1.6364,-1.6043,-1.5155,-1.4757,-1.445,-1.4234,-1.587,-1.6796,-1.6765,-1.6152,-1.6026,-1.6454,-1.6454,-1.6691,-1.7162,-1.6892,-1.6818,-1.6807,-1.6573,-1.6459,-0.5082,-0.4679,-0.4565,-0.4654,-0.489,0.0,0.0,-0.5426,-0.5494,-0.5304,-0.5233,0.0,0.0,0.0,0.0,0.0,0.0,0.0,0.0,0.0,0.0,0.0,0.0,0.0,0.0,0.0,0.0,0.0,0.0,0.0,0.0,-0.5749,-0.5627,-0.5422,-0.54,-0.5309,-0.5088,-0.5083,-0.5966,-0.7705,-0.8864,-0.9577,-0.9906,-1.0352,-1.0594,-1.0738,-1.1028,-1.132,-1.1623,-1.2067,-1.2275,-1.2325,-1.2559,-1.2572,-1.2509,-1.2509,-1.332,-1.4389,-1.38,-1.5168,-1.7178,-1.7077,-1.7432,-1.7944,-1.8219,-1.8687,-1.8987,-1.8615,-1.869,-1.8871,-1.8568,-1.8485,-1.8385,-1.7981,-1.7889,-1.777,-1.7358,-1.7477,-1.766,-1.766,-1.7449,-1.7266,-1.7266,-1.7064,-1.6826,-1.6578,-1.6752,-1.6817,-1.6569,-1.6762,-1.6718,-1.6224,-1.5626,-1.5007,-1.4398,-1.4189,-1.407,-1.401,-1.4676,-1.505,-1.505,-1.4751,-1.4638,-1.4815,-1.4688,-1.4864,-1.5342,-1.5235,-1.5332,-1.5623,-1.5507,-1.5459,-0.5381,-0.4847,-0.454,-0.4677,0.0,0.0,-0.5409,-0.5583,-0.5627,-0.5556,-0.5535,0.0,0.0,0.0,0.0,0.0,0.0,0.0,0.0,0.0,0.0,0.0,0.0,0.0,0.0,0.0,0.0,0.0,0.0,0.0,0.0,-0.5396,-0.5397,-0.5391,-0.5216,-0.502,-0.4766,-0.4762,-0.5124,-0.5812,-0.7324,-0.8316,-0.8828,-0.9361,-0.9794,-1.0134,-1.0471,-1.0809,-1.1153,-1.1535,-1.19,-1.2157,-1.2157,-1.2238,-1.2294,-1.2307,-1.2995,-1.3797,-1.29,-1.403,-1.5968,-1.651,-1.6911,-1.7284,-1.7893,-1.8314,-1.8439,-1.8053,-1.8156,-1.8314,-1.8168,-1.8308,-1.8421,-1.8018,-1.799,-1.7981,-1.7431,-1.7633,-1.7889,-1.7761,-1.7504,-1.7312,-1.7312,-1.6982,-1.6599,-1.6291,-1.6364,-1.6321,-1.5999,-1.619,-1.6175,-1.5668,-1.4894,-1.4294,-1.3967,-1.395,-1.392,-1.3851,-1.3851,-1.3881,-1.392,-1.3799,-1.3761,-1.392,-1.3791,-1.3941,-1.4419,-1.4419,-1.4597,-1.4893,-1.4893,-1.4981,-0.5533,-0.4911,-0.4528,0.0,0.0,0.0,-0.5484,-0.5698,-0.58,-0.58,0.0,0.0,0.0,0.0,0.0,0.0,0.0,0.0,0.0,0.0,0.0,0.0,0.0,0.0,0.0,0.0,0.0,0.0,0.0,0.0,0.0,-0.5392,-0.5392,-0.5388,-0.4823,-0.4509,-0.4509,-0.4509,-0.4634,-0.4914,-0.5631,-0.6828,-0.8392,-0.8678,-0.9107,-0.9709,-1.0257,-1.05,-1.0544,-1.1064,-1.1537,-1.1911,-1.1905,-1.2079,-1.2287,-1.2292,-1.2296,-1.2398,-1.2996,-1.2608,-1.2492,-1.6096,-1.6309,-1.5546,-1.7488,-1.753,-1.6918,-1.6963,-1.7265,-1.7479,-1.7016,-1.7468,-1.7972,-1.7596,-1.7816,-1.7862,-1.7092,-1.722,-1.7385,-1.6991,-1.6917,-1.6908,-1.6908,-1.6553,-1.6245,-1.6111,-1.5758,-1.5431,-1.5222,-1.5189,-1.503,-1.4653,-1.424,-1.395,-1.3799,-1.3799,-1.37,-1.3511,-1.3511,-1.3601,-1.3799,-1.3601,-1.3731,-1.4189,-1.4189,-1.4419,-1.4893,-1.4893,-1.4893,-1.4893,-1.4893,-1.5157,-0.6169,-0.561,0.0,-0.4793,0.0,0.0,0.0,-0.5645,0.0,0.0,0.0,0.0,0.0,0.0,0.0,0.0,0.0,0.0,0.0,0.0,0.0,0.0,0.0,0.0,0.0,0.0,0.0,0.0,0.0,0.0,0.0,-0.4762,-0.4777,-0.4762,-0.4608,-0.4497,-0.451,-0.451,-0.4539,-0.4627,-0.4851,-0.557,-0.6747,-0.793,-0.8603,-0.891,-0.9665,-1.0191,-1.0532,-1.0895,-1.1316,-1.1712,-1.1352,-1.1526,-1.2022,-1.1918,-1.2074,-1.2254,-1.1845,-1.1551,-1.1633,-1.3572,-1.4444,-1.4883,-1.5453,-1.6071,-1.6466,-1.6057,-1.6515,-1.697,-1.6474,-1.6563,-1.6911,-1.7216,-1.7316,-1.7334,-1.734,-1.7533,-1.7669,-1.7551,-1.7307,-1.7081,-1.6929,-1.6373,-1.5925,-1.5815,-1.5528,-1.5287,-1.5222,-1.5083,-1.4868,-1.4491,-1.3965,-1.3631,-1.3601,-1.3601,-1.3571,-1.3511,-1.3511,-1.3541,-1.3601,-1.3541,-1.3571,-1.3692,-1.3722,-1.3782,-1.3932,-1.3932,-1.3932,-1.3932,-1.3932,-1.3992,-0.6716,0.0,0.0,-0.5281,-0.5304,-0.5442,0.0,0.0,0.0,0.0,0.0,0.0,0.0,0.0,0.0,0.0,0.0,0.0,0.0,0.0,0.0,0.0,0.0,0.0,0.0,0.0,0.0,0.0,0.0,0.0,0.0,-0.4497,-0.4487,-0.4514,-0.451,-0.4495,-0.4491,-0.4491,-0.4491,-0.4491,-0.4491,-0.4808,-0.5436,-0.6789,-0.7715,-0.8326,-0.9253,-0.9888,-1.0286,-1.0448,-1.0731,-1.105,-1.0845,-1.0837,-1.0948,-1.1098,-1.1416,-1.1732,-1.1285,-1.1108,-1.1298,-1.2528,-1.3185,-1.3616,-1.4065,-1.4636,-1.5051,-1.4796,-1.5101,-1.5499,-1.5362,-1.5441,-1.5822,-1.6634,-1.6884,-1.6955,-1.7009,-1.7252,-1.7413,-1.7251,-1.6911,-1.6607,-1.6492,-1.5844,-1.5287,-1.5197,-1.4798,-1.4521,-1.4521,-1.4417,-1.4268,-1.4051,-1.3717,-1.3511,-1.3511,-1.3511,-1.3511,-1.3511,-1.3511,-1.3511,-1.3511,-1.3511,-1.3511,-1.3511,-1.3511,-1.3511,-1.3511,-1.3511,-1.3511,-1.3511,-1.3511,-1.3601,-0.7149,0.0,0.0,-0.5937,0.0,0.0,0.0,0.0,0.0,0.0,0.0,0.0,0.0,0.0,0.0,0.0,0.0,0.0,0.0,0.0,0.0,0.0,0.0,0.0,0.0,0.0,0.0,0.0,0.0,0.0,0.0,-0.4491,-0.4491,-0.4491,-0.4491,-0.4491,-0.4491,-0.4491,-0.4491,-0.4491,-0.4491,-0.4491,-0.4529,-0.5576,-0.6759,-0.8077,-0.9068,-0.9666,-0.9901,-0.9877,-0.9966,-1.0135,-1.0394,-1.01,-0.9604,-1.0077,-1.0542,-1.0964,-1.1006,-1.1004,-1.1187,-1.2281,-1.2258,-1.1982,-1.2992,-1.3163,-1.3089,-1.3381,-1.3527,-1.3641,-1.4084,-1.4436,-1.4909,-1.5931,-1.6493,-1.6687,-1.6342,-1.6599,-1.6776,-1.6342,-1.6058,-1.5801,-1.5765,-1.5104,-1.4528,-1.435,-1.3929,-1.3622,-1.3519,-1.3571,-1.3588,-1.3519,-1.3511,-1.3511,-1.3511,-1.3511,-1.3511,-1.3511,-1.3511,-1.3511,-1.3511,-1.3511,-1.3511,-1.3511,-1.3511,-1.3511,-1.3511,-1.3511,-1.3511,-1.3511,-1.3511,-1.3722,-0.7285,-0.6675,0.0,0.0,0.0,0.0,0.0,0.0,0.0,0.0,0.0,0.0,0.0,0.0,0.0,0.0,0.0,0.0,0.0,0.0,0.0,0.0,0.0,0.0,0.0,0.0,0.0,0.0,0.0,0.0,-0.4491,-0.4491,-0.4491,-0.4491,-0.4491,-0.4491,-0.4491,-0.4491,-0.4491,0.0,-0.4491,-0.4491,-0.4553,-0.5873,-0.7352,-0.8877,-0.9303,-0.9666,-0.9889,-0.9684,-0.9838,-1.0215,-0.988,-0.9825,-0.9962,-0.9729,-0.9742,-0.988,-1.0224,-1.0336,-1.0378,-1.0742,-1.0889,-1.0975,-1.0997,-1.167,-1.2565,-1.3034,-1.359,-1.4134,-1.4787,-1.5035,-1.5086,-1.505,-1.5532,-1.6017,-1.5935,-1.6122,-1.6272,-1.6149,-1.6062,-1.5878,-1.5402,-1.4979,-1.4437,-1.3795,-1.4324,-1.4521,-1.3622,-1.405,-1.4196,-1.3571,-1.3511,-1.3511,-1.3511,-1.3511,-1.3511,-1.3511,-1.3511,-1.3511,-1.3511,-1.3511,-1.3511,-1.3511,-1.3511,-1.3511,-1.3511,-1.3511,-1.3511,-1.3511,-1.3511,-1.3541,-0.7609,0.0,0.0,0.0,0.0,0.0,0.0,0.0,0.0,0.0,0.0,0.0,0.0,0.0,0.0,0.0,0.0,0.0,0.0,0.0,0.0,0.0,0.0,0.0,0.0,0.0,0.0,0.0,0.0,-0.4491,-0.4491,-0.4491,-0.4491,-0.4491,-0.4491,-0.4491,-0.4491,-0.4491,-0.4491,-0.4491,-0.4491,-0.4625,-0.4932,-0.6084,-0.7184,-0.8233,-0.8996,-0.9468,-0.9709,-0.957,-0.9672,-0.9895,-0.9624,-0.9613,-0.9795,-0.9586,-0.9587,-0.9735,-0.9923,-1.0081,-1.0199,-1.0148,-1.0202,-1.0286,-1.0148,-1.0697,-1.1413,-1.1822,-1.2308,-1.2849,-1.3618,-1.4093,-1.4348,-1.4172,-1.4838,-1.5454,-1.5312,-1.5348,-1.5428,-1.5428,-1.5272,-1.5048,-1.4718,-1.4367,-1.3982,-1.3571,-1.4016,-1.4179,-1.3588,-1.387,-1.3964,-1.3554,-1.3511,-1.3511,-1.3511,-1.3511,-1.3511,-1.3511,-1.3511,-1.3511,-1.3511,-1.3511,-1.3511,-1.3511,-1.3511,-1.3511,-1.3511,-1.3511,-1.3511,-1.3511,-1.3511,-1.3511,-0.7901,0.0,0.0,0.0,0.0,0.0,0.0,0.0,0.0,0.0,0.0,0.0,0.0,0.0,0.0,0.0,0.0,0.0,0.0,0.0,0.0,0.0,0.0,0.0,0.0,0.0,0.0,0.0,0.0,-0.4491,-0.4491,-0.4491,-0.4491,-0.4491,-0.4491,-0.4491,-0.4491,-0.4491,-0.4491,-0.4491,-0.4491,-0.4736,-0.5203,-0.6015,-0.6715,-0.7392,-0.8483,-0.9164,-0.9516,-0.9516,-0.9516,-0.9516,-0.9516,-0.9516,-0.9516,-0.9516,-0.9654,-0.9835,-0.9835,-0.9979,-1.0124,-0.9907,-0.9871,-0.9895,-0.9853,-1.0051,-1.0363,-1.0673,-1.0917,-1.1244,-1.2101,-1.2778,-1.3257,-1.324,-1.3971,-1.4664,-1.4608,-1.4632,-1.4684,-1.4684,-1.4367,-1.4093,-1.4093,-1.3768,-1.3511,-1.3511,-1.3571,-1.3588,-1.3519,-1.3571,-1.3579,-1.3511,-1.3511,-1.3511,-1.3511,-1.345,-1.342,-1.342,-1.3359,-1.3329,-1.3329,-1.3329,-1.3329,-1.3329,-1.339,-1.339,-1.3329,-1.339,-1.342,-1.342,-1.342,-1.345,0.0,0.0,0.0,0.0,0.0,0.0,0.0,0.0,0.0,0.0,0.0,0.0,0.0,0.0,0.0,0.0,0.0,0.0,0.0,0.0,0.0,0.0,0.0,0.0,0.0,0.0,0.0,0.0,-0.4408,-0.4491,-0.4491,-0.4491,-0.4491,-0.4491,-0.4491,-0.4491,-0.4491,-0.4491,-0.4491,-0.4491,-0.4491,-0.4546,-0.4625,-0.5223,-0.6332,-0.7838,-0.8226,-0.8808,-0.9516,-0.9516,-0.9516,-0.9516,-0.9516,-0.9516,-0.9516,-0.9516,-0.954,-0.957,-0.957,-0.9588,-0.9612,-0.9582,-0.9721,-0.9865,-0.9636,-0.9907,-1.0388,-1.0921,-1.0989,-1.1162,-1.2203,-1.2384,-1.2266,-1.2153,-1.231,-1.2823,-1.3956,-1.4444,-1.4684,-1.4684,-1.4367,-1.4093,-1.4093,-1.3768,-1.3511,-1.3511,-1.3802,-1.3896,-1.3554,-1.381,-1.3887,-1.3545,-1.3511,-1.3511,-1.3511,-1.3216,-1.3072,-1.3072,-1.2789,-1.2636,-1.2636,-1.2636,-1.2636,-1.2636,-1.292,-1.292,-1.2636,-1.292,-1.3072,-1.3072,-1.3072,-1.3216,-0.7901,0.0,0.0,0.0,0.0,0.0,0.0,0.0,0.0,0.0,0.0,0.0,0.0,0.0,0.0,0.0,0.0,0.0,0.0,0.0,0.0,0.0,0.0,0.0,0.0,0.0,0.0,0.0,-0.4356,-0.4384,-0.4491,-0.4491,-0.4491,-0.4491,-0.4491,-0.4491,-0.4491,-0.4491,-0.4491,-0.4491,-0.4491,-0.4491,-0.4519,-0.4736,-0.553,-0.6687,-0.723,-0.7978,-0.8843,-0.8922,-0.9151,-0.9516,-0.9516,-0.9516,-0.9516,-0.9516,-0.9516,-0.9516,-0.9516,-0.9516,-0.9516,-0.9516,-0.9594,-0.9666,-0.9552,-0.9781,-1.0119,-1.0359,-1.0508,-1.0717,-1.141,-1.1691,-1.176,-1.1696,-1.1875,-1.2188,-1.257,-1.2775,-1.2925,-1.2925,-1.2759,-1.2656,-1.2656,-1.2808,-1.2948,-1.2948,-1.3403,-1.3708,-1.3528,-1.3656,-1.3616,-1.3263,-1.3216,-1.3155,-1.2964,-1.2789,-1.2736,-1.2736,-1.2582,-1.2482,-1.2482,-1.2482,-1.2428,-1.2274,-1.2582,-1.2644,-1.2482,-1.2644,-1.2736,-1.2736,-1.2736,-1.2789,0.0,0.0,0.0,0.0,0.0,0.0,0.0,0.0,0.0,0.0,0.0,0.0,0.0,0.0,0.0,0.0,0.0,0.0,0.0,0.0,0.0,0.0,0.0,0.0,0.0,0.0,0.0,0.0,-0.4245,-0.4276,-0.4494,-0.4491,-0.4491,-0.4491,-0.4491,-0.4491,-0.4491,-0.4491,-0.4491,-0.4491,-0.4491,-0.4491,-0.4491,-0.4532,-0.4886,-0.5493,-0.6208,-0.7071,-0.7987,-0.8231,-0.8667,-0.9217,-0.9344,-0.945,-0.9516,-0.9516,-0.9516,-0.9516,-0.9516,-0.9516,-0.9516,-0.9516,-0.9516,-0.9516,-0.9516,-0.9654,-0.9805,-0.9805,-0.9949,-1.0165,-1.0558,-1.0823,-1.0996,-1.1074,-1.1262,-1.1439,-1.1505,-1.1516,-1.1516,-1.1516,-1.1633,-1.1764,-1.1764,-1.232,-1.2757,-1.2757,-1.3169,-1.348,-1.339,-1.3359,-1.3246,-1.292,-1.2758,-1.2636,-1.2513,-1.2297,-1.2236,-1.239,-1.2328,-1.2266,-1.2266,-1.2266,-1.2182,-1.1972,-1.2182,-1.2266,-1.2266,-1.2367,-1.2398,-1.2398,-1.2398,-1.2421,0.0,0.0,0.0,0.0,0.0,0.0,0.0,0.0,0.0,0.0,0.0,0.0,0.0,0.0,0.0,0.0,0.0,0.0,0.0,0.0,0.0,0.0,0.0,0.0,0.0,0.0,0.0,0.0,-0.4052,-0.428,-0.4477,-0.4494,-0.4491,-0.4491,-0.4491,-0.4491,-0.4491,-0.4491,-0.4491,-0.4491,-0.4491,-0.4491,-0.4494,-0.4641,-0.4713,-0.4778,-0.5464,-0.6265,-0.7106,-0.7687,-0.8103,-0.8429,-0.8929,-0.9281,-0.9516,-0.9516,-0.9516,-0.9516,-0.9516,-0.9516,-0.9516,-0.9516,-0.9516,-0.9516,-0.9516,-0.9528,-0.9534,-0.9534,-0.9546,-0.9612,-0.988,-0.9792,-0.9677,-0.9928,-0.9801,-0.9964,-1.1243,-1.1516,-1.1516,-1.1516,-1.2012,-1.2451,-1.2451,-1.3009,-1.345,-1.345,-1.348,-1.339,-1.3072,-1.3042,-1.2889,-1.2544,-1.212,-1.2027,-1.2451,-1.1802,-1.1584,-1.2089,-1.1809,-1.1654,-1.1654,-1.1654,-1.1654,-1.1622,-1.1654,-1.1654,-1.1654,-1.1965,-1.212,-1.212,-1.212,-1.2274,0.0,0.0,0.0,0.0,0.0,0.0,0.0,0.0,0.0,0.0,0.0,0.0,0.0,0.0,0.0,0.0,0.0,0.0,0.0,0.0,0.0,0.0,0.0,0.0,0.0,0.0,0.0,0.0,0.0,-0.4107,-0.4166,-0.4384,-0.4436,-0.4301,-0.4436,-0.4491,-0.4491,-0.4491,-0.4491,-0.4491,-0.4491,-0.4491,-0.4491,-0.4545,-0.4627,-0.472,-0.4944,-0.5559,-0.6388,-0.6699,-0.7408,-0.8331,-0.8617,-0.9032,-0.9516,-0.9516,-0.9516,-0.9516,-0.9516,-0.9516,-0.9516,-0.9516,-0.9516,-0.9516,-0.9516,-0.9516,-0.9516,-0.9516,-0.9516,-0.9508,-0.963,-0.9588,-0.954,-0.963,-0.9582,-0.9638,-1.0098,-1.0534,-1.0724,-1.0288,-1.0755,-1.1069,-1.0661,-1.1132,-1.1562,-1.1454,-1.1795,-1.1989,-1.1741,-1.171,-1.1586,-1.1243,-1.108,-1.1006,-1.1125,-1.0893,-1.0796,-1.099,-1.1217,-1.1262,-1.1097,-1.1404,-1.1591,-1.1591,-1.1591,-1.1591,-1.1591,-1.1716,-1.1778,-1.1778,-1.1778,-1.184,-0.7901,0.0,0.0,0.0,0.0,0.0,0.0,0.0,0.0,0.0,0.0,0.0,0.0,0.0,0.0,0.0,0.0,0.0,0.0,0.0,0.0,0.0,0.0,0.0,0.0,0.0,0.0,0.0,0.0,0.0,-0.3993,-0.4245,-0.4384,-0.4301,-0.4436,-0.4491,-0.4491,-0.4491,-0.4491,-0.4491,-0.4491,-0.4515,-0.4566,-0.4566,-0.4651,-0.4769,-0.4769,-0.5059,-0.5586,-0.5886,-0.6567,-0.7481,-0.7978,-0.8499,-0.899,-0.9152,-0.9245,-0.9257,-0.9342,-0.9372,-0.939,-0.9486,-0.9516,-0.9516,-0.9516,-0.9516,-0.9516,-0.9516,-0.9516,-0.9516,-0.9516,-0.9516,-0.9516,-0.9516,-0.9516,-0.9516,-0.9516,-0.9862,-1.0015,-0.958,-1.0009,-1.0288,-0.9856,-1.0256,-1.0629,-1.0553,-1.0892,-1.1111,-1.086,-1.0829,-1.0703,-1.0357,-1.0174,-1.0168,-1.0369,-1.0174,-1.0128,-1.0388,-1.083,-1.098,-1.0814,-1.131,-1.1591,-1.1591,-1.1591,-1.1591,-1.1591,-1.1591,-1.1591,-1.1591,-1.1591,-1.1591,0.0,0.0,0.0,0.0,0.0,0.0,0.0,0.0,0.0,0.0,0.0,0.0,0.0,0.0,0.0,0.0,0.0,0.0,0.0,0.0,0.0,0.0,0.0,0.0,0.0,0.0,0.0,0.0,-0.3716,-0.3852,-0.3993,-0.4107,-0.4273,-0.4491,-0.4491,-0.4491,-0.4491,-0.4491,-0.4491,-0.4491,-0.4491,-0.4566,-0.4684,-0.4684,-0.4769,-0.4887,-0.4887,-0.4836,-0.4762,-0.5335,-0.5641,-0.5834,-0.6991,-0.762,-0.7938,-0.8481,-0.8687,-0.8717,-0.8999,-0.9083,-0.9131,-0.9414,-0.9504,-0.9504,-0.951,-0.9516,-0.9516,-0.9516,-0.9516,-0.9516,-0.9516,-0.9516,-0.9484,-0.9484,-0.9484,-0.9484,-0.9484,-0.9484,-0.9484,-0.9484,-0.9913,-1.0275,-1.0275,-1.064,-1.0954,-1.0954,-1.0954,-1.0829,-1.0483,-1.0451,-1.0332,-0.9983,-0.955,-0.9574,-1.0302,-0.9693,-0.9586,-1.0342,-1.0625,-1.0782,-1.0807,-1.131,-1.1591,-1.1591,-1.1591,-1.1591,-1.1591,-1.1591,-1.1591,-1.1577,-1.1569,-1.1569,-0.7901,0.0,0.0,0.0,0.0,0.0,0.0,0.0,0.0,0.0,0.0,0.0,0.0,0.0,0.0,0.0,0.0,0.0,0.0,0.0,0.0,0.0,0.0,0.0,0.0,0.0,0.0,0.0,-0.3716,-0.3771,-0.3722,-0.3941,-0.419,-0.4491,-0.4491,-0.4491,-0.4491,-0.4491,-0.4491,-0.4491,-0.4491,-0.4511,-0.4552,-0.4552,-0.467,-0.4887,-0.4887,-0.4921,-0.4999,-0.5079,-0.5419,-0.596,-0.6397,-0.6911,-0.745,-0.8038,-0.8207,-0.8174,-0.864,-0.8812,-0.886,-0.9125,-0.9215,-0.9251,-0.9456,-0.9516,-0.9516,-0.9516,-0.9516,-0.9516,-0.9516,-0.9516,-0.9484,-0.9376,-0.9344,-0.9312,-0.9183,-0.9151,-0.9183,-0.9344,-0.9741,-0.9926,-0.946,-0.9454,-0.9518,-0.9428,-0.9396,-0.9332,-0.9081,-0.9049,-0.9017,-0.892,-0.8797,-0.8864,-0.9276,-0.9131,-0.9253,-0.9777,-1.0252,-1.0613,-1.0782,-1.131,-1.1591,-1.1591,-1.1591,-1.1591,-1.1591,-1.1591,-1.1474,-1.1232,-1.0997,-1.1012,0.0,0.0,0.0,0.0,0.0,0.0,-0.7784,-0.7786,0.0,0.0,0.0,0.0,0.0,0.0,0.0,0.0,0.0,0.0,0.0,0.0,0.0,0.0,0.0,0.0,0.0,-0.3638,-0.3613,-0.3613,-0.3663,-0.3719,-0.3691,-0.3885,-0.4104,-0.4356,-0.4384,-0.4408,-0.4491,-0.4491,-0.4549,-0.4615,-0.4643,-0.4677,-0.4682,-0.4682,-0.4752,-0.4891,-0.4951,-0.4988,-0.5009,-0.4985,-0.5214,-0.5578,-0.5848,-0.6194,-0.6599,-0.7111,-0.7259,-0.7299,-0.7977,-0.819,-0.8294,-0.8759,-0.8933,-0.8987,-0.9257,-0.9279,-0.9271,-0.9384,-0.935,-0.9285,-0.9285,-0.9285,-0.928,-0.9177,-0.9177,-0.9145,-0.9017,-0.8952,-0.8958,-0.9145,-0.9364,-0.9364,-0.8985,-0.8861,-0.877,-0.8673,-0.8673,-0.8646,-0.8511,-0.8517,-0.8517,-0.8517,-0.8517,-0.8608,-0.8879,-0.8809,-0.8887,-0.9282,-0.9721,-1.0018,-1.0174,-1.0667,-1.1045,-1.1247,-1.1279,-1.1308,-1.1386,-1.1386,-1.1224,-1.0894,-1.0675,-1.0689,0.0,0.0,0.0,0.0,0.0,0.0,-0.7641,-0.7612,-0.7545,0.0,0.0,0.0,0.0,0.0,0.0,0.0,0.0,0.0,0.0,0.0,0.0,0.0,0.0,0.0,-0.3769,-0.3666,-0.3613,-0.3613,-0.3613,-0.3663,-0.3796,-0.391,-0.4052,-0.4166,-0.4193,-0.4301,-0.4491,-0.4491,-0.4591,-0.4757,-0.4815,-0.4859,-0.4867,-0.4887,-0.4864,-0.4874,-0.5032,-0.4998,-0.4894,-0.5034,-0.5008,-0.4958,-0.538,-0.5552,-0.5591,-0.6015,-0.6147,-0.6243,-0.7105,-0.7394,-0.7472,-0.8236,-0.8498,-0.8569,-0.8829,-0.887,-0.8904,-0.9162,-0.9105,-0.8982,-0.8979,-0.8985,-0.8985,-0.8985,-0.8985,-0.8985,-0.8952,-0.8861,-0.8802,-0.892,-0.8861,-0.877,-0.877,-0.8608,-0.8517,-0.8517,-0.8517,-0.8517,-0.8517,-0.8517,-0.8517,-0.8517,-0.8517,-0.8597,-0.8841,-0.8635,-0.8636,-0.8908,-0.9175,-0.9338,-0.937,-0.9767,-1.0212,-1.0706,-1.0742,-1.0818,-1.0959,-1.0982,-1.085,-1.0528,-1.0499,-1.0521,0.0,0.0,0.0,0.0,0.0,0.0,-0.7717,-0.7673,-0.7635,0.0,0.0,0.0,0.0,0.0,0.0,0.0,0.0,0.0,0.0,0.0,0.0,0.0,0.0,0.0,-0.3638,-0.361,-0.3613,-0.3613,-0.3613,-0.3663,-0.3796,-0.3824,-0.391,-0.4024,-0.4138,-0.4304,-0.4505,-0.4505,-0.4515,-0.4563,-0.4563,-0.458,-0.4583,-0.4677,-0.4735,-0.4752,-0.4864,-0.4934,-0.4886,-0.4866,-0.4935,-0.5056,-0.5147,-0.5199,-0.5258,-0.584,-0.5892,-0.5837,-0.6607,-0.6682,-0.652,-0.69,-0.724,-0.7523,-0.7679,-0.8058,-0.8478,-0.8744,-0.8788,-0.8802,-0.8965,-0.8985,-0.8985,-0.8867,-0.8835,-0.8802,-0.8641,-0.8576,-0.8582,-0.8576,-0.8576,-0.8549,-0.8549,-0.8517,-0.8517,-0.8517,-0.8517,-0.8517,-0.8517,-0.8517,-0.8517,-0.8517,-0.8517,-0.8533,-0.8581,-0.8544,-0.8695,-0.9182,-0.9271,-0.946,-0.9831,-0.9958,-1.0053,-1.0148,-1.0307,-1.0287,-1.0038,-1.0222,-1.0258,-1.0192,-0.9929,-1.0082,0.0,0.0,0.0,-0.7901,0.0,0.0,0.0,-0.7509,-0.7416,0.0,0.0,0.0,0.0,0.0,0.0,0.0,0.0,0.0,0.0,0.0,0.0,0.0,0.0,0.0,-0.3525,-0.3547,-0.3613,-0.3613,-0.3613,-0.3638,-0.3691,-0.3691,-0.3771,-0.391,-0.391,-0.4024,-0.4252,-0.4421,-0.4511,-0.4487,-0.4604,-0.4604,-0.4494,-0.4705,-0.4732,-0.4617,-0.4882,-0.4947,-0.4897,-0.4937,-0.4949,-0.4948,-0.4874,-0.4845,-0.4868,-0.5106,-0.5104,-0.5099,-0.5775,-0.5892,-0.583,-0.622,-0.649,-0.6669,-0.6823,-0.7275,-0.7752,-0.7784,-0.812,-0.8457,-0.858,-0.867,-0.8738,-0.8673,-0.8641,-0.8608,-0.8517,-0.842,-0.8365,-0.8365,-0.8237,-0.8237,-0.8474,-0.8517,-0.8517,-0.8517,-0.8517,-0.8517,-0.8517,-0.8517,-0.8517,-0.8517,-0.8517,-0.8517,-0.8517,-0.8517,-0.8608,-0.8894,-0.8894,-0.9017,-0.9236,-0.9236,-0.9299,-0.945,-0.9853,-0.9921,-0.965,-0.9772,-0.9855,-0.9855,-0.9687,-0.9877,0.0,0.0,0.0,0.0,0.0,-0.7762,0.0,0.0,0.0,-0.6839,0.0,0.0,0.0,0.0,0.0,0.0,0.0,0.0,0.0,0.0,0.0,0.0,0.0,0.0,0.0,-0.3526,-0.3613,-0.3613,-0.3613,-0.3613,-0.3613,-0.3613,-0.3638,-0.3771,-0.3658,-0.3713,-0.3965,-0.4221,-0.4391,-0.4413,-0.4648,-0.4662,-0.4516,-0.4757,-0.473,-0.4539,-0.483,-0.488,-0.4801,-0.4901,-0.4861,-0.4686,-0.4643,-0.463,-0.4618,-0.4509,-0.4448,-0.4522,-0.504,-0.5153,-0.5186,-0.5639,-0.5773,-0.5845,-0.6122,-0.6501,-0.6849,-0.675,-0.7233,-0.7778,-0.7819,-0.7907,-0.802,-0.802,-0.8122,-0.8185,-0.8185,-0.8158,-0.8111,-0.8111,-0.796,-0.7935,-0.8371,-0.8447,-0.8463,-0.8506,-0.8517,-0.8517,-0.8517,-0.8517,-0.8479,-0.8414,-0.8452,-0.8484,-0.8414,-0.8452,-0.8517,-0.8517,-0.8517,-0.8495,-0.8447,-0.8468,-0.86,-0.8791,-0.9411,-0.9636,-0.9487,-0.9571,-0.9588,-0.9614,-0.968,-0.9885,0.0,0.0,0.0,0.0,-0.7649,0.0,0.0,0.0,-0.7261,-0.7089,0.0,0.0,0.0,0.0,0.0,0.0,0.0,0.0,0.0,0.0,0.0,0.0,0.0,0.0,0.0,-0.3602,-0.3613,-0.3613,-0.3613,-0.3613,-0.3613,-0.3613,-0.3613,-0.361,-0.361,-0.3663,-0.3824,-0.3852,-0.3947,-0.4073,-0.4394,-0.451,-0.4516,-0.4663,-0.4661,-0.4591,-0.4502,-0.444,-0.4356,-0.438,-0.4367,-0.4398,-0.468,-0.4773,-0.4773,-0.4755,-0.4673,-0.4617,-0.4804,-0.4673,-0.4417,-0.4544,-0.4687,-0.4907,-0.5576,-0.5725,-0.576,-0.6018,-0.6129,-0.6207,-0.6368,-0.637,-0.6298,-0.6298,-0.6696,-0.7089,-0.7089,-0.7495,-0.7838,-0.7838,-0.7817,-0.7881,-0.8176,-0.8219,-0.8295,-0.8479,-0.8517,-0.8517,-0.8517,-0.8517,-0.8382,-0.8084,-0.8317,-0.8382,-0.8084,-0.8317,-0.8517,-0.8517,-0.8517,-0.8414,-0.823,-0.8353,-0.8426,-0.8457,-0.9114,-0.9432,-0.9398,-0.9537,-0.9588,-0.9595,-0.9907,-1.0221,0.0,0.0,0.0,0.0,0.0,0.0,-0.7467,0.0,-0.7257,0.0,0.0,0.0,0.0,0.0,0.0,0.0,0.0,0.0,0.0,0.0,0.0,0.0,0.0,0.0,0.0,0.0,0.0,0.0,-0.3504,-0.3553,-0.3482,-0.3547,-0.3613,-0.3613,-0.3613,-0.3638,-0.3691,-0.3771,-0.3862,-0.3997,-0.4227,-0.4324,-0.4342,-0.4457,-0.4455,-0.4372,-0.4476,-0.4437,-0.4321,-0.4413,-0.4398,-0.43,-0.4467,-0.45,-0.45,-0.45,-0.4466,-0.4426,-0.448,-0.4433,-0.4279,-0.4239,-0.4218,-0.4243,-0.4512,-0.4753,-0.4968,-0.514,-0.5478,-0.5809,-0.599,-0.6259,-0.6533,-0.6533,-0.6987,-0.7439,-0.7439,-0.7483,-0.7567,-0.7567,-0.7483,-0.7462,-0.7704,-0.7855,-0.8014,-0.8081,-0.8028,-0.799,-0.799,-0.7938,-0.7949,-0.7987,-0.8117,-0.8214,-0.8284,-0.842,-0.8452,-0.8344,-0.8178,-0.8054,-0.7982,-0.8028,-0.7971,-0.7827,-0.8586,-0.8946,-0.8816,-0.9549,-0.9899,-0.9899,-1.0038,-1.0272,-0.7842,0.0,0.0,0.0,0.0,0.0,0.0,0.0,0.0,0.0,0.0,0.0,0.0,0.0,0.0,0.0,0.0,0.0,0.0,0.0,0.0,0.0,0.0,0.0,0.0,0.0,0.0,-0.3324,-0.3482,-0.3545,-0.3455,-0.3536,-0.3613,-0.3613,-0.3613,-0.3613,-0.3613,-0.3691,-0.3806,-0.3961,-0.4115,-0.4234,-0.4269,-0.4359,-0.4377,-0.4321,-0.4408,-0.4394,-0.4308,-0.4461,-0.4431,-0.43,-0.43,-0.43,-0.43,-0.43,-0.43,-0.43,-0.43,-0.43,-0.4281,-0.4156,-0.4003,-0.3887,-0.383,-0.4065,-0.4329,-0.4384,-0.4769,-0.5194,-0.5285,-0.5788,-0.6253,-0.6253,-0.6808,-0.737,-0.737,-0.7325,-0.7321,-0.7321,-0.7154,-0.703,-0.7177,-0.7404,-0.7608,-0.7671,-0.7522,-0.7408,-0.7408,-0.7354,-0.7382,-0.7546,-0.7641,-0.7798,-0.7992,-0.8037,-0.7986,-0.7844,-0.7619,-0.7469,-0.7469,-0.7518,-0.7464,-0.7265,-0.7999,-0.8433,-0.8563,-0.9391,-0.9956,-1.0236,-1.0331,-1.0492,0.0,0.0,0.0,-0.7419,0.0,0.0,0.0,0.0,-0.7112,0.0,0.0,0.0,0.0,0.0,0.0,-0.6757,0.0,0.0,0.0,0.0,0.0,0.0,0.0,0.0,0.0,0.0,0.0,-0.3599,-0.3608,-0.361,-0.3605,-0.361,-0.3613,-0.3613,-0.3613,-0.3613,-0.3613,-0.3613,-0.3668,-0.3812,-0.4087,-0.4278,-0.4406,-0.4406,-0.447,-0.4574,-0.4261,-0.4186,-0.4295,-0.43,-0.43,-0.43,-0.43,-0.43,-0.43,-0.43,-0.43,-0.43,-0.43,-0.43,-0.4281,-0.4156,-0.4003,-0.3903,-0.39,-0.3873,-0.3831,-0.3895,-0.3903,-0.387,-0.3873,-0.4213,-0.4588,-0.4588,-0.5434,-0.6255,-0.6255,-0.6717,-0.7122,-0.7122,-0.6896,-0.6707,-0.6712,-0.6877,-0.7106,-0.7378,-0.7146,-0.6936,-0.6936,-0.6911,-0.6791,-0.6491,-0.6736,-0.6876,-0.6769,-0.6883,-0.6941,-0.6936,-0.6745,-0.663,-0.663,-0.6839,-0.6928,-0.6918,-0.7316,-0.8003,-0.8978,-0.9018,-0.9562,-1.058,-1.0924,-1.1078,0.0,0.0,-0.7729,-0.7595,0.0,0.0,0.0,0.0,0.0,0.0,0.0,0.0,0.0,0.0,-0.7058,-0.6977,-0.7031,0.0,0.0,0.0,0.0,0.0,0.0,0.0,0.0,0.0,0.0,-0.3341,-0.3417,-0.3463,-0.3463,-0.3539,-0.3613,-0.3613,-0.3613,-0.3613,-0.3613,-0.3613,-0.368,-0.3873,-0.3947,-0.4107,-0.4339,-0.4339,-0.4361,-0.4395,-0.429,-0.4262,-0.43,-0.43,-0.43,-0.43,-0.43,-0.43,-0.43,-0.43,-0.43,-0.43,-0.43,-0.43,-0.4268,-0.4032,-0.3938,-0.3876,-0.3748,-0.3675,-0.3695,-0.381,-0.3758,-0.3687,-0.3764,-0.4147,-0.4491,-0.4491,-0.5363,-0.6209,-0.6209,-0.6669,-0.7112,-0.7112,-0.7031,-0.6923,-0.6729,-0.6571,-0.6507,-0.658,-0.6487,-0.6372,-0.6372,-0.6283,-0.6272,-0.6383,-0.6503,-0.665,-0.6815,-0.6752,-0.6697,-0.6697,-0.6464,-0.6345,-0.6345,-0.641,-0.6448,-0.6448,-0.688,-0.7324,-0.7734,-0.8498,-0.9035,-0.9363,-0.99,-1.05,-0.7842,-0.7729,0.0,-0.7568,-0.7419,0.0,-0.723,0.0,0.0,0.0,0.0,0.0,0.0,0.0,0.0,-0.6783,-0.6945,-0.7058,0.0,-0.629,0.0,0.0,0.0,0.0,0.0,0.0,-0.3252,-0.321,-0.3369,-0.3466,0.0,0.0,-0.3613,-0.3613,-0.3613,-0.3613,-0.3613,-0.3613,-0.368,-0.3871,-0.3884,-0.4008,-0.4238,-0.4281,-0.43,-0.43,-0.43,-0.43,-0.43,-0.43,-0.43,-0.43,-0.43,-0.43,-0.43,-0.43,-0.43,-0.4295,-0.4251,-0.4235,-0.4194,-0.395,-0.3871,-0.3833,-0.3642,-0.3613,-0.3635,-0.375,-0.3701,-0.3638,-0.3753,-0.4147,-0.4491,-0.4491,-0.5199,-0.5878,-0.5823,-0.6122,-0.6372,-0.6317,-0.6236,-0.6127,-0.5937,-0.5637,-0.5555,-0.5996,-0.592,-0.5806,-0.5806,-0.574,-0.5785,-0.5976,-0.6006,-0.6093,-0.6301,-0.6276,-0.6217,-0.6149,-0.5963,-0.5887,-0.5887,-0.5887,-0.5918,-0.599,-0.6328,-0.6766,-0.727,-0.8051,-0.8683,-0.9159,-0.9593,-1.0221]}]]